<?xml version="1.0" encoding="UTF-8" standalone="no" ?>
<gpx xmlns="http://www.topografix.com/GPX/1/1" xmlns:xsi="http://www.w3.org/2001/XMLSchema-instance" xsi:schemaLocation="http://www.topografix.com/GPX/1/1 http://www.topografix.com/GPX/1/1/gpx.xsd" version="1.1" creator="VisuGPX - https://www.visugpx.com">
  <metadata>
    <name>La Fontainebelleau 2014</name>
    <desc><![CDATA[Rando FFCT dans le massif de Fontainebleau.]]></desc>
  </metadata>
  <trk>
    <name><![CDATA[Tracé actuel: 23 MARS 2014 07:46]]></name>
    <trkseg>
      <trkpt lat="48.40447" lon="2.68323">
        <ele>70.79</ele>
        <time>2014-03-23T06:46:42Z</time>
      </trkpt>
      <trkpt lat="48.40449" lon="2.68323">
        <ele>70.79</ele>
        <time>2014-03-23T06:46:43Z</time>
      </trkpt>
      <trkpt lat="48.40453" lon="2.68318">
        <ele>70.79</ele>
        <time>2014-03-23T06:46:45Z</time>
      </trkpt>
      <trkpt lat="48.40456" lon="2.68304">
        <ele>82.33</ele>
        <time>2014-03-23T06:46:49Z</time>
      </trkpt>
      <trkpt lat="48.40456" lon="2.683">
        <ele>82.33</ele>
        <time>2014-03-23T06:46:50Z</time>
      </trkpt>
      <trkpt lat="48.40458" lon="2.68289">
        <ele>84.25</ele>
        <time>2014-03-23T06:46:53Z</time>
      </trkpt>
      <trkpt lat="48.40469" lon="2.68225">
        <ele>84.25</ele>
        <time>2014-03-23T06:47:06Z</time>
      </trkpt>
      <trkpt lat="48.40483" lon="2.6813">
        <ele>84.25</ele>
        <time>2014-03-23T06:47:23Z</time>
      </trkpt>
      <trkpt lat="48.40486" lon="2.68113">
        <ele>84.25</ele>
        <time>2014-03-23T06:47:26Z</time>
      </trkpt>
      <trkpt lat="48.40486" lon="2.68107">
        <ele>84.25</ele>
        <time>2014-03-23T06:47:27Z</time>
      </trkpt>
      <trkpt lat="48.40487" lon="2.681">
        <ele>84.25</ele>
        <time>2014-03-23T06:47:28Z</time>
      </trkpt>
      <trkpt lat="48.40498" lon="2.68027">
        <ele>84.73</ele>
        <time>2014-03-23T06:47:40Z</time>
      </trkpt>
      <trkpt lat="48.40499" lon="2.6802">
        <ele>84.73</ele>
        <time>2014-03-23T06:47:41Z</time>
      </trkpt>
      <trkpt lat="48.405" lon="2.68013">
        <ele>84.73</ele>
        <time>2014-03-23T06:47:42Z</time>
      </trkpt>
      <trkpt lat="48.40501" lon="2.68006">
        <ele>84.73</ele>
        <time>2014-03-23T06:47:43Z</time>
      </trkpt>
      <trkpt lat="48.40502" lon="2.67999">
        <ele>84.73</ele>
        <time>2014-03-23T06:47:44Z</time>
      </trkpt>
      <trkpt lat="48.40521" lon="2.67868">
        <ele>85.21</ele>
        <time>2014-03-23T06:48:03Z</time>
      </trkpt>
      <trkpt lat="48.40528" lon="2.6782">
        <ele>85.21</ele>
        <time>2014-03-23T06:48:10Z</time>
      </trkpt>
      <trkpt lat="48.40529" lon="2.67814">
        <ele>85.21</ele>
        <time>2014-03-23T06:48:11Z</time>
      </trkpt>
      <trkpt lat="48.40538" lon="2.67735">
        <ele>85.21</ele>
        <time>2014-03-23T06:48:24Z</time>
      </trkpt>
      <trkpt lat="48.40564" lon="2.67661">
        <ele>85.21</ele>
        <time>2014-03-23T06:48:38Z</time>
      </trkpt>
      <trkpt lat="48.40577" lon="2.67648">
        <ele>85.21</ele>
        <time>2014-03-23T06:48:41Z</time>
      </trkpt>
      <trkpt lat="48.40581" lon="2.67642">
        <ele>85.21</ele>
        <time>2014-03-23T06:48:42Z</time>
      </trkpt>
      <trkpt lat="48.40594" lon="2.6762">
        <ele>85.21</ele>
        <time>2014-03-23T06:48:46Z</time>
      </trkpt>
      <trkpt lat="48.40598" lon="2.67616">
        <ele>85.21</ele>
        <time>2014-03-23T06:48:47Z</time>
      </trkpt>
      <trkpt lat="48.40639" lon="2.67558">
        <ele>86.66</ele>
        <time>2014-03-23T06:49:01Z</time>
      </trkpt>
      <trkpt lat="48.40658" lon="2.67527">
        <ele>87.62</ele>
        <time>2014-03-23T06:49:11Z</time>
      </trkpt>
      <trkpt lat="48.40678" lon="2.67496">
        <ele>90.02</ele>
        <time>2014-03-23T06:49:22Z</time>
      </trkpt>
      <trkpt lat="48.40692" lon="2.67477">
        <ele>90.5</ele>
        <time>2014-03-23T06:49:29Z</time>
      </trkpt>
      <trkpt lat="48.40694" lon="2.67478">
        <ele>90.98</ele>
        <time>2014-03-23T06:49:30Z</time>
      </trkpt>
      <trkpt lat="48.40696" lon="2.67481">
        <ele>90.98</ele>
        <time>2014-03-23T06:49:31Z</time>
      </trkpt>
      <trkpt lat="48.40698" lon="2.67484">
        <ele>90.98</ele>
        <time>2014-03-23T06:49:32Z</time>
      </trkpt>
      <trkpt lat="48.40699" lon="2.67488">
        <ele>90.98</ele>
        <time>2014-03-23T06:49:33Z</time>
      </trkpt>
      <trkpt lat="48.40701" lon="2.67491">
        <ele>90.98</ele>
        <time>2014-03-23T06:49:34Z</time>
      </trkpt>
      <trkpt lat="48.40709" lon="2.67514">
        <ele>91.94</ele>
        <time>2014-03-23T06:49:40Z</time>
      </trkpt>
      <trkpt lat="48.40722" lon="2.67544">
        <ele>90.5</ele>
        <time>2014-03-23T06:49:45Z</time>
      </trkpt>
      <trkpt lat="48.40725" lon="2.67552">
        <ele>90.5</ele>
        <time>2014-03-23T06:49:46Z</time>
      </trkpt>
      <trkpt lat="48.40731" lon="2.67571">
        <ele>90.5</ele>
        <time>2014-03-23T06:49:49Z</time>
      </trkpt>
      <trkpt lat="48.40737" lon="2.67583">
        <ele>90.5</ele>
        <time>2014-03-23T06:49:51Z</time>
      </trkpt>
      <trkpt lat="48.40746" lon="2.67608">
        <ele>90.5</ele>
        <time>2014-03-23T06:49:55Z</time>
      </trkpt>
      <trkpt lat="48.40756" lon="2.67648">
        <ele>90.02</ele>
        <time>2014-03-23T06:50:01Z</time>
      </trkpt>
      <trkpt lat="48.40769" lon="2.67681">
        <ele>90.02</ele>
        <time>2014-03-23T06:50:06Z</time>
      </trkpt>
      <trkpt lat="48.40786" lon="2.67736">
        <ele>89.06</ele>
        <time>2014-03-23T06:50:15Z</time>
      </trkpt>
      <trkpt lat="48.40814" lon="2.67817">
        <ele>89.06</ele>
        <time>2014-03-23T06:50:29Z</time>
      </trkpt>
      <trkpt lat="48.40836" lon="2.67882">
        <ele>89.06</ele>
        <time>2014-03-23T06:50:42Z</time>
      </trkpt>
      <trkpt lat="48.40839" lon="2.67884">
        <ele>89.06</ele>
        <time>2014-03-23T06:50:43Z</time>
      </trkpt>
      <trkpt lat="48.40843" lon="2.67884">
        <ele>89.06</ele>
        <time>2014-03-23T06:50:44Z</time>
      </trkpt>
      <trkpt lat="48.40846" lon="2.67882">
        <ele>89.06</ele>
        <time>2014-03-23T06:50:45Z</time>
      </trkpt>
      <trkpt lat="48.40847" lon="2.67877">
        <ele>89.06</ele>
        <time>2014-03-23T06:50:46Z</time>
      </trkpt>
      <trkpt lat="48.40849" lon="2.67873">
        <ele>89.06</ele>
        <time>2014-03-23T06:50:47Z</time>
      </trkpt>
      <trkpt lat="48.40873" lon="2.67807">
        <ele>89.06</ele>
        <time>2014-03-23T06:50:58Z</time>
      </trkpt>
      <trkpt lat="48.40877" lon="2.67793">
        <ele>89.06</ele>
        <time>2014-03-23T06:51:00Z</time>
      </trkpt>
      <trkpt lat="48.40914" lon="2.67687">
        <ele>90.5</ele>
        <time>2014-03-23T06:51:17Z</time>
      </trkpt>
      <trkpt lat="48.40923" lon="2.67659">
        <ele>91.94</ele>
        <time>2014-03-23T06:51:22Z</time>
      </trkpt>
      <trkpt lat="48.40925" lon="2.67653">
        <ele>92.42</ele>
        <time>2014-03-23T06:51:23Z</time>
      </trkpt>
      <trkpt lat="48.40954" lon="2.67573">
        <ele>93.87</ele>
        <time>2014-03-23T06:51:37Z</time>
      </trkpt>
      <trkpt lat="48.40963" lon="2.67548">
        <ele>93.87</ele>
        <time>2014-03-23T06:51:41Z</time>
      </trkpt>
      <trkpt lat="48.40966" lon="2.67542">
        <ele>93.87</ele>
        <time>2014-03-23T06:51:42Z</time>
      </trkpt>
      <trkpt lat="48.40967" lon="2.67537">
        <ele>93.87</ele>
        <time>2014-03-23T06:51:43Z</time>
      </trkpt>
      <trkpt lat="48.40969" lon="2.67531">
        <ele>93.87</ele>
        <time>2014-03-23T06:51:44Z</time>
      </trkpt>
      <trkpt lat="48.40972" lon="2.67525">
        <ele>94.35</ele>
        <time>2014-03-23T06:51:45Z</time>
      </trkpt>
      <trkpt lat="48.41" lon="2.67445">
        <ele>95.79</ele>
        <time>2014-03-23T06:51:59Z</time>
      </trkpt>
      <trkpt lat="48.41012" lon="2.67417">
        <ele>96.27</ele>
        <time>2014-03-23T06:52:04Z</time>
      </trkpt>
      <trkpt lat="48.41015" lon="2.67411">
        <ele>96.27</ele>
        <time>2014-03-23T06:52:05Z</time>
      </trkpt>
      <trkpt lat="48.41029" lon="2.67367">
        <ele>96.75</ele>
        <time>2014-03-23T06:52:13Z</time>
      </trkpt>
      <trkpt lat="48.4103" lon="2.67359">
        <ele>96.75</ele>
        <time>2014-03-23T06:52:14Z</time>
      </trkpt>
      <trkpt lat="48.41031" lon="2.67352">
        <ele>96.75</ele>
        <time>2014-03-23T06:52:15Z</time>
      </trkpt>
      <trkpt lat="48.4103" lon="2.67346">
        <ele>96.75</ele>
        <time>2014-03-23T06:52:16Z</time>
      </trkpt>
      <trkpt lat="48.4103" lon="2.6734">
        <ele>96.75</ele>
        <time>2014-03-23T06:52:17Z</time>
      </trkpt>
      <trkpt lat="48.41029" lon="2.67334">
        <ele>97.71</ele>
        <time>2014-03-23T06:52:18Z</time>
      </trkpt>
      <trkpt lat="48.41024" lon="2.67276">
        <ele>99.63</ele>
        <time>2014-03-23T06:52:33Z</time>
      </trkpt>
      <trkpt lat="48.41015" lon="2.67217">
        <ele>103</ele>
        <time>2014-03-23T06:52:50Z</time>
      </trkpt>
      <trkpt lat="48.41009" lon="2.67173">
        <ele>104.44</ele>
        <time>2014-03-23T06:53:03Z</time>
      </trkpt>
      <trkpt lat="48.41003" lon="2.67111">
        <ele>107.32</ele>
        <time>2014-03-23T06:53:20Z</time>
      </trkpt>
      <trkpt lat="48.40999" lon="2.6707">
        <ele>109.25</ele>
        <time>2014-03-23T06:53:33Z</time>
      </trkpt>
      <trkpt lat="48.40994" lon="2.67032">
        <ele>112.61</ele>
        <time>2014-03-23T06:53:44Z</time>
      </trkpt>
      <trkpt lat="48.4099" lon="2.66992">
        <ele>115.5</ele>
        <time>2014-03-23T06:53:56Z</time>
      </trkpt>
      <trkpt lat="48.40985" lon="2.66948">
        <ele>117.9</ele>
        <time>2014-03-23T06:54:12Z</time>
      </trkpt>
      <trkpt lat="48.40977" lon="2.66897">
        <ele>118.86</ele>
        <time>2014-03-23T06:54:26Z</time>
      </trkpt>
      <trkpt lat="48.40969" lon="2.66822">
        <ele>120.78</ele>
        <time>2014-03-23T06:54:45Z</time>
      </trkpt>
      <trkpt lat="48.40968" lon="2.66809">
        <ele>121.26</ele>
        <time>2014-03-23T06:54:49Z</time>
      </trkpt>
      <trkpt lat="48.40968" lon="2.66806">
        <ele>121.26</ele>
        <time>2014-03-23T06:54:50Z</time>
      </trkpt>
      <trkpt lat="48.40964" lon="2.66755">
        <ele>124.63</ele>
        <time>2014-03-23T06:55:04Z</time>
      </trkpt>
      <trkpt lat="48.40955" lon="2.66706">
        <ele>126.55</ele>
        <time>2014-03-23T06:55:18Z</time>
      </trkpt>
      <trkpt lat="48.40946" lon="2.66653">
        <ele>127.03</ele>
        <time>2014-03-23T06:55:31Z</time>
      </trkpt>
      <trkpt lat="48.40937" lon="2.66583">
        <ele>128.47</ele>
        <time>2014-03-23T06:55:45Z</time>
      </trkpt>
      <trkpt lat="48.40929" lon="2.66504">
        <ele>129.92</ele>
        <time>2014-03-23T06:56:00Z</time>
      </trkpt>
      <trkpt lat="48.40919" lon="2.66434">
        <ele>130.88</ele>
        <time>2014-03-23T06:56:14Z</time>
      </trkpt>
      <trkpt lat="48.40912" lon="2.6636">
        <ele>131.84</ele>
        <time>2014-03-23T06:56:29Z</time>
      </trkpt>
      <trkpt lat="48.40902" lon="2.66294">
        <ele>132.32</ele>
        <time>2014-03-23T06:56:42Z</time>
      </trkpt>
      <trkpt lat="48.40893" lon="2.66223">
        <ele>133.28</ele>
        <time>2014-03-23T06:56:56Z</time>
      </trkpt>
      <trkpt lat="48.40883" lon="2.66159">
        <ele>133.28</ele>
        <time>2014-03-23T06:57:07Z</time>
      </trkpt>
      <trkpt lat="48.40881" lon="2.66146">
        <ele>133.28</ele>
        <time>2014-03-23T06:57:09Z</time>
      </trkpt>
      <trkpt lat="48.40878" lon="2.66124">
        <ele>133.76</ele>
        <time>2014-03-23T06:57:12Z</time>
      </trkpt>
      <trkpt lat="48.40877" lon="2.66117">
        <ele>133.76</ele>
        <time>2014-03-23T06:57:13Z</time>
      </trkpt>
      <trkpt lat="48.40871" lon="2.66066">
        <ele>133.76</ele>
        <time>2014-03-23T06:57:20Z</time>
      </trkpt>
      <trkpt lat="48.4087" lon="2.66059">
        <ele>133.76</ele>
        <time>2014-03-23T06:57:21Z</time>
      </trkpt>
      <trkpt lat="48.40871" lon="2.66047">
        <ele>133.76</ele>
        <time>2014-03-23T06:57:22Z</time>
      </trkpt>
      <trkpt lat="48.40864" lon="2.65933">
        <ele>133.76</ele>
        <time>2014-03-23T06:57:36Z</time>
      </trkpt>
      <trkpt lat="48.4086" lon="2.65904">
        <ele>133.76</ele>
        <time>2014-03-23T06:57:40Z</time>
      </trkpt>
      <trkpt lat="48.40856" lon="2.65868">
        <ele>133.76</ele>
        <time>2014-03-23T06:57:45Z</time>
      </trkpt>
      <trkpt lat="48.40855" lon="2.65861">
        <ele>133.76</ele>
        <time>2014-03-23T06:57:46Z</time>
      </trkpt>
      <trkpt lat="48.40853" lon="2.6584">
        <ele>133.76</ele>
        <time>2014-03-23T06:57:49Z</time>
      </trkpt>
      <trkpt lat="48.40848" lon="2.65797">
        <ele>134.24</ele>
        <time>2014-03-23T06:57:55Z</time>
      </trkpt>
      <trkpt lat="48.40836" lon="2.657">
        <ele>134.24</ele>
        <time>2014-03-23T06:58:09Z</time>
      </trkpt>
      <trkpt lat="48.40828" lon="2.65635">
        <ele>134.24</ele>
        <time>2014-03-23T06:58:19Z</time>
      </trkpt>
      <trkpt lat="48.40824" lon="2.65608">
        <ele>134.24</ele>
        <time>2014-03-23T06:58:23Z</time>
      </trkpt>
      <trkpt lat="48.40822" lon="2.65595">
        <ele>134.24</ele>
        <time>2014-03-23T06:58:25Z</time>
      </trkpt>
      <trkpt lat="48.40812" lon="2.65507">
        <ele>134.72</ele>
        <time>2014-03-23T06:58:38Z</time>
      </trkpt>
      <trkpt lat="48.4081" lon="2.65477">
        <ele>135.68</ele>
        <time>2014-03-23T06:58:43Z</time>
      </trkpt>
      <trkpt lat="48.40812" lon="2.65474">
        <ele>135.68</ele>
        <time>2014-03-23T06:58:44Z</time>
      </trkpt>
      <trkpt lat="48.40815" lon="2.65472">
        <ele>135.68</ele>
        <time>2014-03-23T06:58:45Z</time>
      </trkpt>
      <trkpt lat="48.40819" lon="2.65473">
        <ele>135.68</ele>
        <time>2014-03-23T06:58:46Z</time>
      </trkpt>
      <trkpt lat="48.40822" lon="2.65473">
        <ele>135.68</ele>
        <time>2014-03-23T06:58:47Z</time>
      </trkpt>
      <trkpt lat="48.4088" lon="2.65492">
        <ele>136.16</ele>
        <time>2014-03-23T06:59:01Z</time>
      </trkpt>
      <trkpt lat="48.40943" lon="2.65516">
        <ele>136.16</ele>
        <time>2014-03-23T06:59:15Z</time>
      </trkpt>
      <trkpt lat="48.41014" lon="2.65544">
        <ele>134.72</ele>
        <time>2014-03-23T06:59:29Z</time>
      </trkpt>
      <trkpt lat="48.41089" lon="2.65575">
        <ele>133.76</ele>
        <time>2014-03-23T06:59:42Z</time>
      </trkpt>
      <trkpt lat="48.41132" lon="2.65594">
        <ele>133.28</ele>
        <time>2014-03-23T06:59:53Z</time>
      </trkpt>
      <trkpt lat="48.41135" lon="2.65596">
        <ele>133.28</ele>
        <time>2014-03-23T06:59:55Z</time>
      </trkpt>
      <trkpt lat="48.41137" lon="2.65595">
        <ele>133.28</ele>
        <time>2014-03-23T06:59:56Z</time>
      </trkpt>
      <trkpt lat="48.4114" lon="2.65592">
        <ele>133.28</ele>
        <time>2014-03-23T06:59:57Z</time>
      </trkpt>
      <trkpt lat="48.41142" lon="2.65588">
        <ele>133.28</ele>
        <time>2014-03-23T06:59:58Z</time>
      </trkpt>
      <trkpt lat="48.41143" lon="2.65583">
        <ele>133.28</ele>
        <time>2014-03-23T06:59:59Z</time>
      </trkpt>
      <trkpt lat="48.41143" lon="2.65578">
        <ele>133.28</ele>
        <time>2014-03-23T07:00:00Z</time>
      </trkpt>
      <trkpt lat="48.41144" lon="2.65572">
        <ele>133.28</ele>
        <time>2014-03-23T07:00:01Z</time>
      </trkpt>
      <trkpt lat="48.41145" lon="2.65566">
        <ele>133.28</ele>
        <time>2014-03-23T07:00:02Z</time>
      </trkpt>
      <trkpt lat="48.41145" lon="2.65559">
        <ele>133.28</ele>
        <time>2014-03-23T07:00:03Z</time>
      </trkpt>
      <trkpt lat="48.41144" lon="2.65547">
        <ele>133.28</ele>
        <time>2014-03-23T07:00:05Z</time>
      </trkpt>
      <trkpt lat="48.41143" lon="2.65541">
        <ele>133.28</ele>
        <time>2014-03-23T07:00:06Z</time>
      </trkpt>
      <trkpt lat="48.4111" lon="2.65438">
        <ele>133.28</ele>
        <time>2014-03-23T07:00:21Z</time>
      </trkpt>
      <trkpt lat="48.41089" lon="2.65378">
        <ele>134.24</ele>
        <time>2014-03-23T07:00:30Z</time>
      </trkpt>
      <trkpt lat="48.41087" lon="2.65371">
        <ele>134.72</ele>
        <time>2014-03-23T07:00:31Z</time>
      </trkpt>
      <trkpt lat="48.41085" lon="2.65364">
        <ele>134.24</ele>
        <time>2014-03-23T07:00:32Z</time>
      </trkpt>
      <trkpt lat="48.41051" lon="2.65256">
        <ele>134.24</ele>
        <time>2014-03-23T07:00:47Z</time>
      </trkpt>
      <trkpt lat="48.41014" lon="2.65148">
        <ele>134.72</ele>
        <time>2014-03-23T07:01:03Z</time>
      </trkpt>
      <trkpt lat="48.40991" lon="2.65079">
        <ele>134.72</ele>
        <time>2014-03-23T07:01:14Z</time>
      </trkpt>
      <trkpt lat="48.40954" lon="2.64966">
        <ele>135.68</ele>
        <time>2014-03-23T07:01:31Z</time>
      </trkpt>
      <trkpt lat="48.40924" lon="2.64874">
        <ele>136.16</ele>
        <time>2014-03-23T07:01:45Z</time>
      </trkpt>
      <trkpt lat="48.40893" lon="2.6478">
        <ele>136.16</ele>
        <time>2014-03-23T07:01:59Z</time>
      </trkpt>
      <trkpt lat="48.40889" lon="2.64774">
        <ele>136.16</ele>
        <time>2014-03-23T07:02:00Z</time>
      </trkpt>
      <trkpt lat="48.40887" lon="2.64768">
        <ele>136.16</ele>
        <time>2014-03-23T07:02:01Z</time>
      </trkpt>
      <trkpt lat="48.40885" lon="2.64762">
        <ele>136.16</ele>
        <time>2014-03-23T07:02:02Z</time>
      </trkpt>
      <trkpt lat="48.40883" lon="2.64755">
        <ele>136.16</ele>
        <time>2014-03-23T07:02:03Z</time>
      </trkpt>
      <trkpt lat="48.40882" lon="2.64747">
        <ele>136.16</ele>
        <time>2014-03-23T07:02:04Z</time>
      </trkpt>
      <trkpt lat="48.40881" lon="2.6474">
        <ele>136.16</ele>
        <time>2014-03-23T07:02:05Z</time>
      </trkpt>
      <trkpt lat="48.40861" lon="2.64626">
        <ele>136.16</ele>
        <time>2014-03-23T07:02:20Z</time>
      </trkpt>
      <trkpt lat="48.40839" lon="2.64491">
        <ele>136.16</ele>
        <time>2014-03-23T07:02:37Z</time>
      </trkpt>
      <trkpt lat="48.40838" lon="2.64483">
        <ele>136.16</ele>
        <time>2014-03-23T07:02:38Z</time>
      </trkpt>
      <trkpt lat="48.40836" lon="2.64475">
        <ele>136.16</ele>
        <time>2014-03-23T07:02:39Z</time>
      </trkpt>
      <trkpt lat="48.4082" lon="2.6438">
        <ele>136.16</ele>
        <time>2014-03-23T07:02:51Z</time>
      </trkpt>
      <trkpt lat="48.40812" lon="2.64333">
        <ele>136.16</ele>
        <time>2014-03-23T07:02:57Z</time>
      </trkpt>
      <trkpt lat="48.40811" lon="2.64327">
        <ele>136.16</ele>
        <time>2014-03-23T07:02:58Z</time>
      </trkpt>
      <trkpt lat="48.40808" lon="2.64308">
        <ele>136.16</ele>
        <time>2014-03-23T07:03:01Z</time>
      </trkpt>
      <trkpt lat="48.40806" lon="2.64302">
        <ele>136.16</ele>
        <time>2014-03-23T07:03:02Z</time>
      </trkpt>
      <trkpt lat="48.40806" lon="2.64296">
        <ele>136.16</ele>
        <time>2014-03-23T07:03:03Z</time>
      </trkpt>
      <trkpt lat="48.40804" lon="2.64291">
        <ele>136.16</ele>
        <time>2014-03-23T07:03:04Z</time>
      </trkpt>
      <trkpt lat="48.40802" lon="2.64288">
        <ele>136.16</ele>
        <time>2014-03-23T07:03:05Z</time>
      </trkpt>
      <trkpt lat="48.40799" lon="2.64289">
        <ele>134.72</ele>
        <time>2014-03-23T07:03:06Z</time>
      </trkpt>
      <trkpt lat="48.40798" lon="2.64292">
        <ele>134.72</ele>
        <time>2014-03-23T07:03:07Z</time>
      </trkpt>
      <trkpt lat="48.40797" lon="2.64297">
        <ele>134.72</ele>
        <time>2014-03-23T07:03:08Z</time>
      </trkpt>
      <trkpt lat="48.40796" lon="2.64302">
        <ele>134.24</ele>
        <time>2014-03-23T07:03:09Z</time>
      </trkpt>
      <trkpt lat="48.40794" lon="2.64309">
        <ele>134.24</ele>
        <time>2014-03-23T07:03:10Z</time>
      </trkpt>
      <trkpt lat="48.40792" lon="2.64323">
        <ele>133.76</ele>
        <time>2014-03-23T07:03:12Z</time>
      </trkpt>
      <trkpt lat="48.40786" lon="2.64352">
        <ele>132.8</ele>
        <time>2014-03-23T07:03:16Z</time>
      </trkpt>
      <trkpt lat="48.4078" lon="2.64386">
        <ele>132.32</ele>
        <time>2014-03-23T07:03:21Z</time>
      </trkpt>
      <trkpt lat="48.40775" lon="2.644">
        <ele>131.36</ele>
        <time>2014-03-23T07:03:23Z</time>
      </trkpt>
      <trkpt lat="48.40773" lon="2.64408">
        <ele>131.36</ele>
        <time>2014-03-23T07:03:24Z</time>
      </trkpt>
      <trkpt lat="48.40763" lon="2.6446">
        <ele>128.47</ele>
        <time>2014-03-23T07:03:30Z</time>
      </trkpt>
      <trkpt lat="48.40755" lon="2.64531">
        <ele>124.63</ele>
        <time>2014-03-23T07:03:36Z</time>
      </trkpt>
      <trkpt lat="48.40747" lon="2.64601">
        <ele>121.26</ele>
        <time>2014-03-23T07:03:41Z</time>
      </trkpt>
      <trkpt lat="48.40745" lon="2.64616">
        <ele>121.26</ele>
        <time>2014-03-23T07:03:42Z</time>
      </trkpt>
      <trkpt lat="48.40734" lon="2.64702">
        <ele>118.38</ele>
        <time>2014-03-23T07:03:48Z</time>
      </trkpt>
      <trkpt lat="48.40732" lon="2.64716">
        <ele>118.38</ele>
        <time>2014-03-23T07:03:49Z</time>
      </trkpt>
      <trkpt lat="48.40725" lon="2.64783">
        <ele>115.98</ele>
        <time>2014-03-23T07:03:54Z</time>
      </trkpt>
      <trkpt lat="48.40721" lon="2.64804">
        <ele>115.01</ele>
        <time>2014-03-23T07:03:56Z</time>
      </trkpt>
      <trkpt lat="48.40718" lon="2.64814">
        <ele>114.05</ele>
        <time>2014-03-23T07:03:57Z</time>
      </trkpt>
      <trkpt lat="48.40714" lon="2.64824">
        <ele>113.57</ele>
        <time>2014-03-23T07:03:58Z</time>
      </trkpt>
      <trkpt lat="48.40703" lon="2.64845">
        <ele>112.61</ele>
        <time>2014-03-23T07:04:00Z</time>
      </trkpt>
      <trkpt lat="48.40674" lon="2.64918">
        <ele>109.73</ele>
        <time>2014-03-23T07:04:07Z</time>
      </trkpt>
      <trkpt lat="48.4066" lon="2.64946">
        <ele>108.29</ele>
        <time>2014-03-23T07:04:10Z</time>
      </trkpt>
      <trkpt lat="48.40655" lon="2.64951">
        <ele>108.29</ele>
        <time>2014-03-23T07:04:11Z</time>
      </trkpt>
      <trkpt lat="48.40651" lon="2.64954">
        <ele>108.29</ele>
        <time>2014-03-23T07:04:12Z</time>
      </trkpt>
      <trkpt lat="48.40647" lon="2.64954">
        <ele>108.29</ele>
        <time>2014-03-23T07:04:13Z</time>
      </trkpt>
      <trkpt lat="48.40643" lon="2.64952">
        <ele>108.29</ele>
        <time>2014-03-23T07:04:14Z</time>
      </trkpt>
      <trkpt lat="48.4064" lon="2.64951">
        <ele>107.81</ele>
        <time>2014-03-23T07:04:15Z</time>
      </trkpt>
      <trkpt lat="48.40637" lon="2.6495">
        <ele>107.81</ele>
        <time>2014-03-23T07:04:16Z</time>
      </trkpt>
      <trkpt lat="48.40634" lon="2.6495">
        <ele>107.32</ele>
        <time>2014-03-23T07:04:17Z</time>
      </trkpt>
      <trkpt lat="48.4063" lon="2.64948">
        <ele>107.32</ele>
        <time>2014-03-23T07:04:18Z</time>
      </trkpt>
      <trkpt lat="48.4059" lon="2.64946">
        <ele>105.88</ele>
        <time>2014-03-23T07:04:30Z</time>
      </trkpt>
      <trkpt lat="48.40572" lon="2.64947">
        <ele>104.92</ele>
        <time>2014-03-23T07:04:33Z</time>
      </trkpt>
      <trkpt lat="48.40566" lon="2.64947">
        <ele>103.96</ele>
        <time>2014-03-23T07:04:34Z</time>
      </trkpt>
      <trkpt lat="48.40561" lon="2.64948">
        <ele>103.96</ele>
        <time>2014-03-23T07:04:35Z</time>
      </trkpt>
      <trkpt lat="48.40544" lon="2.64953">
        <ele>103</ele>
        <time>2014-03-23T07:04:38Z</time>
      </trkpt>
      <trkpt lat="48.40539" lon="2.64955">
        <ele>103</ele>
        <time>2014-03-23T07:04:39Z</time>
      </trkpt>
      <trkpt lat="48.40521" lon="2.64969">
        <ele>102.04</ele>
        <time>2014-03-23T07:04:43Z</time>
      </trkpt>
      <trkpt lat="48.40517" lon="2.64972">
        <ele>101.56</ele>
        <time>2014-03-23T07:04:44Z</time>
      </trkpt>
      <trkpt lat="48.40513" lon="2.64976">
        <ele>101.08</ele>
        <time>2014-03-23T07:04:45Z</time>
      </trkpt>
      <trkpt lat="48.40484" lon="2.65011">
        <ele>99.63</ele>
        <time>2014-03-23T07:04:51Z</time>
      </trkpt>
      <trkpt lat="48.40439" lon="2.65095">
        <ele>97.71</ele>
        <time>2014-03-23T07:05:03Z</time>
      </trkpt>
      <trkpt lat="48.40437" lon="2.65103">
        <ele>97.71</ele>
        <time>2014-03-23T07:05:04Z</time>
      </trkpt>
      <trkpt lat="48.40435" lon="2.65111">
        <ele>96.75</ele>
        <time>2014-03-23T07:05:05Z</time>
      </trkpt>
      <trkpt lat="48.40434" lon="2.65119">
        <ele>96.75</ele>
        <time>2014-03-23T07:05:06Z</time>
      </trkpt>
      <trkpt lat="48.40432" lon="2.65126">
        <ele>96.75</ele>
        <time>2014-03-23T07:05:07Z</time>
      </trkpt>
      <trkpt lat="48.40418" lon="2.65249">
        <ele>95.31</ele>
        <time>2014-03-23T07:05:21Z</time>
      </trkpt>
      <trkpt lat="48.40413" lon="2.65298">
        <ele>94.83</ele>
        <time>2014-03-23T07:05:27Z</time>
      </trkpt>
      <trkpt lat="48.40412" lon="2.65306">
        <ele>94.83</ele>
        <time>2014-03-23T07:05:28Z</time>
      </trkpt>
      <trkpt lat="48.40405" lon="2.65357">
        <ele>94.35</ele>
        <time>2014-03-23T07:05:34Z</time>
      </trkpt>
      <trkpt lat="48.40403" lon="2.65365">
        <ele>93.87</ele>
        <time>2014-03-23T07:05:35Z</time>
      </trkpt>
      <trkpt lat="48.40402" lon="2.65373">
        <ele>93.87</ele>
        <time>2014-03-23T07:05:36Z</time>
      </trkpt>
      <trkpt lat="48.40401" lon="2.65381">
        <ele>93.87</ele>
        <time>2014-03-23T07:05:37Z</time>
      </trkpt>
      <trkpt lat="48.404" lon="2.65389">
        <ele>93.87</ele>
        <time>2014-03-23T07:05:38Z</time>
      </trkpt>
      <trkpt lat="48.40391" lon="2.65462">
        <ele>92.9</ele>
        <time>2014-03-23T07:05:47Z</time>
      </trkpt>
      <trkpt lat="48.40381" lon="2.6558">
        <ele>91.94</ele>
        <time>2014-03-23T07:06:02Z</time>
      </trkpt>
      <trkpt lat="48.40381" lon="2.65679">
        <ele>93.87</ele>
        <time>2014-03-23T07:06:15Z</time>
      </trkpt>
      <trkpt lat="48.40383" lon="2.65771">
        <ele>95.31</ele>
        <time>2014-03-23T07:06:30Z</time>
      </trkpt>
      <trkpt lat="48.4038" lon="2.65859">
        <ele>95.79</ele>
        <time>2014-03-23T07:06:44Z</time>
      </trkpt>
      <trkpt lat="48.4038" lon="2.65875">
        <ele>95.79</ele>
        <time>2014-03-23T07:06:46Z</time>
      </trkpt>
      <trkpt lat="48.40381" lon="2.65917">
        <ele>93.87</ele>
        <time>2014-03-23T07:06:51Z</time>
      </trkpt>
      <trkpt lat="48.40382" lon="2.66016">
        <ele>91.94</ele>
        <time>2014-03-23T07:07:03Z</time>
      </trkpt>
      <trkpt lat="48.40381" lon="2.66043">
        <ele>91.94</ele>
        <time>2014-03-23T07:07:07Z</time>
      </trkpt>
      <trkpt lat="48.40379" lon="2.66049">
        <ele>91.94</ele>
        <time>2014-03-23T07:07:08Z</time>
      </trkpt>
      <trkpt lat="48.40377" lon="2.66054">
        <ele>91.94</ele>
        <time>2014-03-23T07:07:09Z</time>
      </trkpt>
      <trkpt lat="48.40373" lon="2.66057">
        <ele>90.98</ele>
        <time>2014-03-23T07:07:10Z</time>
      </trkpt>
      <trkpt lat="48.40368" lon="2.66058">
        <ele>90.98</ele>
        <time>2014-03-23T07:07:11Z</time>
      </trkpt>
      <trkpt lat="48.40362" lon="2.66058">
        <ele>90.98</ele>
        <time>2014-03-23T07:07:12Z</time>
      </trkpt>
      <trkpt lat="48.40356" lon="2.66058">
        <ele>90.98</ele>
        <time>2014-03-23T07:07:13Z</time>
      </trkpt>
      <trkpt lat="48.40278" lon="2.66049">
        <ele>89.54</ele>
        <time>2014-03-23T07:07:28Z</time>
      </trkpt>
      <trkpt lat="48.40203" lon="2.66038">
        <ele>89.06</ele>
        <time>2014-03-23T07:07:41Z</time>
      </trkpt>
      <trkpt lat="48.40131" lon="2.66029">
        <ele>88.1</ele>
        <time>2014-03-23T07:07:54Z</time>
      </trkpt>
      <trkpt lat="48.40125" lon="2.66028">
        <ele>88.1</ele>
        <time>2014-03-23T07:07:55Z</time>
      </trkpt>
      <trkpt lat="48.40121" lon="2.66026">
        <ele>88.1</ele>
        <time>2014-03-23T07:07:56Z</time>
      </trkpt>
      <trkpt lat="48.40109" lon="2.66021">
        <ele>88.1</ele>
        <time>2014-03-23T07:07:59Z</time>
      </trkpt>
      <trkpt lat="48.40107" lon="2.66017">
        <ele>88.1</ele>
        <time>2014-03-23T07:08:00Z</time>
      </trkpt>
      <trkpt lat="48.40107" lon="2.66012">
        <ele>88.1</ele>
        <time>2014-03-23T07:08:01Z</time>
      </trkpt>
      <trkpt lat="48.40108" lon="2.66006">
        <ele>88.1</ele>
        <time>2014-03-23T07:08:02Z</time>
      </trkpt>
      <trkpt lat="48.4011" lon="2.66001">
        <ele>88.1</ele>
        <time>2014-03-23T07:08:03Z</time>
      </trkpt>
      <trkpt lat="48.40116" lon="2.65974">
        <ele>88.1</ele>
        <time>2014-03-23T07:08:07Z</time>
      </trkpt>
      <trkpt lat="48.40117" lon="2.65967">
        <ele>88.1</ele>
        <time>2014-03-23T07:08:08Z</time>
      </trkpt>
      <trkpt lat="48.40121" lon="2.65885">
        <ele>89.54</ele>
        <time>2014-03-23T07:08:21Z</time>
      </trkpt>
      <trkpt lat="48.40122" lon="2.65872">
        <ele>89.54</ele>
        <time>2014-03-23T07:08:23Z</time>
      </trkpt>
      <trkpt lat="48.40123" lon="2.65852">
        <ele>90.02</ele>
        <time>2014-03-23T07:08:26Z</time>
      </trkpt>
      <trkpt lat="48.40123" lon="2.65845">
        <ele>90.02</ele>
        <time>2014-03-23T07:08:27Z</time>
      </trkpt>
      <trkpt lat="48.40123" lon="2.65838">
        <ele>90.02</ele>
        <time>2014-03-23T07:08:28Z</time>
      </trkpt>
      <trkpt lat="48.40126" lon="2.65778">
        <ele>90.5</ele>
        <time>2014-03-23T07:08:38Z</time>
      </trkpt>
      <trkpt lat="48.4013" lon="2.65731">
        <ele>90.5</ele>
        <time>2014-03-23T07:08:45Z</time>
      </trkpt>
      <trkpt lat="48.40131" lon="2.65723">
        <ele>90.5</ele>
        <time>2014-03-23T07:08:46Z</time>
      </trkpt>
      <trkpt lat="48.40143" lon="2.6562">
        <ele>91.94</ele>
        <time>2014-03-23T07:09:01Z</time>
      </trkpt>
      <trkpt lat="48.40152" lon="2.65523">
        <ele>92.42</ele>
        <time>2014-03-23T07:09:16Z</time>
      </trkpt>
      <trkpt lat="48.40154" lon="2.65503">
        <ele>92.9</ele>
        <time>2014-03-23T07:09:19Z</time>
      </trkpt>
      <trkpt lat="48.40159" lon="2.65435">
        <ele>93.39</ele>
        <time>2014-03-23T07:09:31Z</time>
      </trkpt>
      <trkpt lat="48.40165" lon="2.65388">
        <ele>94.35</ele>
        <time>2014-03-23T07:09:41Z</time>
      </trkpt>
      <trkpt lat="48.40164" lon="2.65382">
        <ele>94.35</ele>
        <time>2014-03-23T07:09:42Z</time>
      </trkpt>
      <trkpt lat="48.40165" lon="2.65376">
        <ele>94.35</ele>
        <time>2014-03-23T07:09:43Z</time>
      </trkpt>
      <trkpt lat="48.40165" lon="2.65371">
        <ele>94.35</ele>
        <time>2014-03-23T07:09:44Z</time>
      </trkpt>
      <trkpt lat="48.40166" lon="2.65365">
        <ele>94.83</ele>
        <time>2014-03-23T07:09:45Z</time>
      </trkpt>
      <trkpt lat="48.40167" lon="2.6536">
        <ele>94.83</ele>
        <time>2014-03-23T07:09:46Z</time>
      </trkpt>
      <trkpt lat="48.40167" lon="2.65354">
        <ele>94.83</ele>
        <time>2014-03-23T07:09:47Z</time>
      </trkpt>
      <trkpt lat="48.40168" lon="2.65349">
        <ele>94.83</ele>
        <time>2014-03-23T07:09:48Z</time>
      </trkpt>
      <trkpt lat="48.40183" lon="2.6526">
        <ele>95.79</ele>
        <time>2014-03-23T07:10:04Z</time>
      </trkpt>
      <trkpt lat="48.40194" lon="2.65197">
        <ele>96.75</ele>
        <time>2014-03-23T07:10:17Z</time>
      </trkpt>
      <trkpt lat="48.40202" lon="2.65128">
        <ele>97.71</ele>
        <time>2014-03-23T07:10:32Z</time>
      </trkpt>
      <trkpt lat="48.40213" lon="2.65062">
        <ele>98.67</ele>
        <time>2014-03-23T07:10:46Z</time>
      </trkpt>
      <trkpt lat="48.40224" lon="2.64991">
        <ele>99.63</ele>
        <time>2014-03-23T07:11:01Z</time>
      </trkpt>
      <trkpt lat="48.40231" lon="2.64921">
        <ele>100.6</ele>
        <time>2014-03-23T07:11:15Z</time>
      </trkpt>
      <trkpt lat="48.40239" lon="2.64858">
        <ele>102.04</ele>
        <time>2014-03-23T07:11:29Z</time>
      </trkpt>
      <trkpt lat="48.40247" lon="2.64797">
        <ele>103</ele>
        <time>2014-03-23T07:11:42Z</time>
      </trkpt>
      <trkpt lat="48.40258" lon="2.64722">
        <ele>104.92</ele>
        <time>2014-03-23T07:11:58Z</time>
      </trkpt>
      <trkpt lat="48.40265" lon="2.64669">
        <ele>105.88</ele>
        <time>2014-03-23T07:12:10Z</time>
      </trkpt>
      <trkpt lat="48.40274" lon="2.64621">
        <ele>106.36</ele>
        <time>2014-03-23T07:12:20Z</time>
      </trkpt>
      <trkpt lat="48.40287" lon="2.64544">
        <ele>107.81</ele>
        <time>2014-03-23T07:12:33Z</time>
      </trkpt>
      <trkpt lat="48.40296" lon="2.64477">
        <ele>109.25</ele>
        <time>2014-03-23T07:12:46Z</time>
      </trkpt>
      <trkpt lat="48.40305" lon="2.64417">
        <ele>110.69</ele>
        <time>2014-03-23T07:13:00Z</time>
      </trkpt>
      <trkpt lat="48.40311" lon="2.6437">
        <ele>111.65</ele>
        <time>2014-03-23T07:13:12Z</time>
      </trkpt>
      <trkpt lat="48.40312" lon="2.64359">
        <ele>112.13</ele>
        <time>2014-03-23T07:13:15Z</time>
      </trkpt>
      <trkpt lat="48.40312" lon="2.64356">
        <ele>112.13</ele>
        <time>2014-03-23T07:13:16Z</time>
      </trkpt>
      <trkpt lat="48.40312" lon="2.64352">
        <ele>112.61</ele>
        <time>2014-03-23T07:13:17Z</time>
      </trkpt>
      <trkpt lat="48.40317" lon="2.64307">
        <ele>113.57</ele>
        <time>2014-03-23T07:13:29Z</time>
      </trkpt>
      <trkpt lat="48.40325" lon="2.64256">
        <ele>115.01</ele>
        <time>2014-03-23T07:13:42Z</time>
      </trkpt>
      <trkpt lat="48.40328" lon="2.64233">
        <ele>115.98</ele>
        <time>2014-03-23T07:13:49Z</time>
      </trkpt>
      <trkpt lat="48.40328" lon="2.6423">
        <ele>115.98</ele>
        <time>2014-03-23T07:13:50Z</time>
      </trkpt>
      <trkpt lat="48.40328" lon="2.64226">
        <ele>115.98</ele>
        <time>2014-03-23T07:13:51Z</time>
      </trkpt>
      <trkpt lat="48.40328" lon="2.64224">
        <ele>115.98</ele>
        <time>2014-03-23T07:13:52Z</time>
      </trkpt>
      <trkpt lat="48.4033" lon="2.64218">
        <ele>116.46</ele>
        <time>2014-03-23T07:14:07Z</time>
      </trkpt>
      <trkpt lat="48.40332" lon="2.64218">
        <ele>116.46</ele>
        <time>2014-03-23T07:14:35Z</time>
      </trkpt>
      <trkpt lat="48.40332" lon="2.64216">
        <ele>116.46</ele>
        <time>2014-03-23T07:14:37Z</time>
      </trkpt>
      <trkpt lat="48.40333" lon="2.64214">
        <ele>116.46</ele>
        <time>2014-03-23T07:14:38Z</time>
      </trkpt>
      <trkpt lat="48.40333" lon="2.64212">
        <ele>116.46</ele>
        <time>2014-03-23T07:14:39Z</time>
      </trkpt>
      <trkpt lat="48.40333" lon="2.64209">
        <ele>116.46</ele>
        <time>2014-03-23T07:14:40Z</time>
      </trkpt>
      <trkpt lat="48.40333" lon="2.64205">
        <ele>116.46</ele>
        <time>2014-03-23T07:14:41Z</time>
      </trkpt>
      <trkpt lat="48.40334" lon="2.64202">
        <ele>116.46</ele>
        <time>2014-03-23T07:14:42Z</time>
      </trkpt>
      <trkpt lat="48.40334" lon="2.64199">
        <ele>116.46</ele>
        <time>2014-03-23T07:14:43Z</time>
      </trkpt>
      <trkpt lat="48.40334" lon="2.64195">
        <ele>116.94</ele>
        <time>2014-03-23T07:14:44Z</time>
      </trkpt>
      <trkpt lat="48.40334" lon="2.64192">
        <ele>116.94</ele>
        <time>2014-03-23T07:14:45Z</time>
      </trkpt>
      <trkpt lat="48.40338" lon="2.64157">
        <ele>118.38</ele>
        <time>2014-03-23T07:14:57Z</time>
      </trkpt>
      <trkpt lat="48.40343" lon="2.64113">
        <ele>120.78</ele>
        <time>2014-03-23T07:15:11Z</time>
      </trkpt>
      <trkpt lat="48.40347" lon="2.64075">
        <ele>123.19</ele>
        <time>2014-03-23T07:15:24Z</time>
      </trkpt>
      <trkpt lat="48.4035" lon="2.6406">
        <ele>123.67</ele>
        <time>2014-03-23T07:15:29Z</time>
      </trkpt>
      <trkpt lat="48.4035" lon="2.64058">
        <ele>124.63</ele>
        <time>2014-03-23T07:15:30Z</time>
      </trkpt>
      <trkpt lat="48.40351" lon="2.64056">
        <ele>124.63</ele>
        <time>2014-03-23T07:15:31Z</time>
      </trkpt>
      <trkpt lat="48.40351" lon="2.64053">
        <ele>124.63</ele>
        <time>2014-03-23T07:15:32Z</time>
      </trkpt>
      <trkpt lat="48.40352" lon="2.64051">
        <ele>125.11</ele>
        <time>2014-03-23T07:15:33Z</time>
      </trkpt>
      <trkpt lat="48.40352" lon="2.64048">
        <ele>125.11</ele>
        <time>2014-03-23T07:15:34Z</time>
      </trkpt>
      <trkpt lat="48.40352" lon="2.64046">
        <ele>125.11</ele>
        <time>2014-03-23T07:15:35Z</time>
      </trkpt>
      <trkpt lat="48.40357" lon="2.64024">
        <ele>127.51</ele>
        <time>2014-03-23T07:15:47Z</time>
      </trkpt>
      <trkpt lat="48.40364" lon="2.64002">
        <ele>129.92</ele>
        <time>2014-03-23T07:15:58Z</time>
      </trkpt>
      <trkpt lat="48.40366" lon="2.63994">
        <ele>130.88</ele>
        <time>2014-03-23T07:16:03Z</time>
      </trkpt>
      <trkpt lat="48.40369" lon="2.63987">
        <ele>130.88</ele>
        <time>2014-03-23T07:16:06Z</time>
      </trkpt>
      <trkpt lat="48.40374" lon="2.63971">
        <ele>131.84</ele>
        <time>2014-03-23T07:16:12Z</time>
      </trkpt>
      <trkpt lat="48.40384" lon="2.63937">
        <ele>134.24</ele>
        <time>2014-03-23T07:16:23Z</time>
      </trkpt>
      <trkpt lat="48.40394" lon="2.63904">
        <ele>135.68</ele>
        <time>2014-03-23T07:16:34Z</time>
      </trkpt>
      <trkpt lat="48.404" lon="2.63871">
        <ele>135.68</ele>
        <time>2014-03-23T07:16:46Z</time>
      </trkpt>
      <trkpt lat="48.40407" lon="2.63854">
        <ele>135.68</ele>
        <time>2014-03-23T07:16:57Z</time>
      </trkpt>
      <trkpt lat="48.40409" lon="2.6385">
        <ele>135.68</ele>
        <time>2014-03-23T07:17:00Z</time>
      </trkpt>
      <trkpt lat="48.4041" lon="2.63848">
        <ele>135.68</ele>
        <time>2014-03-23T07:17:01Z</time>
      </trkpt>
      <trkpt lat="48.40411" lon="2.63846">
        <ele>135.68</ele>
        <time>2014-03-23T07:17:02Z</time>
      </trkpt>
      <trkpt lat="48.40412" lon="2.63843">
        <ele>135.68</ele>
        <time>2014-03-23T07:17:03Z</time>
      </trkpt>
      <trkpt lat="48.40414" lon="2.6384">
        <ele>135.68</ele>
        <time>2014-03-23T07:17:04Z</time>
      </trkpt>
      <trkpt lat="48.40415" lon="2.63836">
        <ele>135.68</ele>
        <time>2014-03-23T07:17:05Z</time>
      </trkpt>
      <trkpt lat="48.40423" lon="2.63782">
        <ele>135.68</ele>
        <time>2014-03-23T07:17:17Z</time>
      </trkpt>
      <trkpt lat="48.40429" lon="2.6373">
        <ele>135.68</ele>
        <time>2014-03-23T07:17:29Z</time>
      </trkpt>
      <trkpt lat="48.40429" lon="2.63724">
        <ele>135.68</ele>
        <time>2014-03-23T07:17:30Z</time>
      </trkpt>
      <trkpt lat="48.40439" lon="2.63645">
        <ele>135.68</ele>
        <time>2014-03-23T07:17:43Z</time>
      </trkpt>
      <trkpt lat="48.40449" lon="2.63573">
        <ele>135.68</ele>
        <time>2014-03-23T07:17:55Z</time>
      </trkpt>
      <trkpt lat="48.4046" lon="2.63491">
        <ele>134.24</ele>
        <time>2014-03-23T07:18:07Z</time>
      </trkpt>
      <trkpt lat="48.40474" lon="2.63391">
        <ele>133.76</ele>
        <time>2014-03-23T07:18:20Z</time>
      </trkpt>
      <trkpt lat="48.4049" lon="2.63271">
        <ele>133.28</ele>
        <time>2014-03-23T07:18:35Z</time>
      </trkpt>
      <trkpt lat="48.40493" lon="2.63238">
        <ele>132.8</ele>
        <time>2014-03-23T07:18:40Z</time>
      </trkpt>
      <trkpt lat="48.40491" lon="2.63233">
        <ele>132.8</ele>
        <time>2014-03-23T07:18:41Z</time>
      </trkpt>
      <trkpt lat="48.40489" lon="2.63229">
        <ele>132.8</ele>
        <time>2014-03-23T07:18:42Z</time>
      </trkpt>
      <trkpt lat="48.40465" lon="2.63187">
        <ele>133.76</ele>
        <time>2014-03-23T07:18:51Z</time>
      </trkpt>
      <trkpt lat="48.40463" lon="2.63181">
        <ele>133.76</ele>
        <time>2014-03-23T07:18:52Z</time>
      </trkpt>
      <trkpt lat="48.40462" lon="2.63175">
        <ele>133.76</ele>
        <time>2014-03-23T07:18:53Z</time>
      </trkpt>
      <trkpt lat="48.40462" lon="2.63168">
        <ele>133.76</ele>
        <time>2014-03-23T07:18:54Z</time>
      </trkpt>
      <trkpt lat="48.40461" lon="2.63162">
        <ele>133.76</ele>
        <time>2014-03-23T07:18:55Z</time>
      </trkpt>
      <trkpt lat="48.40459" lon="2.63128">
        <ele>133.76</ele>
        <time>2014-03-23T07:19:00Z</time>
      </trkpt>
      <trkpt lat="48.40458" lon="2.63121">
        <ele>133.76</ele>
        <time>2014-03-23T07:19:01Z</time>
      </trkpt>
      <trkpt lat="48.40447" lon="2.63036">
        <ele>132.8</ele>
        <time>2014-03-23T07:19:12Z</time>
      </trkpt>
      <trkpt lat="48.40444" lon="2.6303">
        <ele>132.8</ele>
        <time>2014-03-23T07:19:13Z</time>
      </trkpt>
      <trkpt lat="48.40441" lon="2.63026">
        <ele>132.8</ele>
        <time>2014-03-23T07:19:14Z</time>
      </trkpt>
      <trkpt lat="48.40438" lon="2.63022">
        <ele>133.76</ele>
        <time>2014-03-23T07:19:15Z</time>
      </trkpt>
      <trkpt lat="48.40435" lon="2.63018">
        <ele>133.76</ele>
        <time>2014-03-23T07:19:16Z</time>
      </trkpt>
      <trkpt lat="48.40425" lon="2.63005">
        <ele>133.76</ele>
        <time>2014-03-23T07:19:19Z</time>
      </trkpt>
      <trkpt lat="48.40422" lon="2.63001">
        <ele>133.76</ele>
        <time>2014-03-23T07:19:20Z</time>
      </trkpt>
      <trkpt lat="48.40419" lon="2.62996">
        <ele>133.76</ele>
        <time>2014-03-23T07:19:21Z</time>
      </trkpt>
      <trkpt lat="48.40416" lon="2.62991">
        <ele>134.24</ele>
        <time>2014-03-23T07:19:22Z</time>
      </trkpt>
      <trkpt lat="48.40413" lon="2.62986">
        <ele>134.24</ele>
        <time>2014-03-23T07:19:23Z</time>
      </trkpt>
      <trkpt lat="48.40409" lon="2.62981">
        <ele>134.24</ele>
        <time>2014-03-23T07:19:24Z</time>
      </trkpt>
      <trkpt lat="48.40403" lon="2.62972">
        <ele>134.24</ele>
        <time>2014-03-23T07:19:26Z</time>
      </trkpt>
      <trkpt lat="48.40399" lon="2.62969">
        <ele>134.24</ele>
        <time>2014-03-23T07:19:27Z</time>
      </trkpt>
      <trkpt lat="48.40379" lon="2.62956">
        <ele>134.72</ele>
        <time>2014-03-23T07:19:31Z</time>
      </trkpt>
      <trkpt lat="48.40349" lon="2.62934">
        <ele>135.68</ele>
        <time>2014-03-23T07:19:37Z</time>
      </trkpt>
      <trkpt lat="48.40329" lon="2.62917">
        <ele>135.2</ele>
        <time>2014-03-23T07:19:42Z</time>
      </trkpt>
      <trkpt lat="48.40325" lon="2.62914">
        <ele>135.2</ele>
        <time>2014-03-23T07:19:43Z</time>
      </trkpt>
      <trkpt lat="48.40321" lon="2.6291">
        <ele>135.2</ele>
        <time>2014-03-23T07:19:44Z</time>
      </trkpt>
      <trkpt lat="48.40314" lon="2.62902">
        <ele>135.2</ele>
        <time>2014-03-23T07:19:46Z</time>
      </trkpt>
      <trkpt lat="48.4031" lon="2.62898">
        <ele>135.2</ele>
        <time>2014-03-23T07:19:47Z</time>
      </trkpt>
      <trkpt lat="48.40301" lon="2.62893">
        <ele>135.2</ele>
        <time>2014-03-23T07:19:49Z</time>
      </trkpt>
      <trkpt lat="48.40271" lon="2.62883">
        <ele>136.16</ele>
        <time>2014-03-23T07:19:57Z</time>
      </trkpt>
      <trkpt lat="48.40269" lon="2.62879">
        <ele>136.16</ele>
        <time>2014-03-23T07:19:58Z</time>
      </trkpt>
      <trkpt lat="48.40247" lon="2.62848">
        <ele>136.16</ele>
        <time>2014-03-23T07:20:05Z</time>
      </trkpt>
      <trkpt lat="48.40244" lon="2.62843">
        <ele>136.16</ele>
        <time>2014-03-23T07:20:06Z</time>
      </trkpt>
      <trkpt lat="48.40241" lon="2.62839">
        <ele>136.16</ele>
        <time>2014-03-23T07:20:07Z</time>
      </trkpt>
      <trkpt lat="48.40235" lon="2.62829">
        <ele>136.16</ele>
        <time>2014-03-23T07:20:09Z</time>
      </trkpt>
      <trkpt lat="48.40231" lon="2.62824">
        <ele>136.16</ele>
        <time>2014-03-23T07:20:10Z</time>
      </trkpt>
      <trkpt lat="48.40219" lon="2.62804">
        <ele>136.16</ele>
        <time>2014-03-23T07:20:14Z</time>
      </trkpt>
      <trkpt lat="48.40216" lon="2.628">
        <ele>136.16</ele>
        <time>2014-03-23T07:20:15Z</time>
      </trkpt>
      <trkpt lat="48.40212" lon="2.62795">
        <ele>136.16</ele>
        <time>2014-03-23T07:20:16Z</time>
      </trkpt>
      <trkpt lat="48.40191" lon="2.62759">
        <ele>136.16</ele>
        <time>2014-03-23T07:20:23Z</time>
      </trkpt>
      <trkpt lat="48.40188" lon="2.62755">
        <ele>136.16</ele>
        <time>2014-03-23T07:20:24Z</time>
      </trkpt>
      <trkpt lat="48.40181" lon="2.62744">
        <ele>134.72</ele>
        <time>2014-03-23T07:20:26Z</time>
      </trkpt>
      <trkpt lat="48.40162" lon="2.6272">
        <ele>134.72</ele>
        <time>2014-03-23T07:20:33Z</time>
      </trkpt>
      <trkpt lat="48.4016" lon="2.62719">
        <ele>134.72</ele>
        <time>2014-03-23T07:20:34Z</time>
      </trkpt>
      <trkpt lat="48.40159" lon="2.62718">
        <ele>134.72</ele>
        <time>2014-03-23T07:20:35Z</time>
      </trkpt>
      <trkpt lat="48.40157" lon="2.62715">
        <ele>134.72</ele>
        <time>2014-03-23T07:20:37Z</time>
      </trkpt>
      <trkpt lat="48.40156" lon="2.62711">
        <ele>134.72</ele>
        <time>2014-03-23T07:20:38Z</time>
      </trkpt>
      <trkpt lat="48.40156" lon="2.62708">
        <ele>134.72</ele>
        <time>2014-03-23T07:20:39Z</time>
      </trkpt>
      <trkpt lat="48.40154" lon="2.62704">
        <ele>134.72</ele>
        <time>2014-03-23T07:20:40Z</time>
      </trkpt>
      <trkpt lat="48.40151" lon="2.627">
        <ele>134.72</ele>
        <time>2014-03-23T07:20:41Z</time>
      </trkpt>
      <trkpt lat="48.40125" lon="2.62658">
        <ele>134.24</ele>
        <time>2014-03-23T07:20:48Z</time>
      </trkpt>
      <trkpt lat="48.40088" lon="2.62602">
        <ele>133.76</ele>
        <time>2014-03-23T07:20:57Z</time>
      </trkpt>
      <trkpt lat="48.40084" lon="2.62596">
        <ele>133.76</ele>
        <time>2014-03-23T07:20:58Z</time>
      </trkpt>
      <trkpt lat="48.40061" lon="2.62559">
        <ele>132.8</ele>
        <time>2014-03-23T07:21:04Z</time>
      </trkpt>
      <trkpt lat="48.40053" lon="2.62546">
        <ele>132.32</ele>
        <time>2014-03-23T07:21:06Z</time>
      </trkpt>
      <trkpt lat="48.40051" lon="2.62539">
        <ele>132.32</ele>
        <time>2014-03-23T07:21:07Z</time>
      </trkpt>
      <trkpt lat="48.40051" lon="2.6253">
        <ele>132.32</ele>
        <time>2014-03-23T07:21:08Z</time>
      </trkpt>
      <trkpt lat="48.40051" lon="2.62523">
        <ele>131.84</ele>
        <time>2014-03-23T07:21:09Z</time>
      </trkpt>
      <trkpt lat="48.40053" lon="2.62515">
        <ele>131.36</ele>
        <time>2014-03-23T07:21:10Z</time>
      </trkpt>
      <trkpt lat="48.40056" lon="2.62507">
        <ele>131.36</ele>
        <time>2014-03-23T07:21:11Z</time>
      </trkpt>
      <trkpt lat="48.40091" lon="2.62397">
        <ele>131.84</ele>
        <time>2014-03-23T07:21:24Z</time>
      </trkpt>
      <trkpt lat="48.40123" lon="2.62302">
        <ele>132.32</ele>
        <time>2014-03-23T07:21:36Z</time>
      </trkpt>
      <trkpt lat="48.40134" lon="2.62271">
        <ele>132.32</ele>
        <time>2014-03-23T07:21:40Z</time>
      </trkpt>
      <trkpt lat="48.40136" lon="2.62265">
        <ele>132.32</ele>
        <time>2014-03-23T07:21:41Z</time>
      </trkpt>
      <trkpt lat="48.40138" lon="2.62259">
        <ele>132.32</ele>
        <time>2014-03-23T07:21:42Z</time>
      </trkpt>
      <trkpt lat="48.40141" lon="2.62252">
        <ele>132.32</ele>
        <time>2014-03-23T07:21:43Z</time>
      </trkpt>
      <trkpt lat="48.40142" lon="2.62244">
        <ele>132.32</ele>
        <time>2014-03-23T07:21:44Z</time>
      </trkpt>
      <trkpt lat="48.40142" lon="2.62236">
        <ele>132.32</ele>
        <time>2014-03-23T07:21:45Z</time>
      </trkpt>
      <trkpt lat="48.40141" lon="2.62228">
        <ele>132.32</ele>
        <time>2014-03-23T07:21:46Z</time>
      </trkpt>
      <trkpt lat="48.40137" lon="2.62221">
        <ele>132.32</ele>
        <time>2014-03-23T07:21:47Z</time>
      </trkpt>
      <trkpt lat="48.40134" lon="2.62216">
        <ele>132.32</ele>
        <time>2014-03-23T07:21:48Z</time>
      </trkpt>
      <trkpt lat="48.40129" lon="2.62211">
        <ele>132.32</ele>
        <time>2014-03-23T07:21:49Z</time>
      </trkpt>
      <trkpt lat="48.40124" lon="2.62207">
        <ele>132.32</ele>
        <time>2014-03-23T07:21:50Z</time>
      </trkpt>
      <trkpt lat="48.40065" lon="2.62158">
        <ele>130.4</ele>
        <time>2014-03-23T07:22:02Z</time>
      </trkpt>
      <trkpt lat="48.40061" lon="2.62154">
        <ele>130.4</ele>
        <time>2014-03-23T07:22:03Z</time>
      </trkpt>
      <trkpt lat="48.40053" lon="2.62146">
        <ele>131.84</ele>
        <time>2014-03-23T07:22:05Z</time>
      </trkpt>
      <trkpt lat="48.40046" lon="2.6214">
        <ele>132.32</ele>
        <time>2014-03-23T07:22:07Z</time>
      </trkpt>
      <trkpt lat="48.4001" lon="2.62127">
        <ele>131.36</ele>
        <time>2014-03-23T07:22:16Z</time>
      </trkpt>
      <trkpt lat="48.40005" lon="2.62123">
        <ele>131.36</ele>
        <time>2014-03-23T07:22:17Z</time>
      </trkpt>
      <trkpt lat="48.39974" lon="2.62097">
        <ele>130.88</ele>
        <time>2014-03-23T07:22:24Z</time>
      </trkpt>
      <trkpt lat="48.39951" lon="2.62081">
        <ele>130.88</ele>
        <time>2014-03-23T07:22:29Z</time>
      </trkpt>
      <trkpt lat="48.39933" lon="2.62064">
        <ele>130.4</ele>
        <time>2014-03-23T07:22:33Z</time>
      </trkpt>
      <trkpt lat="48.39928" lon="2.6206">
        <ele>130.4</ele>
        <time>2014-03-23T07:22:34Z</time>
      </trkpt>
      <trkpt lat="48.39923" lon="2.62056">
        <ele>129.43</ele>
        <time>2014-03-23T07:22:35Z</time>
      </trkpt>
      <trkpt lat="48.39908" lon="2.62042">
        <ele>129.43</ele>
        <time>2014-03-23T07:22:38Z</time>
      </trkpt>
      <trkpt lat="48.39904" lon="2.62036">
        <ele>129.43</ele>
        <time>2014-03-23T07:22:39Z</time>
      </trkpt>
      <trkpt lat="48.39889" lon="2.62022">
        <ele>129.43</ele>
        <time>2014-03-23T07:22:42Z</time>
      </trkpt>
      <trkpt lat="48.39884" lon="2.62019">
        <ele>129.43</ele>
        <time>2014-03-23T07:22:43Z</time>
      </trkpt>
      <trkpt lat="48.39861" lon="2.62003">
        <ele>129.43</ele>
        <time>2014-03-23T07:22:48Z</time>
      </trkpt>
      <trkpt lat="48.39856" lon="2.62">
        <ele>129.43</ele>
        <time>2014-03-23T07:22:49Z</time>
      </trkpt>
      <trkpt lat="48.39852" lon="2.61997">
        <ele>129.43</ele>
        <time>2014-03-23T07:22:50Z</time>
      </trkpt>
      <trkpt lat="48.39778" lon="2.61942">
        <ele>131.36</ele>
        <time>2014-03-23T07:23:06Z</time>
      </trkpt>
      <trkpt lat="48.39716" lon="2.61894">
        <ele>131.36</ele>
        <time>2014-03-23T07:23:20Z</time>
      </trkpt>
      <trkpt lat="48.39671" lon="2.61858">
        <ele>131.84</ele>
        <time>2014-03-23T07:23:31Z</time>
      </trkpt>
      <trkpt lat="48.39649" lon="2.61841">
        <ele>131.84</ele>
        <time>2014-03-23T07:23:37Z</time>
      </trkpt>
      <trkpt lat="48.39631" lon="2.61825">
        <ele>131.84</ele>
        <time>2014-03-23T07:23:42Z</time>
      </trkpt>
      <trkpt lat="48.3963" lon="2.6182">
        <ele>131.84</ele>
        <time>2014-03-23T07:23:43Z</time>
      </trkpt>
      <trkpt lat="48.39631" lon="2.61815">
        <ele>131.84</ele>
        <time>2014-03-23T07:23:44Z</time>
      </trkpt>
      <trkpt lat="48.39647" lon="2.61746">
        <ele>131.84</ele>
        <time>2014-03-23T07:23:56Z</time>
      </trkpt>
      <trkpt lat="48.39651" lon="2.61728">
        <ele>131.84</ele>
        <time>2014-03-23T07:23:59Z</time>
      </trkpt>
      <trkpt lat="48.39653" lon="2.61722">
        <ele>131.84</ele>
        <time>2014-03-23T07:24:00Z</time>
      </trkpt>
      <trkpt lat="48.39664" lon="2.61678">
        <ele>130.4</ele>
        <time>2014-03-23T07:24:07Z</time>
      </trkpt>
      <trkpt lat="48.39685" lon="2.61599">
        <ele>130.4</ele>
        <time>2014-03-23T07:24:19Z</time>
      </trkpt>
      <trkpt lat="48.39686" lon="2.61593">
        <ele>130.4</ele>
        <time>2014-03-23T07:24:20Z</time>
      </trkpt>
      <trkpt lat="48.3969" lon="2.6158">
        <ele>130.4</ele>
        <time>2014-03-23T07:24:22Z</time>
      </trkpt>
      <trkpt lat="48.39692" lon="2.61572">
        <ele>130.4</ele>
        <time>2014-03-23T07:24:23Z</time>
      </trkpt>
      <trkpt lat="48.39702" lon="2.61532">
        <ele>129.92</ele>
        <time>2014-03-23T07:24:29Z</time>
      </trkpt>
      <trkpt lat="48.39723" lon="2.61444">
        <ele>129.92</ele>
        <time>2014-03-23T07:24:43Z</time>
      </trkpt>
      <trkpt lat="48.39741" lon="2.6141">
        <ele>129.43</ele>
        <time>2014-03-23T07:24:51Z</time>
      </trkpt>
      <trkpt lat="48.39744" lon="2.61409">
        <ele>129.43</ele>
        <time>2014-03-23T07:24:52Z</time>
      </trkpt>
      <trkpt lat="48.39747" lon="2.61409">
        <ele>129.43</ele>
        <time>2014-03-23T07:25:03Z</time>
      </trkpt>
      <trkpt lat="48.39761" lon="2.61411">
        <ele>129.43</ele>
        <time>2014-03-23T07:25:15Z</time>
      </trkpt>
      <trkpt lat="48.39763" lon="2.6141">
        <ele>129.43</ele>
        <time>2014-03-23T07:25:32Z</time>
      </trkpt>
      <trkpt lat="48.39781" lon="2.61412">
        <ele>129.43</ele>
        <time>2014-03-23T07:25:44Z</time>
      </trkpt>
      <trkpt lat="48.39787" lon="2.61414">
        <ele>128.95</ele>
        <time>2014-03-23T07:25:45Z</time>
      </trkpt>
      <trkpt lat="48.39793" lon="2.61415">
        <ele>128.95</ele>
        <time>2014-03-23T07:25:46Z</time>
      </trkpt>
      <trkpt lat="48.39798" lon="2.61416">
        <ele>128.95</ele>
        <time>2014-03-23T07:25:47Z</time>
      </trkpt>
      <trkpt lat="48.39804" lon="2.61417">
        <ele>128.95</ele>
        <time>2014-03-23T07:25:48Z</time>
      </trkpt>
      <trkpt lat="48.39872" lon="2.61428">
        <ele>128.47</ele>
        <time>2014-03-23T07:26:00Z</time>
      </trkpt>
      <trkpt lat="48.39878" lon="2.61429">
        <ele>128.47</ele>
        <time>2014-03-23T07:26:01Z</time>
      </trkpt>
      <trkpt lat="48.39889" lon="2.61431">
        <ele>128.47</ele>
        <time>2014-03-23T07:26:03Z</time>
      </trkpt>
      <trkpt lat="48.39901" lon="2.61433">
        <ele>128.47</ele>
        <time>2014-03-23T07:26:05Z</time>
      </trkpt>
      <trkpt lat="48.39975" lon="2.61444">
        <ele>126.55</ele>
        <time>2014-03-23T07:26:18Z</time>
      </trkpt>
      <trkpt lat="48.39981" lon="2.61444">
        <ele>125.11</ele>
        <time>2014-03-23T07:26:19Z</time>
      </trkpt>
      <trkpt lat="48.39987" lon="2.61444">
        <ele>125.11</ele>
        <time>2014-03-23T07:26:20Z</time>
      </trkpt>
      <trkpt lat="48.4" lon="2.61443">
        <ele>124.63</ele>
        <time>2014-03-23T07:26:22Z</time>
      </trkpt>
      <trkpt lat="48.40006" lon="2.61441">
        <ele>124.63</ele>
        <time>2014-03-23T07:26:23Z</time>
      </trkpt>
      <trkpt lat="48.40012" lon="2.61438">
        <ele>124.63</ele>
        <time>2014-03-23T07:26:24Z</time>
      </trkpt>
      <trkpt lat="48.40018" lon="2.61437">
        <ele>124.63</ele>
        <time>2014-03-23T07:26:25Z</time>
      </trkpt>
      <trkpt lat="48.40024" lon="2.61436">
        <ele>124.63</ele>
        <time>2014-03-23T07:26:26Z</time>
      </trkpt>
      <trkpt lat="48.4003" lon="2.61436">
        <ele>124.63</ele>
        <time>2014-03-23T07:26:27Z</time>
      </trkpt>
      <trkpt lat="48.40048" lon="2.61438">
        <ele>126.55</ele>
        <time>2014-03-23T07:26:31Z</time>
      </trkpt>
      <trkpt lat="48.40052" lon="2.61438">
        <ele>127.51</ele>
        <time>2014-03-23T07:26:32Z</time>
      </trkpt>
      <trkpt lat="48.40057" lon="2.61436">
        <ele>127.51</ele>
        <time>2014-03-23T07:26:33Z</time>
      </trkpt>
      <trkpt lat="48.40061" lon="2.61434">
        <ele>128.47</ele>
        <time>2014-03-23T07:26:34Z</time>
      </trkpt>
      <trkpt lat="48.40064" lon="2.61431">
        <ele>128.95</ele>
        <time>2014-03-23T07:26:35Z</time>
      </trkpt>
      <trkpt lat="48.40067" lon="2.61427">
        <ele>128.95</ele>
        <time>2014-03-23T07:26:36Z</time>
      </trkpt>
      <trkpt lat="48.4007" lon="2.61422">
        <ele>128.95</ele>
        <time>2014-03-23T07:26:37Z</time>
      </trkpt>
      <trkpt lat="48.40072" lon="2.61417">
        <ele>128.95</ele>
        <time>2014-03-23T07:26:38Z</time>
      </trkpt>
      <trkpt lat="48.40075" lon="2.61413">
        <ele>128.95</ele>
        <time>2014-03-23T07:26:39Z</time>
      </trkpt>
      <trkpt lat="48.40078" lon="2.6141">
        <ele>128.95</ele>
        <time>2014-03-23T07:26:40Z</time>
      </trkpt>
      <trkpt lat="48.40082" lon="2.61408">
        <ele>129.43</ele>
        <time>2014-03-23T07:26:41Z</time>
      </trkpt>
      <trkpt lat="48.40086" lon="2.61406">
        <ele>129.43</ele>
        <time>2014-03-23T07:26:42Z</time>
      </trkpt>
      <trkpt lat="48.40089" lon="2.61406">
        <ele>129.43</ele>
        <time>2014-03-23T07:26:43Z</time>
      </trkpt>
      <trkpt lat="48.40121" lon="2.61396">
        <ele>130.4</ele>
        <time>2014-03-23T07:26:52Z</time>
      </trkpt>
      <trkpt lat="48.40126" lon="2.61395">
        <ele>128.47</ele>
        <time>2014-03-23T07:26:53Z</time>
      </trkpt>
      <trkpt lat="48.40151" lon="2.61394">
        <ele>125.59</ele>
        <time>2014-03-23T07:26:57Z</time>
      </trkpt>
      <trkpt lat="48.40195" lon="2.6139">
        <ele>123.19</ele>
        <time>2014-03-23T07:27:03Z</time>
      </trkpt>
      <trkpt lat="48.40218" lon="2.61383">
        <ele>123.19</ele>
        <time>2014-03-23T07:27:07Z</time>
      </trkpt>
      <trkpt lat="48.40228" lon="2.61378">
        <ele>123.67</ele>
        <time>2014-03-23T07:27:09Z</time>
      </trkpt>
      <trkpt lat="48.40233" lon="2.61376">
        <ele>123.67</ele>
        <time>2014-03-23T07:27:10Z</time>
      </trkpt>
      <trkpt lat="48.40238" lon="2.61373">
        <ele>123.67</ele>
        <time>2014-03-23T07:27:11Z</time>
      </trkpt>
      <trkpt lat="48.40242" lon="2.61371">
        <ele>124.63</ele>
        <time>2014-03-23T07:27:12Z</time>
      </trkpt>
      <trkpt lat="48.40246" lon="2.6137">
        <ele>124.63</ele>
        <time>2014-03-23T07:27:13Z</time>
      </trkpt>
      <trkpt lat="48.4025" lon="2.6137">
        <ele>125.59</ele>
        <time>2014-03-23T07:27:14Z</time>
      </trkpt>
      <trkpt lat="48.40253" lon="2.61371">
        <ele>125.59</ele>
        <time>2014-03-23T07:27:15Z</time>
      </trkpt>
      <trkpt lat="48.40257" lon="2.61373">
        <ele>125.59</ele>
        <time>2014-03-23T07:27:16Z</time>
      </trkpt>
      <trkpt lat="48.40261" lon="2.61376">
        <ele>126.55</ele>
        <time>2014-03-23T07:27:17Z</time>
      </trkpt>
      <trkpt lat="48.40264" lon="2.6138">
        <ele>126.55</ele>
        <time>2014-03-23T07:27:18Z</time>
      </trkpt>
      <trkpt lat="48.40296" lon="2.61392">
        <ele>127.99</ele>
        <time>2014-03-23T07:27:27Z</time>
      </trkpt>
      <trkpt lat="48.40329" lon="2.61398">
        <ele>129.92</ele>
        <time>2014-03-23T07:27:39Z</time>
      </trkpt>
      <trkpt lat="48.40373" lon="2.61406">
        <ele>130.4</ele>
        <time>2014-03-23T07:27:54Z</time>
      </trkpt>
      <trkpt lat="48.40416" lon="2.61413">
        <ele>130.4</ele>
        <time>2014-03-23T07:28:09Z</time>
      </trkpt>
      <trkpt lat="48.40426" lon="2.61417">
        <ele>130.88</ele>
        <time>2014-03-23T07:28:14Z</time>
      </trkpt>
      <trkpt lat="48.40428" lon="2.61417">
        <ele>130.88</ele>
        <time>2014-03-23T07:28:15Z</time>
      </trkpt>
      <trkpt lat="48.40454" lon="2.61429">
        <ele>130.88</ele>
        <time>2014-03-23T07:28:24Z</time>
      </trkpt>
      <trkpt lat="48.40519" lon="2.61461">
        <ele>129.92</ele>
        <time>2014-03-23T07:28:39Z</time>
      </trkpt>
      <trkpt lat="48.40523" lon="2.61464">
        <ele>129.92</ele>
        <time>2014-03-23T07:28:40Z</time>
      </trkpt>
      <trkpt lat="48.4058" lon="2.61491">
        <ele>127.99</ele>
        <time>2014-03-23T07:28:51Z</time>
      </trkpt>
      <trkpt lat="48.40595" lon="2.61493">
        <ele>126.55</ele>
        <time>2014-03-23T07:28:53Z</time>
      </trkpt>
      <trkpt lat="48.40633" lon="2.61492">
        <ele>122.22</ele>
        <time>2014-03-23T07:28:58Z</time>
      </trkpt>
      <trkpt lat="48.40658" lon="2.61487">
        <ele>118.86</ele>
        <time>2014-03-23T07:29:01Z</time>
      </trkpt>
      <trkpt lat="48.40666" lon="2.61483">
        <ele>117.9</ele>
        <time>2014-03-23T07:29:02Z</time>
      </trkpt>
      <trkpt lat="48.40673" lon="2.61478">
        <ele>117.42</ele>
        <time>2014-03-23T07:29:03Z</time>
      </trkpt>
      <trkpt lat="48.40679" lon="2.61471">
        <ele>116.46</ele>
        <time>2014-03-23T07:29:04Z</time>
      </trkpt>
      <trkpt lat="48.40685" lon="2.61464">
        <ele>115.98</ele>
        <time>2014-03-23T07:29:05Z</time>
      </trkpt>
      <trkpt lat="48.4069" lon="2.61456">
        <ele>115.01</ele>
        <time>2014-03-23T07:29:06Z</time>
      </trkpt>
      <trkpt lat="48.40694" lon="2.61448">
        <ele>114.53</ele>
        <time>2014-03-23T07:29:07Z</time>
      </trkpt>
      <trkpt lat="48.40698" lon="2.61439">
        <ele>114.53</ele>
        <time>2014-03-23T07:29:08Z</time>
      </trkpt>
      <trkpt lat="48.40702" lon="2.61429">
        <ele>114.05</ele>
        <time>2014-03-23T07:29:09Z</time>
      </trkpt>
      <trkpt lat="48.40704" lon="2.61419">
        <ele>113.57</ele>
        <time>2014-03-23T07:29:10Z</time>
      </trkpt>
      <trkpt lat="48.40706" lon="2.61409">
        <ele>113.09</ele>
        <time>2014-03-23T07:29:11Z</time>
      </trkpt>
      <trkpt lat="48.40733" lon="2.61298">
        <ele>110.21</ele>
        <time>2014-03-23T07:29:22Z</time>
      </trkpt>
      <trkpt lat="48.40749" lon="2.61191">
        <ele>106.84</ele>
        <time>2014-03-23T07:29:31Z</time>
      </trkpt>
      <trkpt lat="48.40757" lon="2.61071">
        <ele>103.48</ele>
        <time>2014-03-23T07:29:40Z</time>
      </trkpt>
      <trkpt lat="48.40759" lon="2.6103">
        <ele>102.52</ele>
        <time>2014-03-23T07:29:43Z</time>
      </trkpt>
      <trkpt lat="48.4076" lon="2.60987">
        <ele>100.11</ele>
        <time>2014-03-23T07:29:46Z</time>
      </trkpt>
      <trkpt lat="48.40768" lon="2.60878">
        <ele>97.23</ele>
        <time>2014-03-23T07:29:54Z</time>
      </trkpt>
      <trkpt lat="48.4077" lon="2.60869">
        <ele>97.23</ele>
        <time>2014-03-23T07:29:55Z</time>
      </trkpt>
      <trkpt lat="48.40773" lon="2.60862">
        <ele>97.23</ele>
        <time>2014-03-23T07:29:56Z</time>
      </trkpt>
      <trkpt lat="48.40777" lon="2.60856">
        <ele>97.23</ele>
        <time>2014-03-23T07:29:57Z</time>
      </trkpt>
      <trkpt lat="48.40782" lon="2.6085">
        <ele>97.23</ele>
        <time>2014-03-23T07:29:58Z</time>
      </trkpt>
      <trkpt lat="48.40788" lon="2.60844">
        <ele>96.27</ele>
        <time>2014-03-23T07:29:59Z</time>
      </trkpt>
      <trkpt lat="48.40795" lon="2.60837">
        <ele>96.27</ele>
        <time>2014-03-23T07:30:00Z</time>
      </trkpt>
      <trkpt lat="48.40801" lon="2.6083">
        <ele>95.79</ele>
        <time>2014-03-23T07:30:01Z</time>
      </trkpt>
      <trkpt lat="48.40809" lon="2.60823">
        <ele>95.79</ele>
        <time>2014-03-23T07:30:02Z</time>
      </trkpt>
      <trkpt lat="48.40817" lon="2.60816">
        <ele>94.83</ele>
        <time>2014-03-23T07:30:03Z</time>
      </trkpt>
      <trkpt lat="48.40835" lon="2.60806">
        <ele>93.39</ele>
        <time>2014-03-23T07:30:05Z</time>
      </trkpt>
      <trkpt lat="48.40845" lon="2.60803">
        <ele>92.42</ele>
        <time>2014-03-23T07:30:06Z</time>
      </trkpt>
      <trkpt lat="48.40855" lon="2.60801">
        <ele>91.94</ele>
        <time>2014-03-23T07:30:07Z</time>
      </trkpt>
      <trkpt lat="48.40897" lon="2.60792">
        <ele>89.06</ele>
        <time>2014-03-23T07:30:11Z</time>
      </trkpt>
      <trkpt lat="48.40938" lon="2.60784">
        <ele>87.14</ele>
        <time>2014-03-23T07:30:15Z</time>
      </trkpt>
      <trkpt lat="48.40958" lon="2.60786">
        <ele>86.18</ele>
        <time>2014-03-23T07:30:17Z</time>
      </trkpt>
      <trkpt lat="48.40977" lon="2.60794">
        <ele>85.69</ele>
        <time>2014-03-23T07:30:19Z</time>
      </trkpt>
      <trkpt lat="48.40986" lon="2.60799">
        <ele>84.73</ele>
        <time>2014-03-23T07:30:20Z</time>
      </trkpt>
      <trkpt lat="48.41013" lon="2.60813">
        <ele>85.21</ele>
        <time>2014-03-23T07:30:23Z</time>
      </trkpt>
      <trkpt lat="48.41022" lon="2.60814">
        <ele>85.21</ele>
        <time>2014-03-23T07:30:24Z</time>
      </trkpt>
      <trkpt lat="48.41031" lon="2.60813">
        <ele>85.21</ele>
        <time>2014-03-23T07:30:25Z</time>
      </trkpt>
      <trkpt lat="48.41039" lon="2.60812">
        <ele>85.21</ele>
        <time>2014-03-23T07:30:26Z</time>
      </trkpt>
      <trkpt lat="48.41047" lon="2.60813">
        <ele>85.21</ele>
        <time>2014-03-23T07:30:27Z</time>
      </trkpt>
      <trkpt lat="48.41055" lon="2.60816">
        <ele>85.21</ele>
        <time>2014-03-23T07:30:28Z</time>
      </trkpt>
      <trkpt lat="48.41062" lon="2.60822">
        <ele>84.73</ele>
        <time>2014-03-23T07:30:29Z</time>
      </trkpt>
      <trkpt lat="48.4107" lon="2.60828">
        <ele>84.25</ele>
        <time>2014-03-23T07:30:30Z</time>
      </trkpt>
      <trkpt lat="48.41077" lon="2.60835">
        <ele>84.25</ele>
        <time>2014-03-23T07:30:31Z</time>
      </trkpt>
      <trkpt lat="48.41083" lon="2.60844">
        <ele>84.25</ele>
        <time>2014-03-23T07:30:32Z</time>
      </trkpt>
      <trkpt lat="48.41088" lon="2.60854">
        <ele>83.77</ele>
        <time>2014-03-23T07:30:33Z</time>
      </trkpt>
      <trkpt lat="48.41093" lon="2.60864">
        <ele>83.77</ele>
        <time>2014-03-23T07:30:34Z</time>
      </trkpt>
      <trkpt lat="48.41097" lon="2.60876">
        <ele>83.77</ele>
        <time>2014-03-23T07:30:35Z</time>
      </trkpt>
      <trkpt lat="48.411" lon="2.60888">
        <ele>83.77</ele>
        <time>2014-03-23T07:30:36Z</time>
      </trkpt>
      <trkpt lat="48.41103" lon="2.60901">
        <ele>83.77</ele>
        <time>2014-03-23T07:30:37Z</time>
      </trkpt>
      <trkpt lat="48.41104" lon="2.60914">
        <ele>83.77</ele>
        <time>2014-03-23T07:30:38Z</time>
      </trkpt>
      <trkpt lat="48.41106" lon="2.60926">
        <ele>83.77</ele>
        <time>2014-03-23T07:30:39Z</time>
      </trkpt>
      <trkpt lat="48.41109" lon="2.60937">
        <ele>83.77</ele>
        <time>2014-03-23T07:30:40Z</time>
      </trkpt>
      <trkpt lat="48.41114" lon="2.60945">
        <ele>83.77</ele>
        <time>2014-03-23T07:30:41Z</time>
      </trkpt>
      <trkpt lat="48.4112" lon="2.60948">
        <ele>83.77</ele>
        <time>2014-03-23T07:30:42Z</time>
      </trkpt>
      <trkpt lat="48.41126" lon="2.60948">
        <ele>83.77</ele>
        <time>2014-03-23T07:30:43Z</time>
      </trkpt>
      <trkpt lat="48.41133" lon="2.60946">
        <ele>83.77</ele>
        <time>2014-03-23T07:30:44Z</time>
      </trkpt>
      <trkpt lat="48.41139" lon="2.60944">
        <ele>83.77</ele>
        <time>2014-03-23T07:30:45Z</time>
      </trkpt>
      <trkpt lat="48.41219" lon="2.60914">
        <ele>82.81</ele>
        <time>2014-03-23T07:30:56Z</time>
      </trkpt>
      <trkpt lat="48.41247" lon="2.60903">
        <ele>82.81</ele>
        <time>2014-03-23T07:31:00Z</time>
      </trkpt>
      <trkpt lat="48.41279" lon="2.60889">
        <ele>82.81</ele>
        <time>2014-03-23T07:31:05Z</time>
      </trkpt>
      <trkpt lat="48.41285" lon="2.60887">
        <ele>82.81</ele>
        <time>2014-03-23T07:31:06Z</time>
      </trkpt>
      <trkpt lat="48.41322" lon="2.60876">
        <ele>82.81</ele>
        <time>2014-03-23T07:31:13Z</time>
      </trkpt>
      <trkpt lat="48.41326" lon="2.60875">
        <ele>82.81</ele>
        <time>2014-03-23T07:31:14Z</time>
      </trkpt>
      <trkpt lat="48.4133" lon="2.60873">
        <ele>82.81</ele>
        <time>2014-03-23T07:31:15Z</time>
      </trkpt>
      <trkpt lat="48.41334" lon="2.60872">
        <ele>82.81</ele>
        <time>2014-03-23T07:31:16Z</time>
      </trkpt>
      <trkpt lat="48.41338" lon="2.6087">
        <ele>82.81</ele>
        <time>2014-03-23T07:31:17Z</time>
      </trkpt>
      <trkpt lat="48.41343" lon="2.60869">
        <ele>82.81</ele>
        <time>2014-03-23T07:31:18Z</time>
      </trkpt>
      <trkpt lat="48.41347" lon="2.60867">
        <ele>82.81</ele>
        <time>2014-03-23T07:31:19Z</time>
      </trkpt>
      <trkpt lat="48.41351" lon="2.60865">
        <ele>82.81</ele>
        <time>2014-03-23T07:31:20Z</time>
      </trkpt>
      <trkpt lat="48.41356" lon="2.60864">
        <ele>82.81</ele>
        <time>2014-03-23T07:31:21Z</time>
      </trkpt>
      <trkpt lat="48.41373" lon="2.60858">
        <ele>82.81</ele>
        <time>2014-03-23T07:31:25Z</time>
      </trkpt>
      <trkpt lat="48.41437" lon="2.60835">
        <ele>82.81</ele>
        <time>2014-03-23T07:31:37Z</time>
      </trkpt>
      <trkpt lat="48.41511" lon="2.60807">
        <ele>83.77</ele>
        <time>2014-03-23T07:31:50Z</time>
      </trkpt>
      <trkpt lat="48.41572" lon="2.60783">
        <ele>83.77</ele>
        <time>2014-03-23T07:32:02Z</time>
      </trkpt>
      <trkpt lat="48.4161" lon="2.60767">
        <ele>83.77</ele>
        <time>2014-03-23T07:32:15Z</time>
      </trkpt>
      <trkpt lat="48.41623" lon="2.6076">
        <ele>82.33</ele>
        <time>2014-03-23T07:32:25Z</time>
      </trkpt>
      <trkpt lat="48.41631" lon="2.60757">
        <ele>82.33</ele>
        <time>2014-03-23T07:32:40Z</time>
      </trkpt>
      <trkpt lat="48.41632" lon="2.60754">
        <ele>81.37</ele>
        <time>2014-03-23T07:32:59Z</time>
      </trkpt>
      <trkpt lat="48.41633" lon="2.60756">
        <ele>81.37</ele>
        <time>2014-03-23T07:33:32Z</time>
      </trkpt>
      <trkpt lat="48.4163" lon="2.60753">
        <ele>80.89</ele>
        <time>2014-03-23T07:34:13Z</time>
      </trkpt>
      <trkpt lat="48.41629" lon="2.60752">
        <ele>80.89</ele>
        <time>2014-03-23T07:34:42Z</time>
      </trkpt>
      <trkpt lat="48.41631" lon="2.60752">
        <ele>80.89</ele>
        <time>2014-03-23T07:35:15Z</time>
      </trkpt>
      <trkpt lat="48.41631" lon="2.60753">
        <ele>81.37</ele>
        <time>2014-03-23T07:35:48Z</time>
      </trkpt>
      <trkpt lat="48.4163" lon="2.60752">
        <ele>81.37</ele>
        <time>2014-03-23T07:36:22Z</time>
      </trkpt>
      <trkpt lat="48.4163" lon="2.60755">
        <ele>81.37</ele>
        <time>2014-03-23T07:36:55Z</time>
      </trkpt>
      <trkpt lat="48.4163" lon="2.60757">
        <ele>81.37</ele>
        <time>2014-03-23T07:37:31Z</time>
      </trkpt>
      <trkpt lat="48.41626" lon="2.60751">
        <ele>81.37</ele>
        <time>2014-03-23T07:38:11Z</time>
      </trkpt>
      <trkpt lat="48.41627" lon="2.60756">
        <ele>81.37</ele>
        <time>2014-03-23T07:38:42Z</time>
      </trkpt>
      <trkpt lat="48.41629" lon="2.60756">
        <ele>81.37</ele>
        <time>2014-03-23T07:39:05Z</time>
      </trkpt>
      <trkpt lat="48.41629" lon="2.60753">
        <ele>81.37</ele>
        <time>2014-03-23T07:39:31Z</time>
      </trkpt>
      <trkpt lat="48.41629" lon="2.60749">
        <ele>81.37</ele>
        <time>2014-03-23T07:39:58Z</time>
      </trkpt>
      <trkpt lat="48.41631" lon="2.60751">
        <ele>81.37</ele>
        <time>2014-03-23T07:40:23Z</time>
      </trkpt>
      <trkpt lat="48.41629" lon="2.60747">
        <ele>81.37</ele>
        <time>2014-03-23T07:40:47Z</time>
      </trkpt>
      <trkpt lat="48.41632" lon="2.60751">
        <ele>81.85</ele>
        <time>2014-03-23T07:41:16Z</time>
      </trkpt>
      <trkpt lat="48.41631" lon="2.60754">
        <ele>81.85</ele>
        <time>2014-03-23T07:41:50Z</time>
      </trkpt>
      <trkpt lat="48.41632" lon="2.60755">
        <ele>81.85</ele>
        <time>2014-03-23T07:42:06Z</time>
      </trkpt>
      <trkpt lat="48.41633" lon="2.60755">
        <ele>81.85</ele>
        <time>2014-03-23T07:42:27Z</time>
      </trkpt>
      <trkpt lat="48.41631" lon="2.60756">
        <ele>81.85</ele>
        <time>2014-03-23T07:42:45Z</time>
      </trkpt>
      <trkpt lat="48.4163" lon="2.60756">
        <ele>81.85</ele>
        <time>2014-03-23T07:42:46Z</time>
      </trkpt>
      <trkpt lat="48.41628" lon="2.60755">
        <ele>81.85</ele>
        <time>2014-03-23T07:42:47Z</time>
      </trkpt>
      <trkpt lat="48.41622" lon="2.60754">
        <ele>81.85</ele>
        <time>2014-03-23T07:42:51Z</time>
      </trkpt>
      <trkpt lat="48.4162" lon="2.60753">
        <ele>81.85</ele>
        <time>2014-03-23T07:42:52Z</time>
      </trkpt>
      <trkpt lat="48.41619" lon="2.60752">
        <ele>81.85</ele>
        <time>2014-03-23T07:42:53Z</time>
      </trkpt>
      <trkpt lat="48.41617" lon="2.6075">
        <ele>81.85</ele>
        <time>2014-03-23T07:42:54Z</time>
      </trkpt>
      <trkpt lat="48.41615" lon="2.60746">
        <ele>81.85</ele>
        <time>2014-03-23T07:42:55Z</time>
      </trkpt>
      <trkpt lat="48.41613" lon="2.60743">
        <ele>81.85</ele>
        <time>2014-03-23T07:42:56Z</time>
      </trkpt>
      <trkpt lat="48.41587" lon="2.60697">
        <ele>81.37</ele>
        <time>2014-03-23T07:43:08Z</time>
      </trkpt>
      <trkpt lat="48.41586" lon="2.60695">
        <ele>81.85</ele>
        <time>2014-03-23T07:43:12Z</time>
      </trkpt>
      <trkpt lat="48.41584" lon="2.60693">
        <ele>81.85</ele>
        <time>2014-03-23T07:43:13Z</time>
      </trkpt>
      <trkpt lat="48.41582" lon="2.6069">
        <ele>81.85</ele>
        <time>2014-03-23T07:43:14Z</time>
      </trkpt>
      <trkpt lat="48.41577" lon="2.60681">
        <ele>81.85</ele>
        <time>2014-03-23T07:43:16Z</time>
      </trkpt>
      <trkpt lat="48.41574" lon="2.60675">
        <ele>81.85</ele>
        <time>2014-03-23T07:43:17Z</time>
      </trkpt>
      <trkpt lat="48.41572" lon="2.6067">
        <ele>81.85</ele>
        <time>2014-03-23T07:43:18Z</time>
      </trkpt>
      <trkpt lat="48.41569" lon="2.60665">
        <ele>81.85</ele>
        <time>2014-03-23T07:43:19Z</time>
      </trkpt>
      <trkpt lat="48.41566" lon="2.60661">
        <ele>81.85</ele>
        <time>2014-03-23T07:43:20Z</time>
      </trkpt>
      <trkpt lat="48.41523" lon="2.60584">
        <ele>81.37</ele>
        <time>2014-03-23T07:43:34Z</time>
      </trkpt>
      <trkpt lat="48.41516" lon="2.60571">
        <ele>81.37</ele>
        <time>2014-03-23T07:43:36Z</time>
      </trkpt>
      <trkpt lat="48.41468" lon="2.60485">
        <ele>79.93</ele>
        <time>2014-03-23T07:43:50Z</time>
      </trkpt>
      <trkpt lat="48.4142" lon="2.60398">
        <ele>79.45</ele>
        <time>2014-03-23T07:44:04Z</time>
      </trkpt>
      <trkpt lat="48.41417" lon="2.60392">
        <ele>79.45</ele>
        <time>2014-03-23T07:44:05Z</time>
      </trkpt>
      <trkpt lat="48.41413" lon="2.60385">
        <ele>79.45</ele>
        <time>2014-03-23T07:44:06Z</time>
      </trkpt>
      <trkpt lat="48.41409" lon="2.60379">
        <ele>79.45</ele>
        <time>2014-03-23T07:44:07Z</time>
      </trkpt>
      <trkpt lat="48.41406" lon="2.60373">
        <ele>79.45</ele>
        <time>2014-03-23T07:44:08Z</time>
      </trkpt>
      <trkpt lat="48.41402" lon="2.60366">
        <ele>79.45</ele>
        <time>2014-03-23T07:44:09Z</time>
      </trkpt>
      <trkpt lat="48.4135" lon="2.60268">
        <ele>79.45</ele>
        <time>2014-03-23T07:44:24Z</time>
      </trkpt>
      <trkpt lat="48.41347" lon="2.60262">
        <ele>79.45</ele>
        <time>2014-03-23T07:44:25Z</time>
      </trkpt>
      <trkpt lat="48.41296" lon="2.60171">
        <ele>78.97</ele>
        <time>2014-03-23T07:44:41Z</time>
      </trkpt>
      <trkpt lat="48.41276" lon="2.60137">
        <ele>78.97</ele>
        <time>2014-03-23T07:44:47Z</time>
      </trkpt>
      <trkpt lat="48.41239" lon="2.60068">
        <ele>78.48</ele>
        <time>2014-03-23T07:45:00Z</time>
      </trkpt>
      <trkpt lat="48.41196" lon="2.59989">
        <ele>78</ele>
        <time>2014-03-23T07:45:13Z</time>
      </trkpt>
      <trkpt lat="48.41192" lon="2.59982">
        <ele>78</ele>
        <time>2014-03-23T07:45:14Z</time>
      </trkpt>
      <trkpt lat="48.4119" lon="2.59976">
        <ele>78</ele>
        <time>2014-03-23T07:45:15Z</time>
      </trkpt>
      <trkpt lat="48.41187" lon="2.59971">
        <ele>78</ele>
        <time>2014-03-23T07:45:16Z</time>
      </trkpt>
      <trkpt lat="48.41184" lon="2.59965">
        <ele>78</ele>
        <time>2014-03-23T07:45:17Z</time>
      </trkpt>
      <trkpt lat="48.41181" lon="2.59959">
        <ele>78</ele>
        <time>2014-03-23T07:45:18Z</time>
      </trkpt>
      <trkpt lat="48.41178" lon="2.59953">
        <ele>78</ele>
        <time>2014-03-23T07:45:19Z</time>
      </trkpt>
      <trkpt lat="48.41174" lon="2.59947">
        <ele>78</ele>
        <time>2014-03-23T07:45:20Z</time>
      </trkpt>
      <trkpt lat="48.41137" lon="2.59881">
        <ele>78</ele>
        <time>2014-03-23T07:45:32Z</time>
      </trkpt>
      <trkpt lat="48.41109" lon="2.59833">
        <ele>78</ele>
        <time>2014-03-23T07:45:42Z</time>
      </trkpt>
      <trkpt lat="48.41107" lon="2.59828">
        <ele>78</ele>
        <time>2014-03-23T07:45:43Z</time>
      </trkpt>
      <trkpt lat="48.41105" lon="2.59822">
        <ele>78</ele>
        <time>2014-03-23T07:45:44Z</time>
      </trkpt>
      <trkpt lat="48.41103" lon="2.59818">
        <ele>77.52</ele>
        <time>2014-03-23T07:45:45Z</time>
      </trkpt>
      <trkpt lat="48.411" lon="2.59814">
        <ele>77.52</ele>
        <time>2014-03-23T07:45:46Z</time>
      </trkpt>
      <trkpt lat="48.41096" lon="2.59809">
        <ele>77.52</ele>
        <time>2014-03-23T07:45:47Z</time>
      </trkpt>
      <trkpt lat="48.41092" lon="2.59803">
        <ele>77.52</ele>
        <time>2014-03-23T07:45:48Z</time>
      </trkpt>
      <trkpt lat="48.41089" lon="2.59797">
        <ele>77.52</ele>
        <time>2014-03-23T07:45:49Z</time>
      </trkpt>
      <trkpt lat="48.41086" lon="2.59791">
        <ele>77.52</ele>
        <time>2014-03-23T07:45:50Z</time>
      </trkpt>
      <trkpt lat="48.41079" lon="2.59778">
        <ele>76.56</ele>
        <time>2014-03-23T07:45:52Z</time>
      </trkpt>
      <trkpt lat="48.4103" lon="2.59688">
        <ele>76.56</ele>
        <time>2014-03-23T07:46:05Z</time>
      </trkpt>
      <trkpt lat="48.41022" lon="2.59675">
        <ele>76.56</ele>
        <time>2014-03-23T07:46:07Z</time>
      </trkpt>
      <trkpt lat="48.41014" lon="2.59662">
        <ele>76.56</ele>
        <time>2014-03-23T07:46:09Z</time>
      </trkpt>
      <trkpt lat="48.4101" lon="2.59657">
        <ele>76.56</ele>
        <time>2014-03-23T07:46:10Z</time>
      </trkpt>
      <trkpt lat="48.41007" lon="2.59651">
        <ele>76.56</ele>
        <time>2014-03-23T07:46:11Z</time>
      </trkpt>
      <trkpt lat="48.40968" lon="2.59577">
        <ele>76.56</ele>
        <time>2014-03-23T07:46:23Z</time>
      </trkpt>
      <trkpt lat="48.40966" lon="2.59571">
        <ele>76.56</ele>
        <time>2014-03-23T07:46:24Z</time>
      </trkpt>
      <trkpt lat="48.40964" lon="2.59564">
        <ele>76.56</ele>
        <time>2014-03-23T07:46:25Z</time>
      </trkpt>
      <trkpt lat="48.40964" lon="2.59557">
        <ele>76.56</ele>
        <time>2014-03-23T07:46:26Z</time>
      </trkpt>
      <trkpt lat="48.40964" lon="2.5955">
        <ele>76.56</ele>
        <time>2014-03-23T07:46:27Z</time>
      </trkpt>
      <trkpt lat="48.40964" lon="2.59542">
        <ele>76.56</ele>
        <time>2014-03-23T07:46:28Z</time>
      </trkpt>
      <trkpt lat="48.40972" lon="2.59423">
        <ele>76.56</ele>
        <time>2014-03-23T07:46:43Z</time>
      </trkpt>
      <trkpt lat="48.40973" lon="2.59409">
        <ele>78</ele>
        <time>2014-03-23T07:46:45Z</time>
      </trkpt>
      <trkpt lat="48.4098" lon="2.59323">
        <ele>78.48</ele>
        <time>2014-03-23T07:46:59Z</time>
      </trkpt>
      <trkpt lat="48.40982" lon="2.5929">
        <ele>78.48</ele>
        <time>2014-03-23T07:47:04Z</time>
      </trkpt>
      <trkpt lat="48.40984" lon="2.59252">
        <ele>77.52</ele>
        <time>2014-03-23T07:47:10Z</time>
      </trkpt>
      <trkpt lat="48.40981" lon="2.59191">
        <ele>78.48</ele>
        <time>2014-03-23T07:47:22Z</time>
      </trkpt>
      <trkpt lat="48.40954" lon="2.59195">
        <ele>79.45</ele>
        <time>2014-03-23T07:47:32Z</time>
      </trkpt>
      <trkpt lat="48.40926" lon="2.59202">
        <ele>81.85</ele>
        <time>2014-03-23T07:47:43Z</time>
      </trkpt>
      <trkpt lat="48.40902" lon="2.5922">
        <ele>83.77</ele>
        <time>2014-03-23T07:47:56Z</time>
      </trkpt>
      <trkpt lat="48.40878" lon="2.59231">
        <ele>86.18</ele>
        <time>2014-03-23T07:48:09Z</time>
      </trkpt>
      <trkpt lat="48.40865" lon="2.59242">
        <ele>87.62</ele>
        <time>2014-03-23T07:48:17Z</time>
      </trkpt>
      <trkpt lat="48.40864" lon="2.59243">
        <ele>87.62</ele>
        <time>2014-03-23T07:48:18Z</time>
      </trkpt>
      <trkpt lat="48.40862" lon="2.59244">
        <ele>87.62</ele>
        <time>2014-03-23T07:48:19Z</time>
      </trkpt>
      <trkpt lat="48.40861" lon="2.59245">
        <ele>87.62</ele>
        <time>2014-03-23T07:48:20Z</time>
      </trkpt>
      <trkpt lat="48.40859" lon="2.59246">
        <ele>88.58</ele>
        <time>2014-03-23T07:48:21Z</time>
      </trkpt>
      <trkpt lat="48.40858" lon="2.59246">
        <ele>88.58</ele>
        <time>2014-03-23T07:48:22Z</time>
      </trkpt>
      <trkpt lat="48.40857" lon="2.59247">
        <ele>88.58</ele>
        <time>2014-03-23T07:48:23Z</time>
      </trkpt>
      <trkpt lat="48.40855" lon="2.59248">
        <ele>88.58</ele>
        <time>2014-03-23T07:48:24Z</time>
      </trkpt>
      <trkpt lat="48.40832" lon="2.59258">
        <ele>90.98</ele>
        <time>2014-03-23T07:48:38Z</time>
      </trkpt>
      <trkpt lat="48.40813" lon="2.59271">
        <ele>93.39</ele>
        <time>2014-03-23T07:48:53Z</time>
      </trkpt>
      <trkpt lat="48.40799" lon="2.59278">
        <ele>95.79</ele>
        <time>2014-03-23T07:49:06Z</time>
      </trkpt>
      <trkpt lat="48.40785" lon="2.59281">
        <ele>98.19</ele>
        <time>2014-03-23T07:49:21Z</time>
      </trkpt>
      <trkpt lat="48.40763" lon="2.59279">
        <ele>100.6</ele>
        <time>2014-03-23T07:49:35Z</time>
      </trkpt>
      <trkpt lat="48.40754" lon="2.59274">
        <ele>102.52</ele>
        <time>2014-03-23T07:49:47Z</time>
      </trkpt>
      <trkpt lat="48.40749" lon="2.59268">
        <ele>103</ele>
        <time>2014-03-23T07:49:50Z</time>
      </trkpt>
      <trkpt lat="48.40747" lon="2.59266">
        <ele>103</ele>
        <time>2014-03-23T07:49:51Z</time>
      </trkpt>
      <trkpt lat="48.40745" lon="2.59264">
        <ele>103</ele>
        <time>2014-03-23T07:49:52Z</time>
      </trkpt>
      <trkpt lat="48.40743" lon="2.59262">
        <ele>103</ele>
        <time>2014-03-23T07:49:53Z</time>
      </trkpt>
      <trkpt lat="48.40742" lon="2.59261">
        <ele>103.48</ele>
        <time>2014-03-23T07:49:54Z</time>
      </trkpt>
      <trkpt lat="48.40731" lon="2.59238">
        <ele>105.88</ele>
        <time>2014-03-23T07:50:10Z</time>
      </trkpt>
      <trkpt lat="48.4073" lon="2.59232">
        <ele>106.84</ele>
        <time>2014-03-23T07:50:16Z</time>
      </trkpt>
      <trkpt lat="48.40729" lon="2.59212">
        <ele>108.77</ele>
        <time>2014-03-23T07:50:29Z</time>
      </trkpt>
      <trkpt lat="48.40729" lon="2.592">
        <ele>110.21</ele>
        <time>2014-03-23T07:50:34Z</time>
      </trkpt>
      <trkpt lat="48.40728" lon="2.59198">
        <ele>110.21</ele>
        <time>2014-03-23T07:50:35Z</time>
      </trkpt>
      <trkpt lat="48.40726" lon="2.59194">
        <ele>110.69</ele>
        <time>2014-03-23T07:50:40Z</time>
      </trkpt>
      <trkpt lat="48.40725" lon="2.59193">
        <ele>111.17</ele>
        <time>2014-03-23T07:50:41Z</time>
      </trkpt>
      <trkpt lat="48.40724" lon="2.59192">
        <ele>111.17</ele>
        <time>2014-03-23T07:50:42Z</time>
      </trkpt>
      <trkpt lat="48.40707" lon="2.59199">
        <ele>114.05</ele>
        <time>2014-03-23T07:50:52Z</time>
      </trkpt>
      <trkpt lat="48.40705" lon="2.592">
        <ele>114.05</ele>
        <time>2014-03-23T07:50:53Z</time>
      </trkpt>
      <trkpt lat="48.40696" lon="2.59211">
        <ele>115.98</ele>
        <time>2014-03-23T07:51:05Z</time>
      </trkpt>
      <trkpt lat="48.40693" lon="2.59214">
        <ele>116.94</ele>
        <time>2014-03-23T07:51:10Z</time>
      </trkpt>
      <trkpt lat="48.40692" lon="2.59216">
        <ele>116.94</ele>
        <time>2014-03-23T07:51:11Z</time>
      </trkpt>
      <trkpt lat="48.40682" lon="2.59223">
        <ele>118.38</ele>
        <time>2014-03-23T07:51:23Z</time>
      </trkpt>
      <trkpt lat="48.40681" lon="2.59223">
        <ele>118.38</ele>
        <time>2014-03-23T07:51:24Z</time>
      </trkpt>
      <trkpt lat="48.4068" lon="2.59223">
        <ele>118.38</ele>
        <time>2014-03-23T07:51:25Z</time>
      </trkpt>
      <trkpt lat="48.40664" lon="2.59207">
        <ele>120.3</ele>
        <time>2014-03-23T07:51:38Z</time>
      </trkpt>
      <trkpt lat="48.40662" lon="2.59205">
        <ele>120.3</ele>
        <time>2014-03-23T07:51:39Z</time>
      </trkpt>
      <trkpt lat="48.4066" lon="2.59204">
        <ele>120.3</ele>
        <time>2014-03-23T07:51:40Z</time>
      </trkpt>
      <trkpt lat="48.40658" lon="2.59204">
        <ele>120.3</ele>
        <time>2014-03-23T07:51:41Z</time>
      </trkpt>
      <trkpt lat="48.40657" lon="2.59203">
        <ele>120.3</ele>
        <time>2014-03-23T07:51:42Z</time>
      </trkpt>
      <trkpt lat="48.40653" lon="2.59203">
        <ele>120.3</ele>
        <time>2014-03-23T07:51:43Z</time>
      </trkpt>
      <trkpt lat="48.40649" lon="2.59202">
        <ele>118.86</ele>
        <time>2014-03-23T07:51:44Z</time>
      </trkpt>
      <trkpt lat="48.40644" lon="2.59201">
        <ele>118.86</ele>
        <time>2014-03-23T07:51:45Z</time>
      </trkpt>
      <trkpt lat="48.4064" lon="2.59196">
        <ele>117.9</ele>
        <time>2014-03-23T07:51:46Z</time>
      </trkpt>
      <trkpt lat="48.40636" lon="2.5919">
        <ele>116.94</ele>
        <time>2014-03-23T07:51:47Z</time>
      </trkpt>
      <trkpt lat="48.40632" lon="2.59183">
        <ele>116.94</ele>
        <time>2014-03-23T07:51:48Z</time>
      </trkpt>
      <trkpt lat="48.40628" lon="2.59176">
        <ele>115.5</ele>
        <time>2014-03-23T07:51:49Z</time>
      </trkpt>
      <trkpt lat="48.40626" lon="2.59168">
        <ele>115.01</ele>
        <time>2014-03-23T07:51:50Z</time>
      </trkpt>
      <trkpt lat="48.40624" lon="2.59159">
        <ele>114.05</ele>
        <time>2014-03-23T07:51:51Z</time>
      </trkpt>
      <trkpt lat="48.40623" lon="2.59149">
        <ele>113.57</ele>
        <time>2014-03-23T07:51:52Z</time>
      </trkpt>
      <trkpt lat="48.40624" lon="2.59138">
        <ele>112.61</ele>
        <time>2014-03-23T07:51:53Z</time>
      </trkpt>
      <trkpt lat="48.40625" lon="2.59128">
        <ele>111.65</ele>
        <time>2014-03-23T07:51:54Z</time>
      </trkpt>
      <trkpt lat="48.40627" lon="2.59117">
        <ele>111.17</ele>
        <time>2014-03-23T07:51:55Z</time>
      </trkpt>
      <trkpt lat="48.40629" lon="2.59106">
        <ele>109.25</ele>
        <time>2014-03-23T07:51:56Z</time>
      </trkpt>
      <trkpt lat="48.40633" lon="2.59074">
        <ele>107.32</ele>
        <time>2014-03-23T07:51:59Z</time>
      </trkpt>
      <trkpt lat="48.40633" lon="2.59053">
        <ele>105.88</ele>
        <time>2014-03-23T07:52:01Z</time>
      </trkpt>
      <trkpt lat="48.40632" lon="2.59042">
        <ele>104.92</ele>
        <time>2014-03-23T07:52:02Z</time>
      </trkpt>
      <trkpt lat="48.4063" lon="2.59032">
        <ele>103.96</ele>
        <time>2014-03-23T07:52:03Z</time>
      </trkpt>
      <trkpt lat="48.40626" lon="2.59022">
        <ele>102.52</ele>
        <time>2014-03-23T07:52:04Z</time>
      </trkpt>
      <trkpt lat="48.40621" lon="2.59013">
        <ele>102.04</ele>
        <time>2014-03-23T07:52:05Z</time>
      </trkpt>
      <trkpt lat="48.40614" lon="2.59007">
        <ele>100.6</ele>
        <time>2014-03-23T07:52:06Z</time>
      </trkpt>
      <trkpt lat="48.40607" lon="2.59003">
        <ele>99.63</ele>
        <time>2014-03-23T07:52:07Z</time>
      </trkpt>
      <trkpt lat="48.40599" lon="2.59002">
        <ele>98.19</ele>
        <time>2014-03-23T07:52:08Z</time>
      </trkpt>
      <trkpt lat="48.4059" lon="2.59003">
        <ele>96.75</ele>
        <time>2014-03-23T07:52:09Z</time>
      </trkpt>
      <trkpt lat="48.4058" lon="2.59004">
        <ele>95.31</ele>
        <time>2014-03-23T07:52:10Z</time>
      </trkpt>
      <trkpt lat="48.40564" lon="2.59006">
        <ele>93.87</ele>
        <time>2014-03-23T07:52:12Z</time>
      </trkpt>
      <trkpt lat="48.40558" lon="2.59003">
        <ele>93.39</ele>
        <time>2014-03-23T07:52:13Z</time>
      </trkpt>
      <trkpt lat="48.40552" lon="2.58997">
        <ele>92.9</ele>
        <time>2014-03-23T07:52:14Z</time>
      </trkpt>
      <trkpt lat="48.40548" lon="2.5899">
        <ele>92.42</ele>
        <time>2014-03-23T07:52:15Z</time>
      </trkpt>
      <trkpt lat="48.40543" lon="2.58981">
        <ele>91.94</ele>
        <time>2014-03-23T07:52:16Z</time>
      </trkpt>
      <trkpt lat="48.40534" lon="2.58965">
        <ele>90.98</ele>
        <time>2014-03-23T07:52:18Z</time>
      </trkpt>
      <trkpt lat="48.40529" lon="2.58958">
        <ele>90.5</ele>
        <time>2014-03-23T07:52:19Z</time>
      </trkpt>
      <trkpt lat="48.40522" lon="2.58952">
        <ele>89.54</ele>
        <time>2014-03-23T07:52:20Z</time>
      </trkpt>
      <trkpt lat="48.40515" lon="2.58946">
        <ele>89.06</ele>
        <time>2014-03-23T07:52:21Z</time>
      </trkpt>
      <trkpt lat="48.40496" lon="2.58934">
        <ele>88.58</ele>
        <time>2014-03-23T07:52:24Z</time>
      </trkpt>
      <trkpt lat="48.40492" lon="2.5893">
        <ele>87.14</ele>
        <time>2014-03-23T07:52:25Z</time>
      </trkpt>
      <trkpt lat="48.40489" lon="2.58923">
        <ele>86.66</ele>
        <time>2014-03-23T07:52:26Z</time>
      </trkpt>
      <trkpt lat="48.40488" lon="2.58914">
        <ele>86.66</ele>
        <time>2014-03-23T07:52:27Z</time>
      </trkpt>
      <trkpt lat="48.40489" lon="2.58906">
        <ele>86.18</ele>
        <time>2014-03-23T07:52:28Z</time>
      </trkpt>
      <trkpt lat="48.40491" lon="2.58897">
        <ele>86.18</ele>
        <time>2014-03-23T07:52:29Z</time>
      </trkpt>
      <trkpt lat="48.40492" lon="2.58887">
        <ele>86.18</ele>
        <time>2014-03-23T07:52:30Z</time>
      </trkpt>
      <trkpt lat="48.40493" lon="2.58877">
        <ele>85.69</ele>
        <time>2014-03-23T07:52:31Z</time>
      </trkpt>
      <trkpt lat="48.40493" lon="2.58866">
        <ele>85.69</ele>
        <time>2014-03-23T07:52:32Z</time>
      </trkpt>
      <trkpt lat="48.40491" lon="2.58855">
        <ele>84.73</ele>
        <time>2014-03-23T07:52:33Z</time>
      </trkpt>
      <trkpt lat="48.4049" lon="2.58844">
        <ele>84.25</ele>
        <time>2014-03-23T07:52:34Z</time>
      </trkpt>
      <trkpt lat="48.4049" lon="2.58833">
        <ele>84.25</ele>
        <time>2014-03-23T07:52:35Z</time>
      </trkpt>
      <trkpt lat="48.40491" lon="2.58822">
        <ele>83.77</ele>
        <time>2014-03-23T07:52:36Z</time>
      </trkpt>
      <trkpt lat="48.40494" lon="2.5881">
        <ele>83.77</ele>
        <time>2014-03-23T07:52:37Z</time>
      </trkpt>
      <trkpt lat="48.40497" lon="2.58799">
        <ele>83.29</ele>
        <time>2014-03-23T07:52:38Z</time>
      </trkpt>
      <trkpt lat="48.40501" lon="2.58789">
        <ele>82.81</ele>
        <time>2014-03-23T07:52:39Z</time>
      </trkpt>
      <trkpt lat="48.40509" lon="2.58766">
        <ele>82.33</ele>
        <time>2014-03-23T07:52:41Z</time>
      </trkpt>
      <trkpt lat="48.40512" lon="2.58754">
        <ele>81.85</ele>
        <time>2014-03-23T07:52:42Z</time>
      </trkpt>
      <trkpt lat="48.40514" lon="2.58742">
        <ele>81.85</ele>
        <time>2014-03-23T07:52:43Z</time>
      </trkpt>
      <trkpt lat="48.40519" lon="2.58706">
        <ele>81.37</ele>
        <time>2014-03-23T07:52:46Z</time>
      </trkpt>
      <trkpt lat="48.40519" lon="2.58693">
        <ele>80.41</ele>
        <time>2014-03-23T07:52:47Z</time>
      </trkpt>
      <trkpt lat="48.40516" lon="2.58666">
        <ele>79.93</ele>
        <time>2014-03-23T07:52:49Z</time>
      </trkpt>
      <trkpt lat="48.40515" lon="2.58639">
        <ele>79.45</ele>
        <time>2014-03-23T07:52:51Z</time>
      </trkpt>
      <trkpt lat="48.40518" lon="2.58626">
        <ele>78.97</ele>
        <time>2014-03-23T07:52:52Z</time>
      </trkpt>
      <trkpt lat="48.40521" lon="2.58613">
        <ele>78.97</ele>
        <time>2014-03-23T07:52:53Z</time>
      </trkpt>
      <trkpt lat="48.40528" lon="2.5859">
        <ele>78</ele>
        <time>2014-03-23T07:52:55Z</time>
      </trkpt>
      <trkpt lat="48.40529" lon="2.5858">
        <ele>78</ele>
        <time>2014-03-23T07:52:56Z</time>
      </trkpt>
      <trkpt lat="48.40528" lon="2.5857">
        <ele>78</ele>
        <time>2014-03-23T07:52:57Z</time>
      </trkpt>
      <trkpt lat="48.40525" lon="2.58562">
        <ele>78</ele>
        <time>2014-03-23T07:52:58Z</time>
      </trkpt>
      <trkpt lat="48.40519" lon="2.58556">
        <ele>78</ele>
        <time>2014-03-23T07:52:59Z</time>
      </trkpt>
      <trkpt lat="48.40513" lon="2.58552">
        <ele>77.52</ele>
        <time>2014-03-23T07:53:00Z</time>
      </trkpt>
      <trkpt lat="48.40507" lon="2.58547">
        <ele>77.52</ele>
        <time>2014-03-23T07:53:01Z</time>
      </trkpt>
      <trkpt lat="48.40487" lon="2.58537">
        <ele>77.52</ele>
        <time>2014-03-23T07:53:04Z</time>
      </trkpt>
      <trkpt lat="48.4048" lon="2.58535">
        <ele>77.52</ele>
        <time>2014-03-23T07:53:05Z</time>
      </trkpt>
      <trkpt lat="48.40473" lon="2.58534">
        <ele>77.52</ele>
        <time>2014-03-23T07:53:06Z</time>
      </trkpt>
      <trkpt lat="48.4045" lon="2.58534">
        <ele>77.04</ele>
        <time>2014-03-23T07:53:09Z</time>
      </trkpt>
      <trkpt lat="48.40444" lon="2.58531">
        <ele>77.04</ele>
        <time>2014-03-23T07:53:10Z</time>
      </trkpt>
      <trkpt lat="48.40398" lon="2.58504">
        <ele>76.08</ele>
        <time>2014-03-23T07:53:17Z</time>
      </trkpt>
      <trkpt lat="48.40387" lon="2.58494">
        <ele>76.08</ele>
        <time>2014-03-23T07:53:19Z</time>
      </trkpt>
      <trkpt lat="48.40381" lon="2.58489">
        <ele>76.08</ele>
        <time>2014-03-23T07:53:20Z</time>
      </trkpt>
      <trkpt lat="48.4031" lon="2.58443">
        <ele>76.08</ele>
        <time>2014-03-23T07:53:32Z</time>
      </trkpt>
      <trkpt lat="48.40269" lon="2.58415">
        <ele>76.08</ele>
        <time>2014-03-23T07:53:39Z</time>
      </trkpt>
      <trkpt lat="48.40264" lon="2.58412">
        <ele>76.08</ele>
        <time>2014-03-23T07:53:40Z</time>
      </trkpt>
      <trkpt lat="48.40258" lon="2.58413">
        <ele>76.08</ele>
        <time>2014-03-23T07:53:41Z</time>
      </trkpt>
      <trkpt lat="48.40254" lon="2.58418">
        <ele>76.08</ele>
        <time>2014-03-23T07:53:42Z</time>
      </trkpt>
      <trkpt lat="48.40252" lon="2.58424">
        <ele>76.08</ele>
        <time>2014-03-23T07:53:43Z</time>
      </trkpt>
      <trkpt lat="48.4025" lon="2.58431">
        <ele>76.08</ele>
        <time>2014-03-23T07:53:44Z</time>
      </trkpt>
      <trkpt lat="48.40249" lon="2.58438">
        <ele>76.08</ele>
        <time>2014-03-23T07:53:45Z</time>
      </trkpt>
      <trkpt lat="48.40248" lon="2.58445">
        <ele>76.08</ele>
        <time>2014-03-23T07:53:46Z</time>
      </trkpt>
      <trkpt lat="48.40247" lon="2.58452">
        <ele>76.08</ele>
        <time>2014-03-23T07:53:47Z</time>
      </trkpt>
      <trkpt lat="48.40245" lon="2.58466">
        <ele>77.52</ele>
        <time>2014-03-23T07:53:49Z</time>
      </trkpt>
      <trkpt lat="48.40246" lon="2.58472">
        <ele>77.52</ele>
        <time>2014-03-23T07:53:50Z</time>
      </trkpt>
      <trkpt lat="48.40247" lon="2.58478">
        <ele>77.52</ele>
        <time>2014-03-23T07:53:51Z</time>
      </trkpt>
      <trkpt lat="48.40248" lon="2.58485">
        <ele>77.52</ele>
        <time>2014-03-23T07:53:52Z</time>
      </trkpt>
      <trkpt lat="48.40249" lon="2.58491">
        <ele>77.52</ele>
        <time>2014-03-23T07:53:53Z</time>
      </trkpt>
      <trkpt lat="48.40252" lon="2.58545">
        <ele>78</ele>
        <time>2014-03-23T07:54:03Z</time>
      </trkpt>
      <trkpt lat="48.40249" lon="2.58585">
        <ele>78.48</ele>
        <time>2014-03-23T07:54:12Z</time>
      </trkpt>
      <trkpt lat="48.40249" lon="2.58589">
        <ele>78.48</ele>
        <time>2014-03-23T07:54:13Z</time>
      </trkpt>
      <trkpt lat="48.4025" lon="2.58594">
        <ele>78.48</ele>
        <time>2014-03-23T07:54:14Z</time>
      </trkpt>
      <trkpt lat="48.4025" lon="2.58598">
        <ele>78.48</ele>
        <time>2014-03-23T07:54:15Z</time>
      </trkpt>
      <trkpt lat="48.4025" lon="2.58604">
        <ele>78.48</ele>
        <time>2014-03-23T07:54:16Z</time>
      </trkpt>
      <trkpt lat="48.40245" lon="2.58659">
        <ele>78.48</ele>
        <time>2014-03-23T07:54:27Z</time>
      </trkpt>
      <trkpt lat="48.4024" lon="2.58722">
        <ele>78.97</ele>
        <time>2014-03-23T07:54:39Z</time>
      </trkpt>
      <trkpt lat="48.40233" lon="2.58776">
        <ele>79.45</ele>
        <time>2014-03-23T07:54:52Z</time>
      </trkpt>
      <trkpt lat="48.40234" lon="2.58779">
        <ele>79.45</ele>
        <time>2014-03-23T07:54:53Z</time>
      </trkpt>
      <trkpt lat="48.40234" lon="2.58783">
        <ele>79.45</ele>
        <time>2014-03-23T07:54:54Z</time>
      </trkpt>
      <trkpt lat="48.40235" lon="2.58787">
        <ele>79.45</ele>
        <time>2014-03-23T07:54:55Z</time>
      </trkpt>
      <trkpt lat="48.40236" lon="2.58791">
        <ele>79.45</ele>
        <time>2014-03-23T07:54:56Z</time>
      </trkpt>
      <trkpt lat="48.4024" lon="2.58837">
        <ele>80.41</ele>
        <time>2014-03-23T07:55:08Z</time>
      </trkpt>
      <trkpt lat="48.40246" lon="2.58889">
        <ele>81.85</ele>
        <time>2014-03-23T07:55:22Z</time>
      </trkpt>
      <trkpt lat="48.40253" lon="2.58938">
        <ele>82.81</ele>
        <time>2014-03-23T07:55:35Z</time>
      </trkpt>
      <trkpt lat="48.40254" lon="2.58988">
        <ele>83.77</ele>
        <time>2014-03-23T07:55:48Z</time>
      </trkpt>
      <trkpt lat="48.4026" lon="2.59035">
        <ele>84.73</ele>
        <time>2014-03-23T07:56:01Z</time>
      </trkpt>
      <trkpt lat="48.4026" lon="2.59045">
        <ele>84.73</ele>
        <time>2014-03-23T07:56:04Z</time>
      </trkpt>
      <trkpt lat="48.4026" lon="2.59048">
        <ele>84.73</ele>
        <time>2014-03-23T07:56:05Z</time>
      </trkpt>
      <trkpt lat="48.4026" lon="2.59051">
        <ele>84.73</ele>
        <time>2014-03-23T07:56:06Z</time>
      </trkpt>
      <trkpt lat="48.4026" lon="2.59054">
        <ele>85.21</ele>
        <time>2014-03-23T07:56:07Z</time>
      </trkpt>
      <trkpt lat="48.4026" lon="2.59056">
        <ele>85.21</ele>
        <time>2014-03-23T07:56:08Z</time>
      </trkpt>
      <trkpt lat="48.4026" lon="2.59059">
        <ele>85.21</ele>
        <time>2014-03-23T07:56:09Z</time>
      </trkpt>
      <trkpt lat="48.40261" lon="2.59062">
        <ele>85.21</ele>
        <time>2014-03-23T07:56:10Z</time>
      </trkpt>
      <trkpt lat="48.40261" lon="2.59065">
        <ele>85.21</ele>
        <time>2014-03-23T07:56:11Z</time>
      </trkpt>
      <trkpt lat="48.40261" lon="2.59069">
        <ele>85.21</ele>
        <time>2014-03-23T07:56:12Z</time>
      </trkpt>
      <trkpt lat="48.40263" lon="2.59084">
        <ele>85.69</ele>
        <time>2014-03-23T07:56:17Z</time>
      </trkpt>
      <trkpt lat="48.40263" lon="2.59087">
        <ele>85.69</ele>
        <time>2014-03-23T07:56:18Z</time>
      </trkpt>
      <trkpt lat="48.40264" lon="2.591">
        <ele>86.18</ele>
        <time>2014-03-23T07:56:24Z</time>
      </trkpt>
      <trkpt lat="48.40264" lon="2.59103">
        <ele>86.18</ele>
        <time>2014-03-23T07:56:25Z</time>
      </trkpt>
      <trkpt lat="48.40265" lon="2.59106">
        <ele>86.18</ele>
        <time>2014-03-23T07:56:26Z</time>
      </trkpt>
      <trkpt lat="48.40265" lon="2.59109">
        <ele>86.18</ele>
        <time>2014-03-23T07:56:27Z</time>
      </trkpt>
      <trkpt lat="48.40266" lon="2.59111">
        <ele>86.18</ele>
        <time>2014-03-23T07:56:28Z</time>
      </trkpt>
      <trkpt lat="48.40267" lon="2.59144">
        <ele>87.62</ele>
        <time>2014-03-23T07:56:41Z</time>
      </trkpt>
      <trkpt lat="48.40272" lon="2.59172">
        <ele>89.06</ele>
        <time>2014-03-23T07:56:54Z</time>
      </trkpt>
      <trkpt lat="48.40273" lon="2.59183">
        <ele>90.02</ele>
        <time>2014-03-23T07:56:59Z</time>
      </trkpt>
      <trkpt lat="48.40273" lon="2.59185">
        <ele>90.02</ele>
        <time>2014-03-23T07:57:00Z</time>
      </trkpt>
      <trkpt lat="48.40273" lon="2.59213">
        <ele>90.98</ele>
        <time>2014-03-23T07:57:11Z</time>
      </trkpt>
      <trkpt lat="48.40273" lon="2.59215">
        <ele>90.98</ele>
        <time>2014-03-23T07:57:12Z</time>
      </trkpt>
      <trkpt lat="48.40274" lon="2.59218">
        <ele>90.98</ele>
        <time>2014-03-23T07:57:13Z</time>
      </trkpt>
      <trkpt lat="48.40274" lon="2.5922">
        <ele>90.98</ele>
        <time>2014-03-23T07:57:14Z</time>
      </trkpt>
      <trkpt lat="48.40274" lon="2.59223">
        <ele>90.98</ele>
        <time>2014-03-23T07:57:15Z</time>
      </trkpt>
      <trkpt lat="48.40274" lon="2.59226">
        <ele>90.98</ele>
        <time>2014-03-23T07:57:16Z</time>
      </trkpt>
      <trkpt lat="48.40275" lon="2.5923">
        <ele>91.46</ele>
        <time>2014-03-23T07:57:17Z</time>
      </trkpt>
      <trkpt lat="48.40277" lon="2.59258">
        <ele>91.94</ele>
        <time>2014-03-23T07:57:28Z</time>
      </trkpt>
      <trkpt lat="48.40279" lon="2.59272">
        <ele>92.9</ele>
        <time>2014-03-23T07:57:33Z</time>
      </trkpt>
      <trkpt lat="48.40283" lon="2.5931">
        <ele>93.87</ele>
        <time>2014-03-23T07:57:46Z</time>
      </trkpt>
      <trkpt lat="48.40288" lon="2.59349">
        <ele>95.31</ele>
        <time>2014-03-23T07:58:01Z</time>
      </trkpt>
      <trkpt lat="48.40292" lon="2.59382">
        <ele>97.23</ele>
        <time>2014-03-23T07:58:16Z</time>
      </trkpt>
      <trkpt lat="48.40296" lon="2.5942">
        <ele>99.15</ele>
        <time>2014-03-23T07:58:32Z</time>
      </trkpt>
      <trkpt lat="48.40291" lon="2.59445">
        <ele>100.6</ele>
        <time>2014-03-23T07:58:43Z</time>
      </trkpt>
      <trkpt lat="48.40287" lon="2.59457">
        <ele>101.08</ele>
        <time>2014-03-23T07:58:49Z</time>
      </trkpt>
      <trkpt lat="48.40286" lon="2.59459">
        <ele>101.56</ele>
        <time>2014-03-23T07:58:50Z</time>
      </trkpt>
      <trkpt lat="48.40285" lon="2.5946">
        <ele>101.56</ele>
        <time>2014-03-23T07:58:51Z</time>
      </trkpt>
      <trkpt lat="48.40285" lon="2.59462">
        <ele>101.56</ele>
        <time>2014-03-23T07:58:52Z</time>
      </trkpt>
      <trkpt lat="48.40284" lon="2.59464">
        <ele>102.52</ele>
        <time>2014-03-23T07:58:53Z</time>
      </trkpt>
      <trkpt lat="48.40284" lon="2.59466">
        <ele>102.52</ele>
        <time>2014-03-23T07:58:54Z</time>
      </trkpt>
      <trkpt lat="48.40282" lon="2.59479">
        <ele>103.48</ele>
        <time>2014-03-23T07:59:02Z</time>
      </trkpt>
      <trkpt lat="48.40282" lon="2.59481">
        <ele>103.48</ele>
        <time>2014-03-23T07:59:03Z</time>
      </trkpt>
      <trkpt lat="48.40282" lon="2.59483">
        <ele>103.48</ele>
        <time>2014-03-23T07:59:04Z</time>
      </trkpt>
      <trkpt lat="48.40281" lon="2.59507">
        <ele>104.44</ele>
        <time>2014-03-23T07:59:14Z</time>
      </trkpt>
      <trkpt lat="48.4028" lon="2.59516">
        <ele>104.92</ele>
        <time>2014-03-23T07:59:18Z</time>
      </trkpt>
      <trkpt lat="48.4028" lon="2.59518">
        <ele>104.92</ele>
        <time>2014-03-23T07:59:19Z</time>
      </trkpt>
      <trkpt lat="48.4028" lon="2.59521">
        <ele>105.4</ele>
        <time>2014-03-23T07:59:20Z</time>
      </trkpt>
      <trkpt lat="48.40277" lon="2.59546">
        <ele>106.84</ele>
        <time>2014-03-23T07:59:32Z</time>
      </trkpt>
      <trkpt lat="48.40275" lon="2.59553">
        <ele>106.84</ele>
        <time>2014-03-23T07:59:49Z</time>
      </trkpt>
      <trkpt lat="48.40276" lon="2.59576">
        <ele>107.81</ele>
        <time>2014-03-23T08:00:01Z</time>
      </trkpt>
      <trkpt lat="48.40278" lon="2.59612">
        <ele>109.25</ele>
        <time>2014-03-23T08:00:14Z</time>
      </trkpt>
      <trkpt lat="48.40281" lon="2.59648">
        <ele>110.69</ele>
        <time>2014-03-23T08:00:27Z</time>
      </trkpt>
      <trkpt lat="48.40278" lon="2.59675">
        <ele>112.61</ele>
        <time>2014-03-23T08:00:38Z</time>
      </trkpt>
      <trkpt lat="48.40278" lon="2.59677">
        <ele>112.61</ele>
        <time>2014-03-23T08:00:39Z</time>
      </trkpt>
      <trkpt lat="48.40278" lon="2.59679">
        <ele>112.61</ele>
        <time>2014-03-23T08:00:40Z</time>
      </trkpt>
      <trkpt lat="48.40277" lon="2.59681">
        <ele>113.09</ele>
        <time>2014-03-23T08:00:41Z</time>
      </trkpt>
      <trkpt lat="48.40277" lon="2.59683">
        <ele>113.09</ele>
        <time>2014-03-23T08:00:42Z</time>
      </trkpt>
      <trkpt lat="48.40277" lon="2.59686">
        <ele>113.09</ele>
        <time>2014-03-23T08:00:43Z</time>
      </trkpt>
      <trkpt lat="48.40276" lon="2.59688">
        <ele>113.57</ele>
        <time>2014-03-23T08:00:44Z</time>
      </trkpt>
      <trkpt lat="48.40276" lon="2.5969">
        <ele>113.57</ele>
        <time>2014-03-23T08:00:45Z</time>
      </trkpt>
      <trkpt lat="48.40275" lon="2.59693">
        <ele>113.57</ele>
        <time>2014-03-23T08:00:46Z</time>
      </trkpt>
      <trkpt lat="48.40271" lon="2.59727">
        <ele>115.01</ele>
        <time>2014-03-23T08:01:00Z</time>
      </trkpt>
      <trkpt lat="48.40261" lon="2.59752">
        <ele>115.98</ele>
        <time>2014-03-23T08:01:13Z</time>
      </trkpt>
      <trkpt lat="48.40258" lon="2.59766">
        <ele>116.46</ele>
        <time>2014-03-23T08:01:26Z</time>
      </trkpt>
      <trkpt lat="48.40248" lon="2.59786">
        <ele>117.9</ele>
        <time>2014-03-23T08:01:42Z</time>
      </trkpt>
      <trkpt lat="48.40247" lon="2.59789">
        <ele>117.9</ele>
        <time>2014-03-23T08:01:44Z</time>
      </trkpt>
      <trkpt lat="48.40245" lon="2.59813">
        <ele>118.86</ele>
        <time>2014-03-23T08:01:57Z</time>
      </trkpt>
      <trkpt lat="48.40246" lon="2.59872">
        <ele>120.3</ele>
        <time>2014-03-23T08:02:11Z</time>
      </trkpt>
      <trkpt lat="48.40238" lon="2.59946">
        <ele>121.74</ele>
        <time>2014-03-23T08:02:27Z</time>
      </trkpt>
      <trkpt lat="48.40229" lon="2.60007">
        <ele>122.71</ele>
        <time>2014-03-23T08:02:44Z</time>
      </trkpt>
      <trkpt lat="48.40224" lon="2.60055">
        <ele>124.15</ele>
        <time>2014-03-23T08:02:58Z</time>
      </trkpt>
      <trkpt lat="48.40221" lon="2.6008">
        <ele>125.59</ele>
        <time>2014-03-23T08:03:06Z</time>
      </trkpt>
      <trkpt lat="48.40222" lon="2.60083">
        <ele>125.59</ele>
        <time>2014-03-23T08:03:07Z</time>
      </trkpt>
      <trkpt lat="48.40229" lon="2.6013">
        <ele>126.55</ele>
        <time>2014-03-23T08:03:20Z</time>
      </trkpt>
      <trkpt lat="48.4023" lon="2.60178">
        <ele>127.99</ele>
        <time>2014-03-23T08:03:33Z</time>
      </trkpt>
      <trkpt lat="48.40229" lon="2.60196">
        <ele>127.99</ele>
        <time>2014-03-23T08:03:38Z</time>
      </trkpt>
      <trkpt lat="48.40228" lon="2.60198">
        <ele>127.99</ele>
        <time>2014-03-23T08:03:39Z</time>
      </trkpt>
      <trkpt lat="48.40226" lon="2.602">
        <ele>127.99</ele>
        <time>2014-03-23T08:03:40Z</time>
      </trkpt>
      <trkpt lat="48.40193" lon="2.6022">
        <ele>128.47</ele>
        <time>2014-03-23T08:03:53Z</time>
      </trkpt>
      <trkpt lat="48.40151" lon="2.60238">
        <ele>130.4</ele>
        <time>2014-03-23T08:04:08Z</time>
      </trkpt>
      <trkpt lat="48.40113" lon="2.60255">
        <ele>129.43</ele>
        <time>2014-03-23T08:04:20Z</time>
      </trkpt>
      <trkpt lat="48.40093" lon="2.60262">
        <ele>128.47</ele>
        <time>2014-03-23T08:04:26Z</time>
      </trkpt>
      <trkpt lat="48.40084" lon="2.60265">
        <ele>128.47</ele>
        <time>2014-03-23T08:04:28Z</time>
      </trkpt>
      <trkpt lat="48.40079" lon="2.60265">
        <ele>128.47</ele>
        <time>2014-03-23T08:04:29Z</time>
      </trkpt>
      <trkpt lat="48.4007" lon="2.60268">
        <ele>127.99</ele>
        <time>2014-03-23T08:04:31Z</time>
      </trkpt>
      <trkpt lat="48.40065" lon="2.60271">
        <ele>127.99</ele>
        <time>2014-03-23T08:04:32Z</time>
      </trkpt>
      <trkpt lat="48.40048" lon="2.60283">
        <ele>124.63</ele>
        <time>2014-03-23T08:04:35Z</time>
      </trkpt>
      <trkpt lat="48.40026" lon="2.60306">
        <ele>122.22</ele>
        <time>2014-03-23T08:04:39Z</time>
      </trkpt>
      <trkpt lat="48.40012" lon="2.60327">
        <ele>120.3</ele>
        <time>2014-03-23T08:04:42Z</time>
      </trkpt>
      <trkpt lat="48.40008" lon="2.60336">
        <ele>119.82</ele>
        <time>2014-03-23T08:04:43Z</time>
      </trkpt>
      <trkpt lat="48.40005" lon="2.60345">
        <ele>119.82</ele>
        <time>2014-03-23T08:04:44Z</time>
      </trkpt>
      <trkpt lat="48.40001" lon="2.60362">
        <ele>119.34</ele>
        <time>2014-03-23T08:04:46Z</time>
      </trkpt>
      <trkpt lat="48.39992" lon="2.60396">
        <ele>118.38</ele>
        <time>2014-03-23T08:04:50Z</time>
      </trkpt>
      <trkpt lat="48.3999" lon="2.60404">
        <ele>118.38</ele>
        <time>2014-03-23T08:04:51Z</time>
      </trkpt>
      <trkpt lat="48.39985" lon="2.6043">
        <ele>117.42</ele>
        <time>2014-03-23T08:04:54Z</time>
      </trkpt>
      <trkpt lat="48.39983" lon="2.60439">
        <ele>117.42</ele>
        <time>2014-03-23T08:04:55Z</time>
      </trkpt>
      <trkpt lat="48.3998" lon="2.60446">
        <ele>116.94</ele>
        <time>2014-03-23T08:04:56Z</time>
      </trkpt>
      <trkpt lat="48.39976" lon="2.60449">
        <ele>116.94</ele>
        <time>2014-03-23T08:04:57Z</time>
      </trkpt>
      <trkpt lat="48.39972" lon="2.60449">
        <ele>116.94</ele>
        <time>2014-03-23T08:04:58Z</time>
      </trkpt>
      <trkpt lat="48.39967" lon="2.60447">
        <ele>116.94</ele>
        <time>2014-03-23T08:04:59Z</time>
      </trkpt>
      <trkpt lat="48.39962" lon="2.60445">
        <ele>116.94</ele>
        <time>2014-03-23T08:05:00Z</time>
      </trkpt>
      <trkpt lat="48.39958" lon="2.60442">
        <ele>116.94</ele>
        <time>2014-03-23T08:05:01Z</time>
      </trkpt>
      <trkpt lat="48.3992" lon="2.60416">
        <ele>116.46</ele>
        <time>2014-03-23T08:05:09Z</time>
      </trkpt>
      <trkpt lat="48.39911" lon="2.60409">
        <ele>116.46</ele>
        <time>2014-03-23T08:05:11Z</time>
      </trkpt>
      <trkpt lat="48.39906" lon="2.60408">
        <ele>116.46</ele>
        <time>2014-03-23T08:05:12Z</time>
      </trkpt>
      <trkpt lat="48.39878" lon="2.60407">
        <ele>116.46</ele>
        <time>2014-03-23T08:05:19Z</time>
      </trkpt>
      <trkpt lat="48.39874" lon="2.60406">
        <ele>115.5</ele>
        <time>2014-03-23T08:05:20Z</time>
      </trkpt>
      <trkpt lat="48.39871" lon="2.60402">
        <ele>115.5</ele>
        <time>2014-03-23T08:05:21Z</time>
      </trkpt>
      <trkpt lat="48.39869" lon="2.60398">
        <ele>115.5</ele>
        <time>2014-03-23T08:05:22Z</time>
      </trkpt>
      <trkpt lat="48.39866" lon="2.60393">
        <ele>115.98</ele>
        <time>2014-03-23T08:05:23Z</time>
      </trkpt>
      <trkpt lat="48.39861" lon="2.60382">
        <ele>115.98</ele>
        <time>2014-03-23T08:05:25Z</time>
      </trkpt>
      <trkpt lat="48.39844" lon="2.60341">
        <ele>115.98</ele>
        <time>2014-03-23T08:05:31Z</time>
      </trkpt>
      <trkpt lat="48.39838" lon="2.6033">
        <ele>115.98</ele>
        <time>2014-03-23T08:05:33Z</time>
      </trkpt>
      <trkpt lat="48.39834" lon="2.60325">
        <ele>115.98</ele>
        <time>2014-03-23T08:05:34Z</time>
      </trkpt>
      <trkpt lat="48.39832" lon="2.6032">
        <ele>115.98</ele>
        <time>2014-03-23T08:05:35Z</time>
      </trkpt>
      <trkpt lat="48.3983" lon="2.60313">
        <ele>115.5</ele>
        <time>2014-03-23T08:05:36Z</time>
      </trkpt>
      <trkpt lat="48.39827" lon="2.60307">
        <ele>115.5</ele>
        <time>2014-03-23T08:05:37Z</time>
      </trkpt>
      <trkpt lat="48.39822" lon="2.60295">
        <ele>115.5</ele>
        <time>2014-03-23T08:05:39Z</time>
      </trkpt>
      <trkpt lat="48.39819" lon="2.60289">
        <ele>115.5</ele>
        <time>2014-03-23T08:05:40Z</time>
      </trkpt>
      <trkpt lat="48.39816" lon="2.60284">
        <ele>115.5</ele>
        <time>2014-03-23T08:05:41Z</time>
      </trkpt>
      <trkpt lat="48.39813" lon="2.60279">
        <ele>115.5</ele>
        <time>2014-03-23T08:05:42Z</time>
      </trkpt>
      <trkpt lat="48.39811" lon="2.60275">
        <ele>116.94</ele>
        <time>2014-03-23T08:05:43Z</time>
      </trkpt>
      <trkpt lat="48.3981" lon="2.60269">
        <ele>116.94</ele>
        <time>2014-03-23T08:05:44Z</time>
      </trkpt>
      <trkpt lat="48.39801" lon="2.60249">
        <ele>115.5</ele>
        <time>2014-03-23T08:05:48Z</time>
      </trkpt>
      <trkpt lat="48.39795" lon="2.60231">
        <ele>115.01</ele>
        <time>2014-03-23T08:05:51Z</time>
      </trkpt>
      <trkpt lat="48.39794" lon="2.60224">
        <ele>114.53</ele>
        <time>2014-03-23T08:05:52Z</time>
      </trkpt>
      <trkpt lat="48.39795" lon="2.60218">
        <ele>114.53</ele>
        <time>2014-03-23T08:05:53Z</time>
      </trkpt>
      <trkpt lat="48.39811" lon="2.60123">
        <ele>114.53</ele>
        <time>2014-03-23T08:06:07Z</time>
      </trkpt>
      <trkpt lat="48.39815" lon="2.60093">
        <ele>114.05</ele>
        <time>2014-03-23T08:06:12Z</time>
      </trkpt>
      <trkpt lat="48.39828" lon="2.60017">
        <ele>114.05</ele>
        <time>2014-03-23T08:06:25Z</time>
      </trkpt>
      <trkpt lat="48.39844" lon="2.59976">
        <ele>115.01</ele>
        <time>2014-03-23T08:06:35Z</time>
      </trkpt>
      <trkpt lat="48.39868" lon="2.5993">
        <ele>115.98</ele>
        <time>2014-03-23T08:06:47Z</time>
      </trkpt>
      <trkpt lat="48.39887" lon="2.59895">
        <ele>116.94</ele>
        <time>2014-03-23T08:06:57Z</time>
      </trkpt>
      <trkpt lat="48.39903" lon="2.5986">
        <ele>117.42</ele>
        <time>2014-03-23T08:07:06Z</time>
      </trkpt>
      <trkpt lat="48.39904" lon="2.59855">
        <ele>117.42</ele>
        <time>2014-03-23T08:07:07Z</time>
      </trkpt>
      <trkpt lat="48.39899" lon="2.59803">
        <ele>117.42</ele>
        <time>2014-03-23T08:07:18Z</time>
      </trkpt>
      <trkpt lat="48.39893" lon="2.59772">
        <ele>115.98</ele>
        <time>2014-03-23T08:07:23Z</time>
      </trkpt>
      <trkpt lat="48.39889" lon="2.59695">
        <ele>115.01</ele>
        <time>2014-03-23T08:07:33Z</time>
      </trkpt>
      <trkpt lat="48.39889" lon="2.59687">
        <ele>115.01</ele>
        <time>2014-03-23T08:07:34Z</time>
      </trkpt>
      <trkpt lat="48.39882" lon="2.59599">
        <ele>114.53</ele>
        <time>2014-03-23T08:07:46Z</time>
      </trkpt>
      <trkpt lat="48.3988" lon="2.5956">
        <ele>114.05</ele>
        <time>2014-03-23T08:07:51Z</time>
      </trkpt>
      <trkpt lat="48.3988" lon="2.59493">
        <ele>113.57</ele>
        <time>2014-03-23T08:08:02Z</time>
      </trkpt>
      <trkpt lat="48.39881" lon="2.59476">
        <ele>113.57</ele>
        <time>2014-03-23T08:08:05Z</time>
      </trkpt>
      <trkpt lat="48.39883" lon="2.59472">
        <ele>113.57</ele>
        <time>2014-03-23T08:08:06Z</time>
      </trkpt>
      <trkpt lat="48.39885" lon="2.59468">
        <ele>113.57</ele>
        <time>2014-03-23T08:08:07Z</time>
      </trkpt>
      <trkpt lat="48.39888" lon="2.59464">
        <ele>113.57</ele>
        <time>2014-03-23T08:08:08Z</time>
      </trkpt>
      <trkpt lat="48.39891" lon="2.59462">
        <ele>113.57</ele>
        <time>2014-03-23T08:08:09Z</time>
      </trkpt>
      <trkpt lat="48.39894" lon="2.5946">
        <ele>113.57</ele>
        <time>2014-03-23T08:08:10Z</time>
      </trkpt>
      <trkpt lat="48.39896" lon="2.59459">
        <ele>113.57</ele>
        <time>2014-03-23T08:08:11Z</time>
      </trkpt>
      <trkpt lat="48.39899" lon="2.59459">
        <ele>113.57</ele>
        <time>2014-03-23T08:08:12Z</time>
      </trkpt>
      <trkpt lat="48.39901" lon="2.59458">
        <ele>113.57</ele>
        <time>2014-03-23T08:08:13Z</time>
      </trkpt>
      <trkpt lat="48.39909" lon="2.59456">
        <ele>115.01</ele>
        <time>2014-03-23T08:08:16Z</time>
      </trkpt>
      <trkpt lat="48.39935" lon="2.5945">
        <ele>117.42</ele>
        <time>2014-03-23T08:08:28Z</time>
      </trkpt>
      <trkpt lat="48.39942" lon="2.59446">
        <ele>117.9</ele>
        <time>2014-03-23T08:08:32Z</time>
      </trkpt>
      <trkpt lat="48.39943" lon="2.59444">
        <ele>118.86</ele>
        <time>2014-03-23T08:08:33Z</time>
      </trkpt>
      <trkpt lat="48.39944" lon="2.59441">
        <ele>118.38</ele>
        <time>2014-03-23T08:08:34Z</time>
      </trkpt>
      <trkpt lat="48.39945" lon="2.59439">
        <ele>118.38</ele>
        <time>2014-03-23T08:08:35Z</time>
      </trkpt>
      <trkpt lat="48.39944" lon="2.59436">
        <ele>118.38</ele>
        <time>2014-03-23T08:08:36Z</time>
      </trkpt>
      <trkpt lat="48.39944" lon="2.59433">
        <ele>118.86</ele>
        <time>2014-03-23T08:08:37Z</time>
      </trkpt>
      <trkpt lat="48.39943" lon="2.5943">
        <ele>119.34</ele>
        <time>2014-03-23T08:08:38Z</time>
      </trkpt>
      <trkpt lat="48.39943" lon="2.59428">
        <ele>119.34</ele>
        <time>2014-03-23T08:08:39Z</time>
      </trkpt>
      <trkpt lat="48.39944" lon="2.59425">
        <ele>119.34</ele>
        <time>2014-03-23T08:08:40Z</time>
      </trkpt>
      <trkpt lat="48.39944" lon="2.59423">
        <ele>119.82</ele>
        <time>2014-03-23T08:08:41Z</time>
      </trkpt>
      <trkpt lat="48.39944" lon="2.5942">
        <ele>119.82</ele>
        <time>2014-03-23T08:08:42Z</time>
      </trkpt>
      <trkpt lat="48.39943" lon="2.59417">
        <ele>120.78</ele>
        <time>2014-03-23T08:08:44Z</time>
      </trkpt>
      <trkpt lat="48.39943" lon="2.59414">
        <ele>121.26</ele>
        <time>2014-03-23T08:08:46Z</time>
      </trkpt>
      <trkpt lat="48.39937" lon="2.59391">
        <ele>122.71</ele>
        <time>2014-03-23T08:09:01Z</time>
      </trkpt>
      <trkpt lat="48.39935" lon="2.59381">
        <ele>122.71</ele>
        <time>2014-03-23T08:09:22Z</time>
      </trkpt>
      <trkpt lat="48.39931" lon="2.59342">
        <ele>123.67</ele>
        <time>2014-03-23T08:09:33Z</time>
      </trkpt>
      <trkpt lat="48.39941" lon="2.59292">
        <ele>123.67</ele>
        <time>2014-03-23T08:09:43Z</time>
      </trkpt>
      <trkpt lat="48.39942" lon="2.59284">
        <ele>123.67</ele>
        <time>2014-03-23T08:09:44Z</time>
      </trkpt>
      <trkpt lat="48.39942" lon="2.59275">
        <ele>121.74</ele>
        <time>2014-03-23T08:09:45Z</time>
      </trkpt>
      <trkpt lat="48.39941" lon="2.59264">
        <ele>120.78</ele>
        <time>2014-03-23T08:09:46Z</time>
      </trkpt>
      <trkpt lat="48.39939" lon="2.59253">
        <ele>119.34</ele>
        <time>2014-03-23T08:09:47Z</time>
      </trkpt>
      <trkpt lat="48.39938" lon="2.59241">
        <ele>117.42</ele>
        <time>2014-03-23T08:09:48Z</time>
      </trkpt>
      <trkpt lat="48.39933" lon="2.59208">
        <ele>115.98</ele>
        <time>2014-03-23T08:09:51Z</time>
      </trkpt>
      <trkpt lat="48.39931" lon="2.59198">
        <ele>115.01</ele>
        <time>2014-03-23T08:09:52Z</time>
      </trkpt>
      <trkpt lat="48.39929" lon="2.59189">
        <ele>114.05</ele>
        <time>2014-03-23T08:09:53Z</time>
      </trkpt>
      <trkpt lat="48.39926" lon="2.5918">
        <ele>114.05</ele>
        <time>2014-03-23T08:09:54Z</time>
      </trkpt>
      <trkpt lat="48.39924" lon="2.59171">
        <ele>112.61</ele>
        <time>2014-03-23T08:09:55Z</time>
      </trkpt>
      <trkpt lat="48.39923" lon="2.59162">
        <ele>112.61</ele>
        <time>2014-03-23T08:09:56Z</time>
      </trkpt>
      <trkpt lat="48.39922" lon="2.59152">
        <ele>112.13</ele>
        <time>2014-03-23T08:09:57Z</time>
      </trkpt>
      <trkpt lat="48.39921" lon="2.59143">
        <ele>112.13</ele>
        <time>2014-03-23T08:09:58Z</time>
      </trkpt>
      <trkpt lat="48.39921" lon="2.59134">
        <ele>111.17</ele>
        <time>2014-03-23T08:09:59Z</time>
      </trkpt>
      <trkpt lat="48.39921" lon="2.59125">
        <ele>110.69</ele>
        <time>2014-03-23T08:10:00Z</time>
      </trkpt>
      <trkpt lat="48.39923" lon="2.59116">
        <ele>110.69</ele>
        <time>2014-03-23T08:10:01Z</time>
      </trkpt>
      <trkpt lat="48.39925" lon="2.59108">
        <ele>110.21</ele>
        <time>2014-03-23T08:10:02Z</time>
      </trkpt>
      <trkpt lat="48.39927" lon="2.591">
        <ele>109.25</ele>
        <time>2014-03-23T08:10:03Z</time>
      </trkpt>
      <trkpt lat="48.3993" lon="2.59092">
        <ele>109.25</ele>
        <time>2014-03-23T08:10:04Z</time>
      </trkpt>
      <trkpt lat="48.39932" lon="2.59086">
        <ele>109.25</ele>
        <time>2014-03-23T08:10:05Z</time>
      </trkpt>
      <trkpt lat="48.39933" lon="2.59079">
        <ele>109.25</ele>
        <time>2014-03-23T08:10:06Z</time>
      </trkpt>
      <trkpt lat="48.39932" lon="2.59072">
        <ele>109.73</ele>
        <time>2014-03-23T08:10:07Z</time>
      </trkpt>
      <trkpt lat="48.3993" lon="2.59064">
        <ele>109.73</ele>
        <time>2014-03-23T08:10:08Z</time>
      </trkpt>
      <trkpt lat="48.39927" lon="2.59057">
        <ele>109.73</ele>
        <time>2014-03-23T08:10:09Z</time>
      </trkpt>
      <trkpt lat="48.39924" lon="2.59051">
        <ele>109.73</ele>
        <time>2014-03-23T08:10:10Z</time>
      </trkpt>
      <trkpt lat="48.39917" lon="2.59031">
        <ele>112.13</ele>
        <time>2014-03-23T08:10:13Z</time>
      </trkpt>
      <trkpt lat="48.39909" lon="2.59012">
        <ele>114.05</ele>
        <time>2014-03-23T08:10:16Z</time>
      </trkpt>
      <trkpt lat="48.39907" lon="2.59005">
        <ele>114.53</ele>
        <time>2014-03-23T08:10:17Z</time>
      </trkpt>
      <trkpt lat="48.39905" lon="2.58999">
        <ele>114.53</ele>
        <time>2014-03-23T08:10:18Z</time>
      </trkpt>
      <trkpt lat="48.39902" lon="2.58994">
        <ele>115.5</ele>
        <time>2014-03-23T08:10:19Z</time>
      </trkpt>
      <trkpt lat="48.399" lon="2.5899">
        <ele>115.98</ele>
        <time>2014-03-23T08:10:20Z</time>
      </trkpt>
      <trkpt lat="48.39897" lon="2.58987">
        <ele>115.98</ele>
        <time>2014-03-23T08:10:21Z</time>
      </trkpt>
      <trkpt lat="48.39894" lon="2.58986">
        <ele>115.98</ele>
        <time>2014-03-23T08:10:22Z</time>
      </trkpt>
      <trkpt lat="48.39887" lon="2.58987">
        <ele>116.46</ele>
        <time>2014-03-23T08:10:24Z</time>
      </trkpt>
      <trkpt lat="48.39884" lon="2.58989">
        <ele>116.46</ele>
        <time>2014-03-23T08:10:25Z</time>
      </trkpt>
      <trkpt lat="48.3988" lon="2.58991">
        <ele>116.46</ele>
        <time>2014-03-23T08:10:26Z</time>
      </trkpt>
      <trkpt lat="48.39875" lon="2.58993">
        <ele>115.01</ele>
        <time>2014-03-23T08:10:27Z</time>
      </trkpt>
      <trkpt lat="48.3987" lon="2.58995">
        <ele>114.53</ele>
        <time>2014-03-23T08:10:28Z</time>
      </trkpt>
      <trkpt lat="48.39864" lon="2.58998">
        <ele>113.57</ele>
        <time>2014-03-23T08:10:29Z</time>
      </trkpt>
      <trkpt lat="48.39858" lon="2.59001">
        <ele>113.57</ele>
        <time>2014-03-23T08:10:30Z</time>
      </trkpt>
      <trkpt lat="48.39853" lon="2.59003">
        <ele>113.09</ele>
        <time>2014-03-23T08:10:31Z</time>
      </trkpt>
      <trkpt lat="48.39849" lon="2.59002">
        <ele>112.61</ele>
        <time>2014-03-23T08:10:32Z</time>
      </trkpt>
      <trkpt lat="48.39845" lon="2.58998">
        <ele>111.65</ele>
        <time>2014-03-23T08:10:33Z</time>
      </trkpt>
      <trkpt lat="48.39842" lon="2.5899">
        <ele>111.65</ele>
        <time>2014-03-23T08:10:34Z</time>
      </trkpt>
      <trkpt lat="48.3984" lon="2.58981">
        <ele>109.73</ele>
        <time>2014-03-23T08:10:35Z</time>
      </trkpt>
      <trkpt lat="48.3984" lon="2.58971">
        <ele>109.25</ele>
        <time>2014-03-23T08:10:36Z</time>
      </trkpt>
      <trkpt lat="48.39839" lon="2.58959">
        <ele>107.81</ele>
        <time>2014-03-23T08:10:37Z</time>
      </trkpt>
      <trkpt lat="48.39837" lon="2.58947">
        <ele>105.88</ele>
        <time>2014-03-23T08:10:38Z</time>
      </trkpt>
      <trkpt lat="48.39835" lon="2.58935">
        <ele>105.4</ele>
        <time>2014-03-23T08:10:39Z</time>
      </trkpt>
      <trkpt lat="48.39832" lon="2.58923">
        <ele>103.96</ele>
        <time>2014-03-23T08:10:40Z</time>
      </trkpt>
      <trkpt lat="48.39826" lon="2.58904">
        <ele>102.52</ele>
        <time>2014-03-23T08:10:42Z</time>
      </trkpt>
      <trkpt lat="48.39822" lon="2.58896">
        <ele>102.04</ele>
        <time>2014-03-23T08:10:43Z</time>
      </trkpt>
      <trkpt lat="48.39818" lon="2.58891">
        <ele>101.08</ele>
        <time>2014-03-23T08:10:44Z</time>
      </trkpt>
      <trkpt lat="48.39812" lon="2.58888">
        <ele>100.6</ele>
        <time>2014-03-23T08:10:45Z</time>
      </trkpt>
      <trkpt lat="48.39806" lon="2.58887">
        <ele>100.6</ele>
        <time>2014-03-23T08:10:46Z</time>
      </trkpt>
      <trkpt lat="48.39794" lon="2.58882">
        <ele>99.63</ele>
        <time>2014-03-23T08:10:48Z</time>
      </trkpt>
      <trkpt lat="48.39789" lon="2.58879">
        <ele>98.67</ele>
        <time>2014-03-23T08:10:49Z</time>
      </trkpt>
      <trkpt lat="48.39783" lon="2.58878">
        <ele>97.71</ele>
        <time>2014-03-23T08:10:50Z</time>
      </trkpt>
      <trkpt lat="48.39776" lon="2.58877">
        <ele>97.23</ele>
        <time>2014-03-23T08:10:51Z</time>
      </trkpt>
      <trkpt lat="48.39771" lon="2.58875">
        <ele>96.75</ele>
        <time>2014-03-23T08:10:52Z</time>
      </trkpt>
      <trkpt lat="48.39766" lon="2.58872">
        <ele>96.27</ele>
        <time>2014-03-23T08:10:53Z</time>
      </trkpt>
      <trkpt lat="48.39761" lon="2.58867">
        <ele>95.79</ele>
        <time>2014-03-23T08:10:54Z</time>
      </trkpt>
      <trkpt lat="48.39745" lon="2.58852">
        <ele>94.83</ele>
        <time>2014-03-23T08:10:57Z</time>
      </trkpt>
      <trkpt lat="48.39739" lon="2.58848">
        <ele>93.39</ele>
        <time>2014-03-23T08:10:58Z</time>
      </trkpt>
      <trkpt lat="48.39733" lon="2.58847">
        <ele>93.39</ele>
        <time>2014-03-23T08:10:59Z</time>
      </trkpt>
      <trkpt lat="48.39726" lon="2.58847">
        <ele>93.39</ele>
        <time>2014-03-23T08:11:00Z</time>
      </trkpt>
      <trkpt lat="48.39719" lon="2.58848">
        <ele>91.94</ele>
        <time>2014-03-23T08:11:01Z</time>
      </trkpt>
      <trkpt lat="48.39711" lon="2.58849">
        <ele>90.02</ele>
        <time>2014-03-23T08:11:02Z</time>
      </trkpt>
      <trkpt lat="48.39703" lon="2.58851">
        <ele>89.06</ele>
        <time>2014-03-23T08:11:03Z</time>
      </trkpt>
      <trkpt lat="48.39662" lon="2.58865">
        <ele>86.18</ele>
        <time>2014-03-23T08:11:09Z</time>
      </trkpt>
      <trkpt lat="48.39659" lon="2.5887">
        <ele>86.18</ele>
        <time>2014-03-23T08:11:10Z</time>
      </trkpt>
      <trkpt lat="48.39658" lon="2.58876">
        <ele>86.18</ele>
        <time>2014-03-23T08:11:11Z</time>
      </trkpt>
      <trkpt lat="48.39657" lon="2.58884">
        <ele>85.69</ele>
        <time>2014-03-23T08:11:12Z</time>
      </trkpt>
      <trkpt lat="48.39657" lon="2.58891">
        <ele>85.69</ele>
        <time>2014-03-23T08:11:13Z</time>
      </trkpt>
      <trkpt lat="48.39655" lon="2.589">
        <ele>85.69</ele>
        <time>2014-03-23T08:11:14Z</time>
      </trkpt>
      <trkpt lat="48.39653" lon="2.58908">
        <ele>85.69</ele>
        <time>2014-03-23T08:11:15Z</time>
      </trkpt>
      <trkpt lat="48.39652" lon="2.58917">
        <ele>85.69</ele>
        <time>2014-03-23T08:11:16Z</time>
      </trkpt>
      <trkpt lat="48.39651" lon="2.58927">
        <ele>85.69</ele>
        <time>2014-03-23T08:11:17Z</time>
      </trkpt>
      <trkpt lat="48.39647" lon="2.58965">
        <ele>85.69</ele>
        <time>2014-03-23T08:11:21Z</time>
      </trkpt>
      <trkpt lat="48.39645" lon="2.58994">
        <ele>85.69</ele>
        <time>2014-03-23T08:11:24Z</time>
      </trkpt>
      <trkpt lat="48.39645" lon="2.59004">
        <ele>85.69</ele>
        <time>2014-03-23T08:11:25Z</time>
      </trkpt>
      <trkpt lat="48.39644" lon="2.59012">
        <ele>85.69</ele>
        <time>2014-03-23T08:11:26Z</time>
      </trkpt>
      <trkpt lat="48.39639" lon="2.59046">
        <ele>85.69</ele>
        <time>2014-03-23T08:11:30Z</time>
      </trkpt>
      <trkpt lat="48.39639" lon="2.59055">
        <ele>85.69</ele>
        <time>2014-03-23T08:11:31Z</time>
      </trkpt>
      <trkpt lat="48.39639" lon="2.59063">
        <ele>85.69</ele>
        <time>2014-03-23T08:11:32Z</time>
      </trkpt>
      <trkpt lat="48.39638" lon="2.59088">
        <ele>85.69</ele>
        <time>2014-03-23T08:11:35Z</time>
      </trkpt>
      <trkpt lat="48.39628" lon="2.59167">
        <ele>85.69</ele>
        <time>2014-03-23T08:11:48Z</time>
      </trkpt>
      <trkpt lat="48.39622" lon="2.59238">
        <ele>85.69</ele>
        <time>2014-03-23T08:12:02Z</time>
      </trkpt>
      <trkpt lat="48.39612" lon="2.59289">
        <ele>87.14</ele>
        <time>2014-03-23T08:12:13Z</time>
      </trkpt>
      <trkpt lat="48.39599" lon="2.59358">
        <ele>87.14</ele>
        <time>2014-03-23T08:12:27Z</time>
      </trkpt>
      <trkpt lat="48.39587" lon="2.59419">
        <ele>87.62</ele>
        <time>2014-03-23T08:12:40Z</time>
      </trkpt>
      <trkpt lat="48.39577" lon="2.59487">
        <ele>87.62</ele>
        <time>2014-03-23T08:12:53Z</time>
      </trkpt>
      <trkpt lat="48.39571" lon="2.59545">
        <ele>87.62</ele>
        <time>2014-03-23T08:13:05Z</time>
      </trkpt>
      <trkpt lat="48.39556" lon="2.59622">
        <ele>88.58</ele>
        <time>2014-03-23T08:13:21Z</time>
      </trkpt>
      <trkpt lat="48.39551" lon="2.59685">
        <ele>88.58</ele>
        <time>2014-03-23T08:13:33Z</time>
      </trkpt>
      <trkpt lat="48.39539" lon="2.59765">
        <ele>89.54</ele>
        <time>2014-03-23T08:13:48Z</time>
      </trkpt>
      <trkpt lat="48.39529" lon="2.5983">
        <ele>89.54</ele>
        <time>2014-03-23T08:14:00Z</time>
      </trkpt>
      <trkpt lat="48.3952" lon="2.59882">
        <ele>89.54</ele>
        <time>2014-03-23T08:14:10Z</time>
      </trkpt>
      <trkpt lat="48.39515" lon="2.59959">
        <ele>90.02</ele>
        <time>2014-03-23T08:14:24Z</time>
      </trkpt>
      <trkpt lat="48.39507" lon="2.59976">
        <ele>90.02</ele>
        <time>2014-03-23T08:14:29Z</time>
      </trkpt>
      <trkpt lat="48.39505" lon="2.59976">
        <ele>90.02</ele>
        <time>2014-03-23T08:14:30Z</time>
      </trkpt>
      <trkpt lat="48.39496" lon="2.59975">
        <ele>90.5</ele>
        <time>2014-03-23T08:14:42Z</time>
      </trkpt>
      <trkpt lat="48.39498" lon="2.59981">
        <ele>90.5</ele>
        <time>2014-03-23T08:15:04Z</time>
      </trkpt>
      <trkpt lat="48.39485" lon="2.59973">
        <ele>90.98</ele>
        <time>2014-03-23T08:15:22Z</time>
      </trkpt>
      <trkpt lat="48.3946" lon="2.59958">
        <ele>91.46</ele>
        <time>2014-03-23T08:15:36Z</time>
      </trkpt>
      <trkpt lat="48.39438" lon="2.59944">
        <ele>92.9</ele>
        <time>2014-03-23T08:15:49Z</time>
      </trkpt>
      <trkpt lat="48.3942" lon="2.59934">
        <ele>94.35</ele>
        <time>2014-03-23T08:16:02Z</time>
      </trkpt>
      <trkpt lat="48.39406" lon="2.59922">
        <ele>95.31</ele>
        <time>2014-03-23T08:16:15Z</time>
      </trkpt>
      <trkpt lat="48.3938" lon="2.59909">
        <ele>97.23</ele>
        <time>2014-03-23T08:16:32Z</time>
      </trkpt>
      <trkpt lat="48.39379" lon="2.59908">
        <ele>97.23</ele>
        <time>2014-03-23T08:16:33Z</time>
      </trkpt>
      <trkpt lat="48.39377" lon="2.59907">
        <ele>97.71</ele>
        <time>2014-03-23T08:16:34Z</time>
      </trkpt>
      <trkpt lat="48.39355" lon="2.59893">
        <ele>99.15</ele>
        <time>2014-03-23T08:16:49Z</time>
      </trkpt>
      <trkpt lat="48.39334" lon="2.59879">
        <ele>101.56</ele>
        <time>2014-03-23T08:17:04Z</time>
      </trkpt>
      <trkpt lat="48.39313" lon="2.59867">
        <ele>103.48</ele>
        <time>2014-03-23T08:17:18Z</time>
      </trkpt>
      <trkpt lat="48.39292" lon="2.59856">
        <ele>106.84</ele>
        <time>2014-03-23T08:17:29Z</time>
      </trkpt>
      <trkpt lat="48.3928" lon="2.59851">
        <ele>108.77</ele>
        <time>2014-03-23T08:17:40Z</time>
      </trkpt>
      <trkpt lat="48.39272" lon="2.5985">
        <ele>112.13</ele>
        <time>2014-03-23T08:17:55Z</time>
      </trkpt>
      <trkpt lat="48.39261" lon="2.59849">
        <ele>115.01</ele>
        <time>2014-03-23T08:18:11Z</time>
      </trkpt>
      <trkpt lat="48.39253" lon="2.59848">
        <ele>116.46</ele>
        <time>2014-03-23T08:18:26Z</time>
      </trkpt>
      <trkpt lat="48.39246" lon="2.59846">
        <ele>117.42</ele>
        <time>2014-03-23T08:18:36Z</time>
      </trkpt>
      <trkpt lat="48.39245" lon="2.59847">
        <ele>117.42</ele>
        <time>2014-03-23T08:18:37Z</time>
      </trkpt>
      <trkpt lat="48.39242" lon="2.59847">
        <ele>117.9</ele>
        <time>2014-03-23T08:18:39Z</time>
      </trkpt>
      <trkpt lat="48.39241" lon="2.59847">
        <ele>117.9</ele>
        <time>2014-03-23T08:18:40Z</time>
      </trkpt>
      <trkpt lat="48.39239" lon="2.59846">
        <ele>117.9</ele>
        <time>2014-03-23T08:18:41Z</time>
      </trkpt>
      <trkpt lat="48.39238" lon="2.59846">
        <ele>117.9</ele>
        <time>2014-03-23T08:18:42Z</time>
      </trkpt>
      <trkpt lat="48.39236" lon="2.59847">
        <ele>118.38</ele>
        <time>2014-03-23T08:18:43Z</time>
      </trkpt>
      <trkpt lat="48.39232" lon="2.59846">
        <ele>118.86</ele>
        <time>2014-03-23T08:18:47Z</time>
      </trkpt>
      <trkpt lat="48.39231" lon="2.59846">
        <ele>118.86</ele>
        <time>2014-03-23T08:18:48Z</time>
      </trkpt>
      <trkpt lat="48.39228" lon="2.59845">
        <ele>119.34</ele>
        <time>2014-03-23T08:18:50Z</time>
      </trkpt>
      <trkpt lat="48.39225" lon="2.59844">
        <ele>119.82</ele>
        <time>2014-03-23T08:18:53Z</time>
      </trkpt>
      <trkpt lat="48.39223" lon="2.59843">
        <ele>119.82</ele>
        <time>2014-03-23T08:18:54Z</time>
      </trkpt>
      <trkpt lat="48.39205" lon="2.5984">
        <ele>121.74</ele>
        <time>2014-03-23T08:19:08Z</time>
      </trkpt>
      <trkpt lat="48.39184" lon="2.59835">
        <ele>123.19</ele>
        <time>2014-03-23T08:19:23Z</time>
      </trkpt>
      <trkpt lat="48.39164" lon="2.59833">
        <ele>124.15</ele>
        <time>2014-03-23T08:19:35Z</time>
      </trkpt>
      <trkpt lat="48.39138" lon="2.59828">
        <ele>125.59</ele>
        <time>2014-03-23T08:19:48Z</time>
      </trkpt>
      <trkpt lat="48.39109" lon="2.59822">
        <ele>126.07</ele>
        <time>2014-03-23T08:20:02Z</time>
      </trkpt>
      <trkpt lat="48.39079" lon="2.59817">
        <ele>127.03</ele>
        <time>2014-03-23T08:20:14Z</time>
      </trkpt>
      <trkpt lat="48.39076" lon="2.59816">
        <ele>127.03</ele>
        <time>2014-03-23T08:20:15Z</time>
      </trkpt>
      <trkpt lat="48.39075" lon="2.59816">
        <ele>127.03</ele>
        <time>2014-03-23T08:20:16Z</time>
      </trkpt>
      <trkpt lat="48.39073" lon="2.59816">
        <ele>127.03</ele>
        <time>2014-03-23T08:20:17Z</time>
      </trkpt>
      <trkpt lat="48.39071" lon="2.59816">
        <ele>127.03</ele>
        <time>2014-03-23T08:20:18Z</time>
      </trkpt>
      <trkpt lat="48.39069" lon="2.59815">
        <ele>127.03</ele>
        <time>2014-03-23T08:20:19Z</time>
      </trkpt>
      <trkpt lat="48.39066" lon="2.59815">
        <ele>127.03</ele>
        <time>2014-03-23T08:20:20Z</time>
      </trkpt>
      <trkpt lat="48.39063" lon="2.59814">
        <ele>127.03</ele>
        <time>2014-03-23T08:20:21Z</time>
      </trkpt>
      <trkpt lat="48.39035" lon="2.59809">
        <ele>127.51</ele>
        <time>2014-03-23T08:20:32Z</time>
      </trkpt>
      <trkpt lat="48.38992" lon="2.59801">
        <ele>127.99</ele>
        <time>2014-03-23T08:20:44Z</time>
      </trkpt>
      <trkpt lat="48.38972" lon="2.59798">
        <ele>126.55</ele>
        <time>2014-03-23T08:20:49Z</time>
      </trkpt>
      <trkpt lat="48.38922" lon="2.59789">
        <ele>126.07</ele>
        <time>2014-03-23T08:21:02Z</time>
      </trkpt>
      <trkpt lat="48.38898" lon="2.59784">
        <ele>125.11</ele>
        <time>2014-03-23T08:21:07Z</time>
      </trkpt>
      <trkpt lat="48.38894" lon="2.59784">
        <ele>125.11</ele>
        <time>2014-03-23T08:21:08Z</time>
      </trkpt>
      <trkpt lat="48.38854" lon="2.59799">
        <ele>125.11</ele>
        <time>2014-03-23T08:21:19Z</time>
      </trkpt>
      <trkpt lat="48.38815" lon="2.598">
        <ele>126.55</ele>
        <time>2014-03-23T08:21:31Z</time>
      </trkpt>
      <trkpt lat="48.38796" lon="2.59833">
        <ele>127.51</ele>
        <time>2014-03-23T08:21:40Z</time>
      </trkpt>
      <trkpt lat="48.38765" lon="2.59882">
        <ele>127.51</ele>
        <time>2014-03-23T08:21:52Z</time>
      </trkpt>
      <trkpt lat="48.38732" lon="2.59901">
        <ele>127.99</ele>
        <time>2014-03-23T08:22:03Z</time>
      </trkpt>
      <trkpt lat="48.3872" lon="2.59893">
        <ele>127.99</ele>
        <time>2014-03-23T08:22:06Z</time>
      </trkpt>
      <trkpt lat="48.38709" lon="2.5989">
        <ele>126.07</ele>
        <time>2014-03-23T08:22:08Z</time>
      </trkpt>
      <trkpt lat="48.38703" lon="2.5989">
        <ele>126.07</ele>
        <time>2014-03-23T08:22:09Z</time>
      </trkpt>
      <trkpt lat="48.38697" lon="2.5989">
        <ele>125.11</ele>
        <time>2014-03-23T08:22:10Z</time>
      </trkpt>
      <trkpt lat="48.38692" lon="2.5989">
        <ele>125.11</ele>
        <time>2014-03-23T08:22:11Z</time>
      </trkpt>
      <trkpt lat="48.38686" lon="2.59892">
        <ele>125.11</ele>
        <time>2014-03-23T08:22:12Z</time>
      </trkpt>
      <trkpt lat="48.38681" lon="2.59895">
        <ele>125.11</ele>
        <time>2014-03-23T08:22:13Z</time>
      </trkpt>
      <trkpt lat="48.38676" lon="2.59899">
        <ele>125.11</ele>
        <time>2014-03-23T08:22:14Z</time>
      </trkpt>
      <trkpt lat="48.38671" lon="2.59903">
        <ele>125.11</ele>
        <time>2014-03-23T08:22:15Z</time>
      </trkpt>
      <trkpt lat="48.38643" lon="2.5992">
        <ele>125.11</ele>
        <time>2014-03-23T08:22:23Z</time>
      </trkpt>
      <trkpt lat="48.3864" lon="2.59917">
        <ele>125.11</ele>
        <time>2014-03-23T08:22:24Z</time>
      </trkpt>
      <trkpt lat="48.38639" lon="2.59912">
        <ele>125.11</ele>
        <time>2014-03-23T08:22:25Z</time>
      </trkpt>
      <trkpt lat="48.38639" lon="2.59907">
        <ele>125.11</ele>
        <time>2014-03-23T08:22:26Z</time>
      </trkpt>
      <trkpt lat="48.3864" lon="2.59901">
        <ele>125.11</ele>
        <time>2014-03-23T08:22:27Z</time>
      </trkpt>
      <trkpt lat="48.38644" lon="2.59843">
        <ele>125.11</ele>
        <time>2014-03-23T08:22:36Z</time>
      </trkpt>
      <trkpt lat="48.38644" lon="2.59836">
        <ele>125.11</ele>
        <time>2014-03-23T08:22:37Z</time>
      </trkpt>
      <trkpt lat="48.38649" lon="2.59775">
        <ele>125.11</ele>
        <time>2014-03-23T08:22:46Z</time>
      </trkpt>
      <trkpt lat="48.38649" lon="2.59763">
        <ele>125.11</ele>
        <time>2014-03-23T08:22:48Z</time>
      </trkpt>
      <trkpt lat="48.38655" lon="2.59664">
        <ele>125.11</ele>
        <time>2014-03-23T08:23:03Z</time>
      </trkpt>
      <trkpt lat="48.3866" lon="2.59602">
        <ele>126.55</ele>
        <time>2014-03-23T08:23:13Z</time>
      </trkpt>
      <trkpt lat="48.38666" lon="2.59527">
        <ele>126.07</ele>
        <time>2014-03-23T08:23:25Z</time>
      </trkpt>
      <trkpt lat="48.38668" lon="2.59466">
        <ele>125.11</ele>
        <time>2014-03-23T08:23:34Z</time>
      </trkpt>
      <trkpt lat="48.38667" lon="2.59459">
        <ele>124.63</ele>
        <time>2014-03-23T08:23:35Z</time>
      </trkpt>
      <trkpt lat="48.38651" lon="2.59387">
        <ele>122.71</ele>
        <time>2014-03-23T08:23:48Z</time>
      </trkpt>
      <trkpt lat="48.38648" lon="2.5938">
        <ele>121.74</ele>
        <time>2014-03-23T08:23:49Z</time>
      </trkpt>
      <trkpt lat="48.38645" lon="2.59373">
        <ele>120.78</ele>
        <time>2014-03-23T08:23:50Z</time>
      </trkpt>
      <trkpt lat="48.38641" lon="2.59365">
        <ele>120.3</ele>
        <time>2014-03-23T08:23:51Z</time>
      </trkpt>
      <trkpt lat="48.38638" lon="2.59358">
        <ele>119.34</ele>
        <time>2014-03-23T08:23:52Z</time>
      </trkpt>
      <trkpt lat="48.38635" lon="2.5935">
        <ele>118.86</ele>
        <time>2014-03-23T08:23:53Z</time>
      </trkpt>
      <trkpt lat="48.38626" lon="2.59326">
        <ele>115.98</ele>
        <time>2014-03-23T08:23:56Z</time>
      </trkpt>
      <trkpt lat="48.38624" lon="2.59316">
        <ele>115.98</ele>
        <time>2014-03-23T08:23:57Z</time>
      </trkpt>
      <trkpt lat="48.38623" lon="2.59307">
        <ele>115.01</ele>
        <time>2014-03-23T08:23:58Z</time>
      </trkpt>
      <trkpt lat="48.38624" lon="2.59297">
        <ele>114.53</ele>
        <time>2014-03-23T08:23:59Z</time>
      </trkpt>
      <trkpt lat="48.38625" lon="2.59286">
        <ele>113.57</ele>
        <time>2014-03-23T08:24:00Z</time>
      </trkpt>
      <trkpt lat="48.38626" lon="2.59277">
        <ele>113.57</ele>
        <time>2014-03-23T08:24:01Z</time>
      </trkpt>
      <trkpt lat="48.38629" lon="2.59269">
        <ele>112.61</ele>
        <time>2014-03-23T08:24:02Z</time>
      </trkpt>
      <trkpt lat="48.38633" lon="2.59262">
        <ele>112.61</ele>
        <time>2014-03-23T08:24:03Z</time>
      </trkpt>
      <trkpt lat="48.38637" lon="2.59257">
        <ele>111.65</ele>
        <time>2014-03-23T08:24:04Z</time>
      </trkpt>
      <trkpt lat="48.38641" lon="2.59252">
        <ele>111.17</ele>
        <time>2014-03-23T08:24:05Z</time>
      </trkpt>
      <trkpt lat="48.38645" lon="2.59247">
        <ele>111.17</ele>
        <time>2014-03-23T08:24:06Z</time>
      </trkpt>
      <trkpt lat="48.38649" lon="2.59241">
        <ele>110.21</ele>
        <time>2014-03-23T08:24:07Z</time>
      </trkpt>
      <trkpt lat="48.38652" lon="2.59234">
        <ele>110.21</ele>
        <time>2014-03-23T08:24:08Z</time>
      </trkpt>
      <trkpt lat="48.38656" lon="2.59228">
        <ele>109.73</ele>
        <time>2014-03-23T08:24:09Z</time>
      </trkpt>
      <trkpt lat="48.3866" lon="2.59221">
        <ele>109.25</ele>
        <time>2014-03-23T08:24:10Z</time>
      </trkpt>
      <trkpt lat="48.38662" lon="2.59213">
        <ele>108.77</ele>
        <time>2014-03-23T08:24:11Z</time>
      </trkpt>
      <trkpt lat="48.38662" lon="2.59205">
        <ele>108.77</ele>
        <time>2014-03-23T08:24:12Z</time>
      </trkpt>
      <trkpt lat="48.38662" lon="2.59198">
        <ele>108.29</ele>
        <time>2014-03-23T08:24:13Z</time>
      </trkpt>
      <trkpt lat="48.38661" lon="2.59191">
        <ele>107.81</ele>
        <time>2014-03-23T08:24:14Z</time>
      </trkpt>
      <trkpt lat="48.38658" lon="2.59184">
        <ele>107.32</ele>
        <time>2014-03-23T08:24:15Z</time>
      </trkpt>
      <trkpt lat="48.38655" lon="2.59178">
        <ele>107.32</ele>
        <time>2014-03-23T08:24:16Z</time>
      </trkpt>
      <trkpt lat="48.38653" lon="2.59172">
        <ele>107.32</ele>
        <time>2014-03-23T08:24:17Z</time>
      </trkpt>
      <trkpt lat="48.38649" lon="2.59166">
        <ele>106.84</ele>
        <time>2014-03-23T08:24:18Z</time>
      </trkpt>
      <trkpt lat="48.38645" lon="2.59161">
        <ele>106.84</ele>
        <time>2014-03-23T08:24:19Z</time>
      </trkpt>
      <trkpt lat="48.38611" lon="2.59106">
        <ele>105.4</ele>
        <time>2014-03-23T08:24:28Z</time>
      </trkpt>
      <trkpt lat="48.38605" lon="2.59093">
        <ele>105.4</ele>
        <time>2014-03-23T08:24:30Z</time>
      </trkpt>
      <trkpt lat="48.38574" lon="2.59009">
        <ele>104.92</ele>
        <time>2014-03-23T08:24:42Z</time>
      </trkpt>
      <trkpt lat="48.38572" lon="2.59003">
        <ele>104.92</ele>
        <time>2014-03-23T08:24:43Z</time>
      </trkpt>
      <trkpt lat="48.38569" lon="2.58996">
        <ele>104.92</ele>
        <time>2014-03-23T08:24:44Z</time>
      </trkpt>
      <trkpt lat="48.38566" lon="2.5899">
        <ele>104.92</ele>
        <time>2014-03-23T08:24:45Z</time>
      </trkpt>
      <trkpt lat="48.38563" lon="2.58984">
        <ele>103.96</ele>
        <time>2014-03-23T08:24:46Z</time>
      </trkpt>
      <trkpt lat="48.3856" lon="2.58978">
        <ele>103.96</ele>
        <time>2014-03-23T08:24:47Z</time>
      </trkpt>
      <trkpt lat="48.38558" lon="2.5897">
        <ele>103.96</ele>
        <time>2014-03-23T08:24:48Z</time>
      </trkpt>
      <trkpt lat="48.38556" lon="2.58963">
        <ele>103.96</ele>
        <time>2014-03-23T08:24:49Z</time>
      </trkpt>
      <trkpt lat="48.38554" lon="2.58955">
        <ele>103.96</ele>
        <time>2014-03-23T08:24:50Z</time>
      </trkpt>
      <trkpt lat="48.38549" lon="2.58942">
        <ele>103.96</ele>
        <time>2014-03-23T08:24:52Z</time>
      </trkpt>
      <trkpt lat="48.38541" lon="2.58925">
        <ele>103.96</ele>
        <time>2014-03-23T08:24:55Z</time>
      </trkpt>
      <trkpt lat="48.38538" lon="2.5892">
        <ele>103.48</ele>
        <time>2014-03-23T08:24:56Z</time>
      </trkpt>
      <trkpt lat="48.38534" lon="2.58916">
        <ele>103</ele>
        <time>2014-03-23T08:24:57Z</time>
      </trkpt>
      <trkpt lat="48.3853" lon="2.58911">
        <ele>103</ele>
        <time>2014-03-23T08:24:58Z</time>
      </trkpt>
      <trkpt lat="48.38524" lon="2.589">
        <ele>103</ele>
        <time>2014-03-23T08:25:00Z</time>
      </trkpt>
      <trkpt lat="48.38516" lon="2.5888">
        <ele>102.04</ele>
        <time>2014-03-23T08:25:03Z</time>
      </trkpt>
      <trkpt lat="48.38505" lon="2.58859">
        <ele>102.04</ele>
        <time>2014-03-23T08:25:06Z</time>
      </trkpt>
      <trkpt lat="48.38501" lon="2.58851">
        <ele>102.04</ele>
        <time>2014-03-23T08:25:07Z</time>
      </trkpt>
      <trkpt lat="48.38498" lon="2.58844">
        <ele>101.56</ele>
        <time>2014-03-23T08:25:08Z</time>
      </trkpt>
      <trkpt lat="48.38491" lon="2.58831">
        <ele>101.08</ele>
        <time>2014-03-23T08:25:10Z</time>
      </trkpt>
      <trkpt lat="48.38484" lon="2.5882">
        <ele>101.08</ele>
        <time>2014-03-23T08:25:12Z</time>
      </trkpt>
      <trkpt lat="48.38482" lon="2.58814">
        <ele>101.08</ele>
        <time>2014-03-23T08:25:13Z</time>
      </trkpt>
      <trkpt lat="48.38479" lon="2.5881">
        <ele>101.08</ele>
        <time>2014-03-23T08:25:14Z</time>
      </trkpt>
      <trkpt lat="48.38475" lon="2.58806">
        <ele>100.11</ele>
        <time>2014-03-23T08:25:15Z</time>
      </trkpt>
      <trkpt lat="48.38469" lon="2.58802">
        <ele>100.11</ele>
        <time>2014-03-23T08:25:16Z</time>
      </trkpt>
      <trkpt lat="48.38463" lon="2.58798">
        <ele>100.11</ele>
        <time>2014-03-23T08:25:17Z</time>
      </trkpt>
      <trkpt lat="48.38458" lon="2.58794">
        <ele>100.11</ele>
        <time>2014-03-23T08:25:18Z</time>
      </trkpt>
      <trkpt lat="48.38447" lon="2.58787">
        <ele>99.63</ele>
        <time>2014-03-23T08:25:20Z</time>
      </trkpt>
      <trkpt lat="48.38436" lon="2.58783">
        <ele>99.63</ele>
        <time>2014-03-23T08:25:22Z</time>
      </trkpt>
      <trkpt lat="48.38431" lon="2.58783">
        <ele>99.15</ele>
        <time>2014-03-23T08:25:23Z</time>
      </trkpt>
      <trkpt lat="48.38427" lon="2.58782">
        <ele>99.15</ele>
        <time>2014-03-23T08:25:24Z</time>
      </trkpt>
      <trkpt lat="48.38417" lon="2.58784">
        <ele>98.67</ele>
        <time>2014-03-23T08:25:26Z</time>
      </trkpt>
      <trkpt lat="48.38412" lon="2.58784">
        <ele>97.71</ele>
        <time>2014-03-23T08:25:27Z</time>
      </trkpt>
      <trkpt lat="48.38407" lon="2.58784">
        <ele>97.71</ele>
        <time>2014-03-23T08:25:28Z</time>
      </trkpt>
      <trkpt lat="48.38402" lon="2.58782">
        <ele>97.71</ele>
        <time>2014-03-23T08:25:29Z</time>
      </trkpt>
      <trkpt lat="48.38397" lon="2.5878">
        <ele>97.71</ele>
        <time>2014-03-23T08:25:30Z</time>
      </trkpt>
      <trkpt lat="48.38392" lon="2.58777">
        <ele>97.23</ele>
        <time>2014-03-23T08:25:31Z</time>
      </trkpt>
      <trkpt lat="48.38372" lon="2.58768">
        <ele>97.23</ele>
        <time>2014-03-23T08:25:36Z</time>
      </trkpt>
      <trkpt lat="48.38371" lon="2.5877">
        <ele>97.23</ele>
        <time>2014-03-23T08:25:37Z</time>
      </trkpt>
      <trkpt lat="48.38371" lon="2.58772">
        <ele>97.23</ele>
        <time>2014-03-23T08:25:38Z</time>
      </trkpt>
      <trkpt lat="48.38372" lon="2.58774">
        <ele>97.23</ele>
        <time>2014-03-23T08:25:39Z</time>
      </trkpt>
      <trkpt lat="48.38373" lon="2.58776">
        <ele>97.23</ele>
        <time>2014-03-23T08:25:40Z</time>
      </trkpt>
      <trkpt lat="48.38375" lon="2.58778">
        <ele>97.71</ele>
        <time>2014-03-23T08:25:41Z</time>
      </trkpt>
      <trkpt lat="48.38386" lon="2.58799">
        <ele>97.71</ele>
        <time>2014-03-23T08:25:49Z</time>
      </trkpt>
      <trkpt lat="48.38387" lon="2.58802">
        <ele>97.71</ele>
        <time>2014-03-23T08:25:50Z</time>
      </trkpt>
      <trkpt lat="48.38388" lon="2.58804">
        <ele>97.71</ele>
        <time>2014-03-23T08:25:51Z</time>
      </trkpt>
      <trkpt lat="48.38389" lon="2.58807">
        <ele>98.67</ele>
        <time>2014-03-23T08:25:52Z</time>
      </trkpt>
      <trkpt lat="48.3839" lon="2.58809">
        <ele>98.67</ele>
        <time>2014-03-23T08:25:53Z</time>
      </trkpt>
      <trkpt lat="48.38391" lon="2.58812">
        <ele>98.67</ele>
        <time>2014-03-23T08:25:54Z</time>
      </trkpt>
      <trkpt lat="48.38393" lon="2.58815">
        <ele>98.67</ele>
        <time>2014-03-23T08:25:55Z</time>
      </trkpt>
      <trkpt lat="48.38394" lon="2.58817">
        <ele>98.67</ele>
        <time>2014-03-23T08:25:56Z</time>
      </trkpt>
      <trkpt lat="48.38414" lon="2.58851">
        <ele>99.63</ele>
        <time>2014-03-23T08:26:08Z</time>
      </trkpt>
      <trkpt lat="48.38437" lon="2.58887">
        <ele>101.08</ele>
        <time>2014-03-23T08:26:23Z</time>
      </trkpt>
      <trkpt lat="48.38452" lon="2.58913">
        <ele>102.04</ele>
        <time>2014-03-23T08:26:36Z</time>
      </trkpt>
      <trkpt lat="48.38453" lon="2.58915">
        <ele>102.04</ele>
        <time>2014-03-23T08:26:37Z</time>
      </trkpt>
      <trkpt lat="48.38454" lon="2.58917">
        <ele>102.04</ele>
        <time>2014-03-23T08:26:38Z</time>
      </trkpt>
      <trkpt lat="48.38455" lon="2.5892">
        <ele>102.04</ele>
        <time>2014-03-23T08:26:39Z</time>
      </trkpt>
      <trkpt lat="48.38463" lon="2.58949">
        <ele>103.96</ele>
        <time>2014-03-23T08:26:55Z</time>
      </trkpt>
      <trkpt lat="48.38468" lon="2.58977">
        <ele>104.92</ele>
        <time>2014-03-23T08:27:10Z</time>
      </trkpt>
      <trkpt lat="48.38468" lon="2.58989">
        <ele>105.4</ele>
        <time>2014-03-23T08:27:16Z</time>
      </trkpt>
      <trkpt lat="48.38468" lon="2.58991">
        <ele>105.4</ele>
        <time>2014-03-23T08:27:17Z</time>
      </trkpt>
      <trkpt lat="48.38469" lon="2.58993">
        <ele>105.4</ele>
        <time>2014-03-23T08:27:18Z</time>
      </trkpt>
      <trkpt lat="48.38469" lon="2.58995">
        <ele>105.88</ele>
        <time>2014-03-23T08:27:19Z</time>
      </trkpt>
      <trkpt lat="48.38469" lon="2.58997">
        <ele>105.88</ele>
        <time>2014-03-23T08:27:20Z</time>
      </trkpt>
      <trkpt lat="48.38469" lon="2.59">
        <ele>105.88</ele>
        <time>2014-03-23T08:27:21Z</time>
      </trkpt>
      <trkpt lat="48.38469" lon="2.59002">
        <ele>106.36</ele>
        <time>2014-03-23T08:27:22Z</time>
      </trkpt>
      <trkpt lat="48.38469" lon="2.59004">
        <ele>106.36</ele>
        <time>2014-03-23T08:27:23Z</time>
      </trkpt>
      <trkpt lat="48.3847" lon="2.59042">
        <ele>108.29</ele>
        <time>2014-03-23T08:27:41Z</time>
      </trkpt>
      <trkpt lat="48.38468" lon="2.59077">
        <ele>110.69</ele>
        <time>2014-03-23T08:27:57Z</time>
      </trkpt>
      <trkpt lat="48.38466" lon="2.59091">
        <ele>111.65</ele>
        <time>2014-03-23T08:28:04Z</time>
      </trkpt>
      <trkpt lat="48.38461" lon="2.5911">
        <ele>112.61</ele>
        <time>2014-03-23T08:28:14Z</time>
      </trkpt>
      <trkpt lat="48.38444" lon="2.59137">
        <ele>114.53</ele>
        <time>2014-03-23T08:28:27Z</time>
      </trkpt>
      <trkpt lat="48.38439" lon="2.59143">
        <ele>115.98</ele>
        <time>2014-03-23T08:28:32Z</time>
      </trkpt>
      <trkpt lat="48.38438" lon="2.59144">
        <ele>115.98</ele>
        <time>2014-03-23T08:28:33Z</time>
      </trkpt>
      <trkpt lat="48.38436" lon="2.59145">
        <ele>115.98</ele>
        <time>2014-03-23T08:28:34Z</time>
      </trkpt>
      <trkpt lat="48.38435" lon="2.59146">
        <ele>116.46</ele>
        <time>2014-03-23T08:28:35Z</time>
      </trkpt>
      <trkpt lat="48.38434" lon="2.59147">
        <ele>116.46</ele>
        <time>2014-03-23T08:28:36Z</time>
      </trkpt>
      <trkpt lat="48.38432" lon="2.59148">
        <ele>116.46</ele>
        <time>2014-03-23T08:28:37Z</time>
      </trkpt>
      <trkpt lat="48.38431" lon="2.59148">
        <ele>116.46</ele>
        <time>2014-03-23T08:28:38Z</time>
      </trkpt>
      <trkpt lat="48.3843" lon="2.59149">
        <ele>116.46</ele>
        <time>2014-03-23T08:28:39Z</time>
      </trkpt>
      <trkpt lat="48.38428" lon="2.5915">
        <ele>116.94</ele>
        <time>2014-03-23T08:28:40Z</time>
      </trkpt>
      <trkpt lat="48.38427" lon="2.5915">
        <ele>116.94</ele>
        <time>2014-03-23T08:28:41Z</time>
      </trkpt>
      <trkpt lat="48.38417" lon="2.59154">
        <ele>117.9</ele>
        <time>2014-03-23T08:28:53Z</time>
      </trkpt>
      <trkpt lat="48.38406" lon="2.59159">
        <ele>119.34</ele>
        <time>2014-03-23T08:29:03Z</time>
      </trkpt>
      <trkpt lat="48.38399" lon="2.5917">
        <ele>120.3</ele>
        <time>2014-03-23T08:29:13Z</time>
      </trkpt>
      <trkpt lat="48.38397" lon="2.59174">
        <ele>120.78</ele>
        <time>2014-03-23T08:29:27Z</time>
      </trkpt>
      <trkpt lat="48.38397" lon="2.59178">
        <ele>120.78</ele>
        <time>2014-03-23T08:29:56Z</time>
      </trkpt>
      <trkpt lat="48.38399" lon="2.59181">
        <ele>120.78</ele>
        <time>2014-03-23T08:30:23Z</time>
      </trkpt>
      <trkpt lat="48.38393" lon="2.59178">
        <ele>120.3</ele>
        <time>2014-03-23T08:30:45Z</time>
      </trkpt>
      <trkpt lat="48.38401" lon="2.59184">
        <ele>120.3</ele>
        <time>2014-03-23T08:31:09Z</time>
      </trkpt>
      <trkpt lat="48.38401" lon="2.59179">
        <ele>120.3</ele>
        <time>2014-03-23T08:31:42Z</time>
      </trkpt>
      <trkpt lat="48.38406" lon="2.59181">
        <ele>120.78</ele>
        <time>2014-03-23T08:32:13Z</time>
      </trkpt>
      <trkpt lat="48.38407" lon="2.5918">
        <ele>119.82</ele>
        <time>2014-03-23T08:32:45Z</time>
      </trkpt>
      <trkpt lat="48.38402" lon="2.59183">
        <ele>119.34</ele>
        <time>2014-03-23T08:33:13Z</time>
      </trkpt>
      <trkpt lat="48.38399" lon="2.59172">
        <ele>119.34</ele>
        <time>2014-03-23T08:33:49Z</time>
      </trkpt>
      <trkpt lat="48.38402" lon="2.59177">
        <ele>119.34</ele>
        <time>2014-03-23T08:34:24Z</time>
      </trkpt>
      <trkpt lat="48.38406" lon="2.59185">
        <ele>119.82</ele>
        <time>2014-03-23T08:34:50Z</time>
      </trkpt>
      <trkpt lat="48.38402" lon="2.59182">
        <ele>121.26</ele>
        <time>2014-03-23T08:35:02Z</time>
      </trkpt>
      <trkpt lat="48.38402" lon="2.59184">
        <ele>119.82</ele>
        <time>2014-03-23T08:35:07Z</time>
      </trkpt>
      <trkpt lat="48.38397" lon="2.59176">
        <ele>119.82</ele>
        <time>2014-03-23T08:35:26Z</time>
      </trkpt>
      <trkpt lat="48.38402" lon="2.59171">
        <ele>120.3</ele>
        <time>2014-03-23T08:35:46Z</time>
      </trkpt>
      <trkpt lat="48.38395" lon="2.59175">
        <ele>120.3</ele>
        <time>2014-03-23T08:36:06Z</time>
      </trkpt>
      <trkpt lat="48.38393" lon="2.59178">
        <ele>120.3</ele>
        <time>2014-03-23T08:36:11Z</time>
      </trkpt>
      <trkpt lat="48.38386" lon="2.59188">
        <ele>121.74</ele>
        <time>2014-03-23T08:36:20Z</time>
      </trkpt>
      <trkpt lat="48.38385" lon="2.5919">
        <ele>122.22</ele>
        <time>2014-03-23T08:36:21Z</time>
      </trkpt>
      <trkpt lat="48.38383" lon="2.59191">
        <ele>122.22</ele>
        <time>2014-03-23T08:36:22Z</time>
      </trkpt>
      <trkpt lat="48.38382" lon="2.59193">
        <ele>122.22</ele>
        <time>2014-03-23T08:36:23Z</time>
      </trkpt>
      <trkpt lat="48.38381" lon="2.59195">
        <ele>123.19</ele>
        <time>2014-03-23T08:36:24Z</time>
      </trkpt>
      <trkpt lat="48.3838" lon="2.59197">
        <ele>123.19</ele>
        <time>2014-03-23T08:36:25Z</time>
      </trkpt>
      <trkpt lat="48.3836" lon="2.59224">
        <ele>124.63</ele>
        <time>2014-03-23T08:36:37Z</time>
      </trkpt>
      <trkpt lat="48.38337" lon="2.59255">
        <ele>127.03</ele>
        <time>2014-03-23T08:36:51Z</time>
      </trkpt>
      <trkpt lat="48.38314" lon="2.59285">
        <ele>127.51</ele>
        <time>2014-03-23T08:37:04Z</time>
      </trkpt>
      <trkpt lat="48.38288" lon="2.59321">
        <ele>127.99</ele>
        <time>2014-03-23T08:37:16Z</time>
      </trkpt>
      <trkpt lat="48.38262" lon="2.5936">
        <ele>127.99</ele>
        <time>2014-03-23T08:37:27Z</time>
      </trkpt>
      <trkpt lat="48.38229" lon="2.59405">
        <ele>128.95</ele>
        <time>2014-03-23T08:37:39Z</time>
      </trkpt>
      <trkpt lat="48.38195" lon="2.59453">
        <ele>128.95</ele>
        <time>2014-03-23T08:37:51Z</time>
      </trkpt>
      <trkpt lat="48.38191" lon="2.59457">
        <ele>128.95</ele>
        <time>2014-03-23T08:37:52Z</time>
      </trkpt>
      <trkpt lat="48.38188" lon="2.59461">
        <ele>128.95</ele>
        <time>2014-03-23T08:37:53Z</time>
      </trkpt>
      <trkpt lat="48.38185" lon="2.59466">
        <ele>128.95</ele>
        <time>2014-03-23T08:37:54Z</time>
      </trkpt>
      <trkpt lat="48.38152" lon="2.59512">
        <ele>128.95</ele>
        <time>2014-03-23T08:38:05Z</time>
      </trkpt>
      <trkpt lat="48.38146" lon="2.59521">
        <ele>128.95</ele>
        <time>2014-03-23T08:38:07Z</time>
      </trkpt>
      <trkpt lat="48.38142" lon="2.59525">
        <ele>128.95</ele>
        <time>2014-03-23T08:38:08Z</time>
      </trkpt>
      <trkpt lat="48.38139" lon="2.5953">
        <ele>128.95</ele>
        <time>2014-03-23T08:38:09Z</time>
      </trkpt>
      <trkpt lat="48.38099" lon="2.59582">
        <ele>127.51</ele>
        <time>2014-03-23T08:38:20Z</time>
      </trkpt>
      <trkpt lat="48.38082" lon="2.59608">
        <ele>127.51</ele>
        <time>2014-03-23T08:38:25Z</time>
      </trkpt>
      <trkpt lat="48.38078" lon="2.59613">
        <ele>127.51</ele>
        <time>2014-03-23T08:38:26Z</time>
      </trkpt>
      <trkpt lat="48.38074" lon="2.59616">
        <ele>127.51</ele>
        <time>2014-03-23T08:38:27Z</time>
      </trkpt>
      <trkpt lat="48.38069" lon="2.59618">
        <ele>127.51</ele>
        <time>2014-03-23T08:38:28Z</time>
      </trkpt>
      <trkpt lat="48.38065" lon="2.59619">
        <ele>127.51</ele>
        <time>2014-03-23T08:38:29Z</time>
      </trkpt>
      <trkpt lat="48.38051" lon="2.59616">
        <ele>127.51</ele>
        <time>2014-03-23T08:38:32Z</time>
      </trkpt>
      <trkpt lat="48.38046" lon="2.59615">
        <ele>127.03</ele>
        <time>2014-03-23T08:38:33Z</time>
      </trkpt>
      <trkpt lat="48.38035" lon="2.59612">
        <ele>126.55</ele>
        <time>2014-03-23T08:38:35Z</time>
      </trkpt>
      <trkpt lat="48.3803" lon="2.5961">
        <ele>126.55</ele>
        <time>2014-03-23T08:38:36Z</time>
      </trkpt>
      <trkpt lat="48.3801" lon="2.59599">
        <ele>126.55</ele>
        <time>2014-03-23T08:38:40Z</time>
      </trkpt>
      <trkpt lat="48.37993" lon="2.59579">
        <ele>126.55</ele>
        <time>2014-03-23T08:38:46Z</time>
      </trkpt>
      <trkpt lat="48.37992" lon="2.59574">
        <ele>126.55</ele>
        <time>2014-03-23T08:38:47Z</time>
      </trkpt>
      <trkpt lat="48.37992" lon="2.59568">
        <ele>126.55</ele>
        <time>2014-03-23T08:38:48Z</time>
      </trkpt>
      <trkpt lat="48.37993" lon="2.59541">
        <ele>126.55</ele>
        <time>2014-03-23T08:38:52Z</time>
      </trkpt>
      <trkpt lat="48.37995" lon="2.59444">
        <ele>126.55</ele>
        <time>2014-03-23T08:39:05Z</time>
      </trkpt>
      <trkpt lat="48.37996" lon="2.59362">
        <ele>126.07</ele>
        <time>2014-03-23T08:39:15Z</time>
      </trkpt>
      <trkpt lat="48.37996" lon="2.59354">
        <ele>126.07</ele>
        <time>2014-03-23T08:39:16Z</time>
      </trkpt>
      <trkpt lat="48.37997" lon="2.59345">
        <ele>126.07</ele>
        <time>2014-03-23T08:39:17Z</time>
      </trkpt>
      <trkpt lat="48.38002" lon="2.59232">
        <ele>124.63</ele>
        <time>2014-03-23T08:39:30Z</time>
      </trkpt>
      <trkpt lat="48.38003" lon="2.59186">
        <ele>124.63</ele>
        <time>2014-03-23T08:39:35Z</time>
      </trkpt>
      <trkpt lat="48.38001" lon="2.59104">
        <ele>123.67</ele>
        <time>2014-03-23T08:39:45Z</time>
      </trkpt>
      <trkpt lat="48.37998" lon="2.59102">
        <ele>123.67</ele>
        <time>2014-03-23T08:39:46Z</time>
      </trkpt>
      <trkpt lat="48.37994" lon="2.59101">
        <ele>123.67</ele>
        <time>2014-03-23T08:39:47Z</time>
      </trkpt>
      <trkpt lat="48.37991" lon="2.59102">
        <ele>123.67</ele>
        <time>2014-03-23T08:39:48Z</time>
      </trkpt>
      <trkpt lat="48.37988" lon="2.59103">
        <ele>123.67</ele>
        <time>2014-03-23T08:39:49Z</time>
      </trkpt>
      <trkpt lat="48.37985" lon="2.59104">
        <ele>123.67</ele>
        <time>2014-03-23T08:39:50Z</time>
      </trkpt>
      <trkpt lat="48.37983" lon="2.59105">
        <ele>123.67</ele>
        <time>2014-03-23T08:39:59Z</time>
      </trkpt>
      <trkpt lat="48.37984" lon="2.59102">
        <ele>123.67</ele>
        <time>2014-03-23T08:40:30Z</time>
      </trkpt>
      <trkpt lat="48.37984" lon="2.59102">
        <ele>123.67</ele>
        <time>2014-03-23T08:40:54Z</time>
      </trkpt>
      <trkpt lat="48.37987" lon="2.59102">
        <ele>123.67</ele>
        <time>2014-03-23T08:41:15Z</time>
      </trkpt>
      <trkpt lat="48.37989" lon="2.59101">
        <ele>123.67</ele>
        <time>2014-03-23T08:41:35Z</time>
      </trkpt>
      <trkpt lat="48.37988" lon="2.59104">
        <ele>123.67</ele>
        <time>2014-03-23T08:41:57Z</time>
      </trkpt>
      <trkpt lat="48.37985" lon="2.59101">
        <ele>123.67</ele>
        <time>2014-03-23T08:42:17Z</time>
      </trkpt>
      <trkpt lat="48.37987" lon="2.59099">
        <ele>123.67</ele>
        <time>2014-03-23T08:42:39Z</time>
      </trkpt>
      <trkpt lat="48.37989" lon="2.59101">
        <ele>123.67</ele>
        <time>2014-03-23T08:43:00Z</time>
      </trkpt>
      <trkpt lat="48.37987" lon="2.59103">
        <ele>123.67</ele>
        <time>2014-03-23T08:43:24Z</time>
      </trkpt>
      <trkpt lat="48.37985" lon="2.59103">
        <ele>123.67</ele>
        <time>2014-03-23T08:43:48Z</time>
      </trkpt>
      <trkpt lat="48.37986" lon="2.59099">
        <ele>123.67</ele>
        <time>2014-03-23T08:44:14Z</time>
      </trkpt>
      <trkpt lat="48.37985" lon="2.59101">
        <ele>123.67</ele>
        <time>2014-03-23T08:44:41Z</time>
      </trkpt>
      <trkpt lat="48.37981" lon="2.59097">
        <ele>123.67</ele>
        <time>2014-03-23T08:45:10Z</time>
      </trkpt>
      <trkpt lat="48.37984" lon="2.59098">
        <ele>123.67</ele>
        <time>2014-03-23T08:45:36Z</time>
      </trkpt>
      <trkpt lat="48.37983" lon="2.59093">
        <ele>123.67</ele>
        <time>2014-03-23T08:46:09Z</time>
      </trkpt>
      <trkpt lat="48.37988" lon="2.59088">
        <ele>123.67</ele>
        <time>2014-03-23T08:46:41Z</time>
      </trkpt>
      <trkpt lat="48.37987" lon="2.59089">
        <ele>124.15</ele>
        <time>2014-03-23T08:47:06Z</time>
      </trkpt>
      <trkpt lat="48.37984" lon="2.59095">
        <ele>124.15</ele>
        <time>2014-03-23T08:47:34Z</time>
      </trkpt>
      <trkpt lat="48.37983" lon="2.5909">
        <ele>124.15</ele>
        <time>2014-03-23T08:48:01Z</time>
      </trkpt>
      <trkpt lat="48.37983" lon="2.59088">
        <ele>124.15</ele>
        <time>2014-03-23T08:48:32Z</time>
      </trkpt>
      <trkpt lat="48.37984" lon="2.59091">
        <ele>124.63</ele>
        <time>2014-03-23T08:49:03Z</time>
      </trkpt>
      <trkpt lat="48.37983" lon="2.59091">
        <ele>124.63</ele>
        <time>2014-03-23T08:49:31Z</time>
      </trkpt>
      <trkpt lat="48.37986" lon="2.59089">
        <ele>124.63</ele>
        <time>2014-03-23T08:49:53Z</time>
      </trkpt>
      <trkpt lat="48.37983" lon="2.59092">
        <ele>124.63</ele>
        <time>2014-03-23T08:50:18Z</time>
      </trkpt>
      <trkpt lat="48.37981" lon="2.59095">
        <ele>124.63</ele>
        <time>2014-03-23T08:50:48Z</time>
      </trkpt>
      <trkpt lat="48.37985" lon="2.59095">
        <ele>124.63</ele>
        <time>2014-03-23T08:51:16Z</time>
      </trkpt>
      <trkpt lat="48.37986" lon="2.59094">
        <ele>124.63</ele>
        <time>2014-03-23T08:51:46Z</time>
      </trkpt>
      <trkpt lat="48.37988" lon="2.59094">
        <ele>124.63</ele>
        <time>2014-03-23T08:52:18Z</time>
      </trkpt>
      <trkpt lat="48.37985" lon="2.59096">
        <ele>125.11</ele>
        <time>2014-03-23T08:52:39Z</time>
      </trkpt>
      <trkpt lat="48.37985" lon="2.59098">
        <ele>124.63</ele>
        <time>2014-03-23T08:53:04Z</time>
      </trkpt>
      <trkpt lat="48.37987" lon="2.59099">
        <ele>124.63</ele>
        <time>2014-03-23T08:53:25Z</time>
      </trkpt>
      <trkpt lat="48.37979" lon="2.59077">
        <ele>124.63</ele>
        <time>2014-03-23T08:53:48Z</time>
      </trkpt>
      <trkpt lat="48.37973" lon="2.59066">
        <ele>125.11</ele>
        <time>2014-03-23T08:54:17Z</time>
      </trkpt>
      <trkpt lat="48.37973" lon="2.59067">
        <ele>125.11</ele>
        <time>2014-03-23T08:54:40Z</time>
      </trkpt>
      <trkpt lat="48.37974" lon="2.59069">
        <ele>125.11</ele>
        <time>2014-03-23T08:54:54Z</time>
      </trkpt>
      <trkpt lat="48.37975" lon="2.59078">
        <ele>125.11</ele>
        <time>2014-03-23T08:55:23Z</time>
      </trkpt>
      <trkpt lat="48.37978" lon="2.59086">
        <ele>125.11</ele>
        <time>2014-03-23T08:55:44Z</time>
      </trkpt>
      <trkpt lat="48.37982" lon="2.59092">
        <ele>125.11</ele>
        <time>2014-03-23T08:56:19Z</time>
      </trkpt>
      <trkpt lat="48.37981" lon="2.59091">
        <ele>125.11</ele>
        <time>2014-03-23T08:56:52Z</time>
      </trkpt>
      <trkpt lat="48.37982" lon="2.59093">
        <ele>125.11</ele>
        <time>2014-03-23T08:57:11Z</time>
      </trkpt>
      <trkpt lat="48.37982" lon="2.59094">
        <ele>125.11</ele>
        <time>2014-03-23T08:57:45Z</time>
      </trkpt>
      <trkpt lat="48.37978" lon="2.59094">
        <ele>125.11</ele>
        <time>2014-03-23T08:58:22Z</time>
      </trkpt>
      <trkpt lat="48.37981" lon="2.59092">
        <ele>125.11</ele>
        <time>2014-03-23T08:59:04Z</time>
      </trkpt>
      <trkpt lat="48.37987" lon="2.59098">
        <ele>125.59</ele>
        <time>2014-03-23T08:59:41Z</time>
      </trkpt>
      <trkpt lat="48.37983" lon="2.59094">
        <ele>125.59</ele>
        <time>2014-03-23T09:00:12Z</time>
      </trkpt>
      <trkpt lat="48.37983" lon="2.59099">
        <ele>125.59</ele>
        <time>2014-03-23T09:00:46Z</time>
      </trkpt>
      <trkpt lat="48.37983" lon="2.59098">
        <ele>125.59</ele>
        <time>2014-03-23T09:01:05Z</time>
      </trkpt>
      <trkpt lat="48.37981" lon="2.59101">
        <ele>125.59</ele>
        <time>2014-03-23T09:01:22Z</time>
      </trkpt>
      <trkpt lat="48.37966" lon="2.59116">
        <ele>125.59</ele>
        <time>2014-03-23T09:01:33Z</time>
      </trkpt>
      <trkpt lat="48.37938" lon="2.5914">
        <ele>127.51</ele>
        <time>2014-03-23T09:01:45Z</time>
      </trkpt>
      <trkpt lat="48.37935" lon="2.59143">
        <ele>127.51</ele>
        <time>2014-03-23T09:02:00Z</time>
      </trkpt>
      <trkpt lat="48.37934" lon="2.59144">
        <ele>127.99</ele>
        <time>2014-03-23T09:02:29Z</time>
      </trkpt>
      <trkpt lat="48.37934" lon="2.59144">
        <ele>127.99</ele>
        <time>2014-03-23T09:03:03Z</time>
      </trkpt>
      <trkpt lat="48.37932" lon="2.59145">
        <ele>127.99</ele>
        <time>2014-03-23T09:03:05Z</time>
      </trkpt>
      <trkpt lat="48.3793" lon="2.59147">
        <ele>127.99</ele>
        <time>2014-03-23T09:03:06Z</time>
      </trkpt>
      <trkpt lat="48.37898" lon="2.59171">
        <ele>128.95</ele>
        <time>2014-03-23T09:03:17Z</time>
      </trkpt>
      <trkpt lat="48.37855" lon="2.59206">
        <ele>130.4</ele>
        <time>2014-03-23T09:03:31Z</time>
      </trkpt>
      <trkpt lat="48.37809" lon="2.59242">
        <ele>131.36</ele>
        <time>2014-03-23T09:03:44Z</time>
      </trkpt>
      <trkpt lat="48.37753" lon="2.59287">
        <ele>131.84</ele>
        <time>2014-03-23T09:03:59Z</time>
      </trkpt>
      <trkpt lat="48.37738" lon="2.59298">
        <ele>132.32</ele>
        <time>2014-03-23T09:04:03Z</time>
      </trkpt>
      <trkpt lat="48.37734" lon="2.59302">
        <ele>132.32</ele>
        <time>2014-03-23T09:04:04Z</time>
      </trkpt>
      <trkpt lat="48.3773" lon="2.59306">
        <ele>132.32</ele>
        <time>2014-03-23T09:04:05Z</time>
      </trkpt>
      <trkpt lat="48.37698" lon="2.59334">
        <ele>132.32</ele>
        <time>2014-03-23T09:04:13Z</time>
      </trkpt>
      <trkpt lat="48.37683" lon="2.59346">
        <ele>132.32</ele>
        <time>2014-03-23T09:04:17Z</time>
      </trkpt>
      <trkpt lat="48.37679" lon="2.59349">
        <ele>132.32</ele>
        <time>2014-03-23T09:04:18Z</time>
      </trkpt>
      <trkpt lat="48.37663" lon="2.59359">
        <ele>132.32</ele>
        <time>2014-03-23T09:04:21Z</time>
      </trkpt>
      <trkpt lat="48.37599" lon="2.59409">
        <ele>133.76</ele>
        <time>2014-03-23T09:04:35Z</time>
      </trkpt>
      <trkpt lat="48.37575" lon="2.59429">
        <ele>134.24</ele>
        <time>2014-03-23T09:04:41Z</time>
      </trkpt>
      <trkpt lat="48.3757" lon="2.59432">
        <ele>134.24</ele>
        <time>2014-03-23T09:04:42Z</time>
      </trkpt>
      <trkpt lat="48.37566" lon="2.59435">
        <ele>134.24</ele>
        <time>2014-03-23T09:04:43Z</time>
      </trkpt>
      <trkpt lat="48.37546" lon="2.59452">
        <ele>135.2</ele>
        <time>2014-03-23T09:04:48Z</time>
      </trkpt>
      <trkpt lat="48.37542" lon="2.59456">
        <ele>135.2</ele>
        <time>2014-03-23T09:04:49Z</time>
      </trkpt>
      <trkpt lat="48.37539" lon="2.59461">
        <ele>135.2</ele>
        <time>2014-03-23T09:04:50Z</time>
      </trkpt>
      <trkpt lat="48.37537" lon="2.59467">
        <ele>135.2</ele>
        <time>2014-03-23T09:04:51Z</time>
      </trkpt>
      <trkpt lat="48.37536" lon="2.59473">
        <ele>135.2</ele>
        <time>2014-03-23T09:04:52Z</time>
      </trkpt>
      <trkpt lat="48.37535" lon="2.5948">
        <ele>135.2</ele>
        <time>2014-03-23T09:04:53Z</time>
      </trkpt>
      <trkpt lat="48.37535" lon="2.59487">
        <ele>135.2</ele>
        <time>2014-03-23T09:04:54Z</time>
      </trkpt>
      <trkpt lat="48.37535" lon="2.59494">
        <ele>135.68</ele>
        <time>2014-03-23T09:04:55Z</time>
      </trkpt>
      <trkpt lat="48.37535" lon="2.59516">
        <ele>135.68</ele>
        <time>2014-03-23T09:04:58Z</time>
      </trkpt>
      <trkpt lat="48.37535" lon="2.59523">
        <ele>135.68</ele>
        <time>2014-03-23T09:04:59Z</time>
      </trkpt>
      <trkpt lat="48.37535" lon="2.59575">
        <ele>135.68</ele>
        <time>2014-03-23T09:05:05Z</time>
      </trkpt>
      <trkpt lat="48.37532" lon="2.59691">
        <ele>134.24</ele>
        <time>2014-03-23T09:05:18Z</time>
      </trkpt>
      <trkpt lat="48.37533" lon="2.59828">
        <ele>134.24</ele>
        <time>2014-03-23T09:05:33Z</time>
      </trkpt>
      <trkpt lat="48.37532" lon="2.59877">
        <ele>133.76</ele>
        <time>2014-03-23T09:05:38Z</time>
      </trkpt>
      <trkpt lat="48.37533" lon="2.60038">
        <ele>131.36</ele>
        <time>2014-03-23T09:05:52Z</time>
      </trkpt>
      <trkpt lat="48.37532" lon="2.60101">
        <ele>131.36</ele>
        <time>2014-03-23T09:05:58Z</time>
      </trkpt>
      <trkpt lat="48.37538" lon="2.60265">
        <ele>130.4</ele>
        <time>2014-03-23T09:06:13Z</time>
      </trkpt>
      <trkpt lat="48.37536" lon="2.60303">
        <ele>129.92</ele>
        <time>2014-03-23T09:06:18Z</time>
      </trkpt>
      <trkpt lat="48.37538" lon="2.60354">
        <ele>129.43</ele>
        <time>2014-03-23T09:06:24Z</time>
      </trkpt>
      <trkpt lat="48.3754" lon="2.60363">
        <ele>129.43</ele>
        <time>2014-03-23T09:06:25Z</time>
      </trkpt>
      <trkpt lat="48.37544" lon="2.6037">
        <ele>129.43</ele>
        <time>2014-03-23T09:06:26Z</time>
      </trkpt>
      <trkpt lat="48.37548" lon="2.60377">
        <ele>129.43</ele>
        <time>2014-03-23T09:06:27Z</time>
      </trkpt>
      <trkpt lat="48.37553" lon="2.60384">
        <ele>129.43</ele>
        <time>2014-03-23T09:06:28Z</time>
      </trkpt>
      <trkpt lat="48.3757" lon="2.60408">
        <ele>129.43</ele>
        <time>2014-03-23T09:06:32Z</time>
      </trkpt>
      <trkpt lat="48.37575" lon="2.60414">
        <ele>129.43</ele>
        <time>2014-03-23T09:06:33Z</time>
      </trkpt>
      <trkpt lat="48.37636" lon="2.60492">
        <ele>129.43</ele>
        <time>2014-03-23T09:06:48Z</time>
      </trkpt>
      <trkpt lat="48.37672" lon="2.60534">
        <ele>130.88</ele>
        <time>2014-03-23T09:06:57Z</time>
      </trkpt>
      <trkpt lat="48.37725" lon="2.606">
        <ele>131.84</ele>
        <time>2014-03-23T09:07:11Z</time>
      </trkpt>
      <trkpt lat="48.37753" lon="2.60634">
        <ele>132.32</ele>
        <time>2014-03-23T09:07:19Z</time>
      </trkpt>
      <trkpt lat="48.37806" lon="2.60697">
        <ele>132.8</ele>
        <time>2014-03-23T09:07:34Z</time>
      </trkpt>
      <trkpt lat="48.37855" lon="2.60755">
        <ele>132.8</ele>
        <time>2014-03-23T09:07:48Z</time>
      </trkpt>
      <trkpt lat="48.3789" lon="2.60799">
        <ele>133.28</ele>
        <time>2014-03-23T09:07:59Z</time>
      </trkpt>
      <trkpt lat="48.37938" lon="2.60856">
        <ele>133.76</ele>
        <time>2014-03-23T09:08:13Z</time>
      </trkpt>
      <trkpt lat="48.37986" lon="2.60914">
        <ele>133.76</ele>
        <time>2014-03-23T09:08:27Z</time>
      </trkpt>
      <trkpt lat="48.38037" lon="2.60976">
        <ele>133.76</ele>
        <time>2014-03-23T09:08:41Z</time>
      </trkpt>
      <trkpt lat="48.38051" lon="2.60994">
        <ele>133.76</ele>
        <time>2014-03-23T09:08:45Z</time>
      </trkpt>
      <trkpt lat="48.38055" lon="2.60998">
        <ele>133.76</ele>
        <time>2014-03-23T09:08:46Z</time>
      </trkpt>
      <trkpt lat="48.38058" lon="2.61002">
        <ele>133.76</ele>
        <time>2014-03-23T09:08:47Z</time>
      </trkpt>
      <trkpt lat="48.3811" lon="2.61064">
        <ele>133.76</ele>
        <time>2014-03-23T09:09:01Z</time>
      </trkpt>
      <trkpt lat="48.38114" lon="2.61068">
        <ele>133.76</ele>
        <time>2014-03-23T09:09:02Z</time>
      </trkpt>
      <trkpt lat="48.38127" lon="2.61087">
        <ele>133.76</ele>
        <time>2014-03-23T09:09:06Z</time>
      </trkpt>
      <trkpt lat="48.3813" lon="2.61092">
        <ele>133.76</ele>
        <time>2014-03-23T09:09:07Z</time>
      </trkpt>
      <trkpt lat="48.38132" lon="2.61098">
        <ele>133.76</ele>
        <time>2014-03-23T09:09:08Z</time>
      </trkpt>
      <trkpt lat="48.38133" lon="2.61104">
        <ele>133.76</ele>
        <time>2014-03-23T09:09:09Z</time>
      </trkpt>
      <trkpt lat="48.38134" lon="2.6111">
        <ele>133.76</ele>
        <time>2014-03-23T09:09:10Z</time>
      </trkpt>
      <trkpt lat="48.38134" lon="2.61117">
        <ele>133.76</ele>
        <time>2014-03-23T09:09:11Z</time>
      </trkpt>
      <trkpt lat="48.38135" lon="2.61123">
        <ele>133.76</ele>
        <time>2014-03-23T09:09:12Z</time>
      </trkpt>
      <trkpt lat="48.38135" lon="2.61129">
        <ele>133.76</ele>
        <time>2014-03-23T09:09:13Z</time>
      </trkpt>
      <trkpt lat="48.38135" lon="2.61135">
        <ele>133.76</ele>
        <time>2014-03-23T09:09:14Z</time>
      </trkpt>
      <trkpt lat="48.38136" lon="2.6118">
        <ele>133.76</ele>
        <time>2014-03-23T09:09:21Z</time>
      </trkpt>
      <trkpt lat="48.38137" lon="2.61186">
        <ele>133.76</ele>
        <time>2014-03-23T09:09:22Z</time>
      </trkpt>
      <trkpt lat="48.38138" lon="2.61279">
        <ele>133.76</ele>
        <time>2014-03-23T09:09:35Z</time>
      </trkpt>
      <trkpt lat="48.38138" lon="2.61317">
        <ele>132.8</ele>
        <time>2014-03-23T09:09:40Z</time>
      </trkpt>
      <trkpt lat="48.3814" lon="2.61396">
        <ele>131.36</ele>
        <time>2014-03-23T09:09:50Z</time>
      </trkpt>
      <trkpt lat="48.3814" lon="2.61404">
        <ele>131.36</ele>
        <time>2014-03-23T09:09:51Z</time>
      </trkpt>
      <trkpt lat="48.3814" lon="2.61412">
        <ele>131.36</ele>
        <time>2014-03-23T09:09:52Z</time>
      </trkpt>
      <trkpt lat="48.38141" lon="2.61476">
        <ele>131.36</ele>
        <time>2014-03-23T09:10:01Z</time>
      </trkpt>
      <trkpt lat="48.38144" lon="2.61514">
        <ele>130.88</ele>
        <time>2014-03-23T09:10:06Z</time>
      </trkpt>
      <trkpt lat="48.38146" lon="2.61601">
        <ele>130.88</ele>
        <time>2014-03-23T09:10:18Z</time>
      </trkpt>
      <trkpt lat="48.38148" lon="2.61676">
        <ele>132.32</ele>
        <time>2014-03-23T09:10:28Z</time>
      </trkpt>
      <trkpt lat="48.38148" lon="2.61683">
        <ele>132.32</ele>
        <time>2014-03-23T09:10:29Z</time>
      </trkpt>
      <trkpt lat="48.38148" lon="2.6169">
        <ele>132.32</ele>
        <time>2014-03-23T09:10:30Z</time>
      </trkpt>
      <trkpt lat="48.38148" lon="2.61697">
        <ele>132.32</ele>
        <time>2014-03-23T09:10:31Z</time>
      </trkpt>
      <trkpt lat="48.38149" lon="2.61703">
        <ele>132.32</ele>
        <time>2014-03-23T09:10:32Z</time>
      </trkpt>
      <trkpt lat="48.38149" lon="2.6171">
        <ele>132.32</ele>
        <time>2014-03-23T09:10:33Z</time>
      </trkpt>
      <trkpt lat="48.3815" lon="2.61788">
        <ele>132.32</ele>
        <time>2014-03-23T09:10:45Z</time>
      </trkpt>
      <trkpt lat="48.38152" lon="2.61809">
        <ele>132.32</ele>
        <time>2014-03-23T09:10:48Z</time>
      </trkpt>
      <trkpt lat="48.38152" lon="2.61816">
        <ele>132.32</ele>
        <time>2014-03-23T09:10:49Z</time>
      </trkpt>
      <trkpt lat="48.38152" lon="2.61824">
        <ele>132.32</ele>
        <time>2014-03-23T09:10:50Z</time>
      </trkpt>
      <trkpt lat="48.38152" lon="2.61831">
        <ele>132.32</ele>
        <time>2014-03-23T09:10:51Z</time>
      </trkpt>
      <trkpt lat="48.38152" lon="2.61838">
        <ele>132.32</ele>
        <time>2014-03-23T09:10:52Z</time>
      </trkpt>
      <trkpt lat="48.38152" lon="2.61846">
        <ele>132.32</ele>
        <time>2014-03-23T09:10:53Z</time>
      </trkpt>
      <trkpt lat="48.38165" lon="2.61923">
        <ele>132.32</ele>
        <time>2014-03-23T09:11:06Z</time>
      </trkpt>
      <trkpt lat="48.38189" lon="2.61996">
        <ele>132.32</ele>
        <time>2014-03-23T09:11:19Z</time>
      </trkpt>
      <trkpt lat="48.38199" lon="2.62029">
        <ele>132.8</ele>
        <time>2014-03-23T09:11:31Z</time>
      </trkpt>
      <trkpt lat="48.382" lon="2.62029">
        <ele>132.8</ele>
        <time>2014-03-23T09:11:44Z</time>
      </trkpt>
      <trkpt lat="48.382" lon="2.62027">
        <ele>132.8</ele>
        <time>2014-03-23T09:11:56Z</time>
      </trkpt>
      <trkpt lat="48.38202" lon="2.62024">
        <ele>132.8</ele>
        <time>2014-03-23T09:12:09Z</time>
      </trkpt>
      <trkpt lat="48.38203" lon="2.62033">
        <ele>132.8</ele>
        <time>2014-03-23T09:12:52Z</time>
      </trkpt>
      <trkpt lat="48.38204" lon="2.62032">
        <ele>132.8</ele>
        <time>2014-03-23T09:13:21Z</time>
      </trkpt>
      <trkpt lat="48.38202" lon="2.62025">
        <ele>132.8</ele>
        <time>2014-03-23T09:13:45Z</time>
      </trkpt>
      <trkpt lat="48.382" lon="2.62015">
        <ele>132.8</ele>
        <time>2014-03-23T09:14:16Z</time>
      </trkpt>
      <trkpt lat="48.382" lon="2.62012">
        <ele>131.84</ele>
        <time>2014-03-23T09:14:45Z</time>
      </trkpt>
      <trkpt lat="48.38201" lon="2.62017">
        <ele>131.84</ele>
        <time>2014-03-23T09:15:12Z</time>
      </trkpt>
      <trkpt lat="48.38203" lon="2.62014">
        <ele>131.84</ele>
        <time>2014-03-23T09:15:37Z</time>
      </trkpt>
      <trkpt lat="48.38201" lon="2.62015">
        <ele>132.32</ele>
        <time>2014-03-23T09:16:08Z</time>
      </trkpt>
      <trkpt lat="48.38201" lon="2.62017">
        <ele>132.32</ele>
        <time>2014-03-23T09:16:29Z</time>
      </trkpt>
      <trkpt lat="48.38199" lon="2.62013">
        <ele>132.32</ele>
        <time>2014-03-23T09:17:09Z</time>
      </trkpt>
      <trkpt lat="48.38203" lon="2.62021">
        <ele>132.32</ele>
        <time>2014-03-23T09:17:45Z</time>
      </trkpt>
      <trkpt lat="48.38199" lon="2.62007">
        <ele>132.32</ele>
        <time>2014-03-23T09:18:35Z</time>
      </trkpt>
      <trkpt lat="48.38197" lon="2.62012">
        <ele>132.32</ele>
        <time>2014-03-23T09:19:22Z</time>
      </trkpt>
      <trkpt lat="48.38202" lon="2.62015">
        <ele>132.32</ele>
        <time>2014-03-23T09:19:55Z</time>
      </trkpt>
      <trkpt lat="48.38199" lon="2.62018">
        <ele>132.32</ele>
        <time>2014-03-23T09:20:22Z</time>
      </trkpt>
      <trkpt lat="48.38199" lon="2.62022">
        <ele>132.32</ele>
        <time>2014-03-23T09:20:49Z</time>
      </trkpt>
      <trkpt lat="48.38198" lon="2.62015">
        <ele>132.32</ele>
        <time>2014-03-23T09:21:13Z</time>
      </trkpt>
      <trkpt lat="48.38198" lon="2.62014">
        <ele>132.32</ele>
        <time>2014-03-23T09:21:36Z</time>
      </trkpt>
      <trkpt lat="48.38202" lon="2.62033">
        <ele>133.28</ele>
        <time>2014-03-23T09:21:47Z</time>
      </trkpt>
      <trkpt lat="48.3822" lon="2.62087">
        <ele>133.28</ele>
        <time>2014-03-23T09:22:01Z</time>
      </trkpt>
      <trkpt lat="48.38237" lon="2.62141">
        <ele>133.76</ele>
        <time>2014-03-23T09:22:16Z</time>
      </trkpt>
      <trkpt lat="48.38258" lon="2.62204">
        <ele>134.24</ele>
        <time>2014-03-23T09:22:27Z</time>
      </trkpt>
      <trkpt lat="48.38267" lon="2.62233">
        <ele>134.24</ele>
        <time>2014-03-23T09:22:32Z</time>
      </trkpt>
      <trkpt lat="48.38291" lon="2.62301">
        <ele>135.2</ele>
        <time>2014-03-23T09:22:44Z</time>
      </trkpt>
      <trkpt lat="48.38293" lon="2.62307">
        <ele>135.68</ele>
        <time>2014-03-23T09:22:45Z</time>
      </trkpt>
      <trkpt lat="48.38295" lon="2.62312">
        <ele>135.68</ele>
        <time>2014-03-23T09:22:46Z</time>
      </trkpt>
      <trkpt lat="48.38309" lon="2.62354">
        <ele>135.68</ele>
        <time>2014-03-23T09:22:53Z</time>
      </trkpt>
      <trkpt lat="48.38313" lon="2.62366">
        <ele>135.68</ele>
        <time>2014-03-23T09:22:55Z</time>
      </trkpt>
      <trkpt lat="48.38343" lon="2.62452">
        <ele>136.16</ele>
        <time>2014-03-23T09:23:10Z</time>
      </trkpt>
      <trkpt lat="48.38365" lon="2.6252">
        <ele>136.64</ele>
        <time>2014-03-23T09:23:22Z</time>
      </trkpt>
      <trkpt lat="48.38387" lon="2.62588">
        <ele>136.64</ele>
        <time>2014-03-23T09:23:34Z</time>
      </trkpt>
      <trkpt lat="48.38396" lon="2.62613">
        <ele>136.64</ele>
        <time>2014-03-23T09:23:38Z</time>
      </trkpt>
      <trkpt lat="48.38425" lon="2.62705">
        <ele>136.64</ele>
        <time>2014-03-23T09:23:52Z</time>
      </trkpt>
      <trkpt lat="48.38456" lon="2.62796">
        <ele>136.64</ele>
        <time>2014-03-23T09:24:06Z</time>
      </trkpt>
      <trkpt lat="48.38466" lon="2.6283">
        <ele>136.64</ele>
        <time>2014-03-23T09:24:11Z</time>
      </trkpt>
      <trkpt lat="48.38469" lon="2.62837">
        <ele>136.64</ele>
        <time>2014-03-23T09:24:12Z</time>
      </trkpt>
      <trkpt lat="48.38472" lon="2.62843">
        <ele>136.64</ele>
        <time>2014-03-23T09:24:13Z</time>
      </trkpt>
      <trkpt lat="48.38474" lon="2.6285">
        <ele>136.64</ele>
        <time>2014-03-23T09:24:14Z</time>
      </trkpt>
      <trkpt lat="48.38476" lon="2.62857">
        <ele>136.64</ele>
        <time>2014-03-23T09:24:15Z</time>
      </trkpt>
      <trkpt lat="48.38478" lon="2.62864">
        <ele>136.64</ele>
        <time>2014-03-23T09:24:16Z</time>
      </trkpt>
      <trkpt lat="48.38498" lon="2.62921">
        <ele>136.64</ele>
        <time>2014-03-23T09:24:25Z</time>
      </trkpt>
      <trkpt lat="48.385" lon="2.62928">
        <ele>136.64</ele>
        <time>2014-03-23T09:24:26Z</time>
      </trkpt>
      <trkpt lat="48.38521" lon="2.62988">
        <ele>136.64</ele>
        <time>2014-03-23T09:24:35Z</time>
      </trkpt>
      <trkpt lat="48.38528" lon="2.63007">
        <ele>136.64</ele>
        <time>2014-03-23T09:24:39Z</time>
      </trkpt>
      <trkpt lat="48.38529" lon="2.63012">
        <ele>136.64</ele>
        <time>2014-03-23T09:24:40Z</time>
      </trkpt>
      <trkpt lat="48.38529" lon="2.63017">
        <ele>136.64</ele>
        <time>2014-03-23T09:24:41Z</time>
      </trkpt>
      <trkpt lat="48.38529" lon="2.63023">
        <ele>136.64</ele>
        <time>2014-03-23T09:24:42Z</time>
      </trkpt>
      <trkpt lat="48.38528" lon="2.63028">
        <ele>136.64</ele>
        <time>2014-03-23T09:24:43Z</time>
      </trkpt>
      <trkpt lat="48.38527" lon="2.63033">
        <ele>136.64</ele>
        <time>2014-03-23T09:24:44Z</time>
      </trkpt>
      <trkpt lat="48.38525" lon="2.63037">
        <ele>136.64</ele>
        <time>2014-03-23T09:24:45Z</time>
      </trkpt>
      <trkpt lat="48.38524" lon="2.63041">
        <ele>136.64</ele>
        <time>2014-03-23T09:24:46Z</time>
      </trkpt>
      <trkpt lat="48.38523" lon="2.63044">
        <ele>136.64</ele>
        <time>2014-03-23T09:24:47Z</time>
      </trkpt>
      <trkpt lat="48.38522" lon="2.63048">
        <ele>136.64</ele>
        <time>2014-03-23T09:24:48Z</time>
      </trkpt>
      <trkpt lat="48.38521" lon="2.63064">
        <ele>136.64</ele>
        <time>2014-03-23T09:24:52Z</time>
      </trkpt>
      <trkpt lat="48.38523" lon="2.63068">
        <ele>136.64</ele>
        <time>2014-03-23T09:24:53Z</time>
      </trkpt>
      <trkpt lat="48.38543" lon="2.63097">
        <ele>136.64</ele>
        <time>2014-03-23T09:25:00Z</time>
      </trkpt>
      <trkpt lat="48.38543" lon="2.63104">
        <ele>135.68</ele>
        <time>2014-03-23T09:25:01Z</time>
      </trkpt>
      <trkpt lat="48.38543" lon="2.6311">
        <ele>135.68</ele>
        <time>2014-03-23T09:25:02Z</time>
      </trkpt>
      <trkpt lat="48.38544" lon="2.63117">
        <ele>135.68</ele>
        <time>2014-03-23T09:25:03Z</time>
      </trkpt>
      <trkpt lat="48.38545" lon="2.63124">
        <ele>135.68</ele>
        <time>2014-03-23T09:25:04Z</time>
      </trkpt>
      <trkpt lat="48.38546" lon="2.63131">
        <ele>135.68</ele>
        <time>2014-03-23T09:25:05Z</time>
      </trkpt>
      <trkpt lat="48.38551" lon="2.63195">
        <ele>135.2</ele>
        <time>2014-03-23T09:25:13Z</time>
      </trkpt>
      <trkpt lat="48.38557" lon="2.63303">
        <ele>135.2</ele>
        <time>2014-03-23T09:25:25Z</time>
      </trkpt>
      <trkpt lat="48.38559" lon="2.63354">
        <ele>135.2</ele>
        <time>2014-03-23T09:25:31Z</time>
      </trkpt>
      <trkpt lat="48.38561" lon="2.63397">
        <ele>135.2</ele>
        <time>2014-03-23T09:25:36Z</time>
      </trkpt>
      <trkpt lat="48.38565" lon="2.63494">
        <ele>135.2</ele>
        <time>2014-03-23T09:25:47Z</time>
      </trkpt>
      <trkpt lat="48.38572" lon="2.63592">
        <ele>134.72</ele>
        <time>2014-03-23T09:25:58Z</time>
      </trkpt>
      <trkpt lat="48.38576" lon="2.63689">
        <ele>132.8</ele>
        <time>2014-03-23T09:26:09Z</time>
      </trkpt>
      <trkpt lat="48.38577" lon="2.63696">
        <ele>132.8</ele>
        <time>2014-03-23T09:26:10Z</time>
      </trkpt>
      <trkpt lat="48.3858" lon="2.637">
        <ele>132.8</ele>
        <time>2014-03-23T09:26:11Z</time>
      </trkpt>
      <trkpt lat="48.38583" lon="2.63701">
        <ele>132.8</ele>
        <time>2014-03-23T09:26:12Z</time>
      </trkpt>
      <trkpt lat="48.38587" lon="2.63701">
        <ele>132.32</ele>
        <time>2014-03-23T09:26:13Z</time>
      </trkpt>
      <trkpt lat="48.38595" lon="2.63702">
        <ele>131.84</ele>
        <time>2014-03-23T09:26:15Z</time>
      </trkpt>
      <trkpt lat="48.386" lon="2.63703">
        <ele>131.36</ele>
        <time>2014-03-23T09:26:16Z</time>
      </trkpt>
      <trkpt lat="48.38606" lon="2.63705">
        <ele>131.36</ele>
        <time>2014-03-23T09:26:17Z</time>
      </trkpt>
      <trkpt lat="48.38641" lon="2.6371">
        <ele>129.92</ele>
        <time>2014-03-23T09:26:22Z</time>
      </trkpt>
      <trkpt lat="48.38696" lon="2.6372">
        <ele>127.99</ele>
        <time>2014-03-23T09:26:32Z</time>
      </trkpt>
      <trkpt lat="48.38702" lon="2.63722">
        <ele>126.55</ele>
        <time>2014-03-23T09:26:34Z</time>
      </trkpt>
      <trkpt lat="48.3872" lon="2.63726">
        <ele>123.67</ele>
        <time>2014-03-23T09:26:39Z</time>
      </trkpt>
      <trkpt lat="48.38737" lon="2.63728">
        <ele>120.78</ele>
        <time>2014-03-23T09:26:42Z</time>
      </trkpt>
      <trkpt lat="48.38746" lon="2.63729">
        <ele>123.19</ele>
        <time>2014-03-23T09:26:45Z</time>
      </trkpt>
      <trkpt lat="48.38748" lon="2.63729">
        <ele>123.67</ele>
        <time>2014-03-23T09:26:46Z</time>
      </trkpt>
      <trkpt lat="48.38749" lon="2.63729">
        <ele>124.63</ele>
        <time>2014-03-23T09:26:47Z</time>
      </trkpt>
      <trkpt lat="48.38751" lon="2.63729">
        <ele>124.63</ele>
        <time>2014-03-23T09:26:48Z</time>
      </trkpt>
      <trkpt lat="48.38754" lon="2.6373">
        <ele>125.11</ele>
        <time>2014-03-23T09:26:49Z</time>
      </trkpt>
      <trkpt lat="48.38756" lon="2.6373">
        <ele>126.07</ele>
        <time>2014-03-23T09:26:50Z</time>
      </trkpt>
      <trkpt lat="48.38759" lon="2.63731">
        <ele>126.55</ele>
        <time>2014-03-23T09:26:51Z</time>
      </trkpt>
      <trkpt lat="48.38775" lon="2.63734">
        <ele>129.92</ele>
        <time>2014-03-23T09:26:58Z</time>
      </trkpt>
      <trkpt lat="48.38787" lon="2.63737">
        <ele>130.88</ele>
        <time>2014-03-23T09:27:05Z</time>
      </trkpt>
      <trkpt lat="48.38789" lon="2.63738">
        <ele>131.36</ele>
        <time>2014-03-23T09:27:06Z</time>
      </trkpt>
      <trkpt lat="48.38814" lon="2.63744">
        <ele>132.32</ele>
        <time>2014-03-23T09:27:18Z</time>
      </trkpt>
      <trkpt lat="48.38822" lon="2.63746">
        <ele>132.32</ele>
        <time>2014-03-23T09:27:29Z</time>
      </trkpt>
      <trkpt lat="48.38822" lon="2.6375">
        <ele>132.32</ele>
        <time>2014-03-23T09:27:36Z</time>
      </trkpt>
      <trkpt lat="48.38823" lon="2.63753">
        <ele>132.32</ele>
        <time>2014-03-23T09:27:37Z</time>
      </trkpt>
      <trkpt lat="48.38824" lon="2.63756">
        <ele>132.32</ele>
        <time>2014-03-23T09:27:38Z</time>
      </trkpt>
      <trkpt lat="48.3883" lon="2.63821">
        <ele>132.32</ele>
        <time>2014-03-23T09:27:50Z</time>
      </trkpt>
      <trkpt lat="48.38836" lon="2.63882">
        <ele>132.32</ele>
        <time>2014-03-23T09:28:01Z</time>
      </trkpt>
      <trkpt lat="48.38846" lon="2.63965">
        <ele>131.36</ele>
        <time>2014-03-23T09:28:15Z</time>
      </trkpt>
      <trkpt lat="48.38847" lon="2.63983">
        <ele>131.36</ele>
        <time>2014-03-23T09:28:18Z</time>
      </trkpt>
      <trkpt lat="48.38848" lon="2.63988">
        <ele>131.36</ele>
        <time>2014-03-23T09:28:19Z</time>
      </trkpt>
      <trkpt lat="48.38853" lon="2.6401">
        <ele>131.36</ele>
        <time>2014-03-23T09:28:25Z</time>
      </trkpt>
      <trkpt lat="48.38854" lon="2.64012">
        <ele>131.36</ele>
        <time>2014-03-23T09:28:26Z</time>
      </trkpt>
      <trkpt lat="48.38855" lon="2.64014">
        <ele>131.36</ele>
        <time>2014-03-23T09:28:27Z</time>
      </trkpt>
      <trkpt lat="48.38856" lon="2.64016">
        <ele>131.36</ele>
        <time>2014-03-23T09:28:28Z</time>
      </trkpt>
      <trkpt lat="48.38855" lon="2.64018">
        <ele>130.88</ele>
        <time>2014-03-23T09:28:29Z</time>
      </trkpt>
      <trkpt lat="48.38854" lon="2.64021">
        <ele>130.88</ele>
        <time>2014-03-23T09:28:30Z</time>
      </trkpt>
      <trkpt lat="48.38853" lon="2.64024">
        <ele>130.88</ele>
        <time>2014-03-23T09:28:31Z</time>
      </trkpt>
      <trkpt lat="48.38853" lon="2.64027">
        <ele>130.88</ele>
        <time>2014-03-23T09:28:32Z</time>
      </trkpt>
      <trkpt lat="48.38853" lon="2.64032">
        <ele>130.88</ele>
        <time>2014-03-23T09:28:33Z</time>
      </trkpt>
      <trkpt lat="48.38856" lon="2.64062">
        <ele>130.4</ele>
        <time>2014-03-23T09:28:38Z</time>
      </trkpt>
      <trkpt lat="48.38857" lon="2.64081">
        <ele>130.4</ele>
        <time>2014-03-23T09:28:41Z</time>
      </trkpt>
      <trkpt lat="48.38856" lon="2.64087">
        <ele>130.4</ele>
        <time>2014-03-23T09:28:42Z</time>
      </trkpt>
      <trkpt lat="48.38854" lon="2.64093">
        <ele>130.4</ele>
        <time>2014-03-23T09:28:43Z</time>
      </trkpt>
      <trkpt lat="48.38852" lon="2.64098">
        <ele>130.4</ele>
        <time>2014-03-23T09:28:44Z</time>
      </trkpt>
      <trkpt lat="48.3885" lon="2.64104">
        <ele>130.4</ele>
        <time>2014-03-23T09:28:45Z</time>
      </trkpt>
      <trkpt lat="48.38837" lon="2.64131">
        <ele>129.92</ele>
        <time>2014-03-23T09:28:50Z</time>
      </trkpt>
      <trkpt lat="48.38832" lon="2.64142">
        <ele>129.43</ele>
        <time>2014-03-23T09:28:52Z</time>
      </trkpt>
      <trkpt lat="48.388" lon="2.64213">
        <ele>127.99</ele>
        <time>2014-03-23T09:29:03Z</time>
      </trkpt>
      <trkpt lat="48.38799" lon="2.64221">
        <ele>127.99</ele>
        <time>2014-03-23T09:29:04Z</time>
      </trkpt>
      <trkpt lat="48.38798" lon="2.64229">
        <ele>127.51</ele>
        <time>2014-03-23T09:29:05Z</time>
      </trkpt>
      <trkpt lat="48.38798" lon="2.64238">
        <ele>126.55</ele>
        <time>2014-03-23T09:29:06Z</time>
      </trkpt>
      <trkpt lat="48.38798" lon="2.64248">
        <ele>126.07</ele>
        <time>2014-03-23T09:29:07Z</time>
      </trkpt>
      <trkpt lat="48.38799" lon="2.64257">
        <ele>125.59</ele>
        <time>2014-03-23T09:29:08Z</time>
      </trkpt>
      <trkpt lat="48.38802" lon="2.64278">
        <ele>124.15</ele>
        <time>2014-03-23T09:29:10Z</time>
      </trkpt>
      <trkpt lat="48.38807" lon="2.64314">
        <ele>119.82</ele>
        <time>2014-03-23T09:29:13Z</time>
      </trkpt>
      <trkpt lat="48.38812" lon="2.64359">
        <ele>115.5</ele>
        <time>2014-03-23T09:29:16Z</time>
      </trkpt>
      <trkpt lat="48.38819" lon="2.6441">
        <ele>112.61</ele>
        <time>2014-03-23T09:29:19Z</time>
      </trkpt>
      <trkpt lat="48.38828" lon="2.64476">
        <ele>109.25</ele>
        <time>2014-03-23T09:29:23Z</time>
      </trkpt>
      <trkpt lat="48.3883" lon="2.64493">
        <ele>109.25</ele>
        <time>2014-03-23T09:29:24Z</time>
      </trkpt>
      <trkpt lat="48.38842" lon="2.64585">
        <ele>106.36</ele>
        <time>2014-03-23T09:29:30Z</time>
      </trkpt>
      <trkpt lat="48.38853" lon="2.64665">
        <ele>103.96</ele>
        <time>2014-03-23T09:29:38Z</time>
      </trkpt>
      <trkpt lat="48.38851" lon="2.64667">
        <ele>103.96</ele>
        <time>2014-03-23T09:29:39Z</time>
      </trkpt>
      <trkpt lat="48.38848" lon="2.64666">
        <ele>103.96</ele>
        <time>2014-03-23T09:29:40Z</time>
      </trkpt>
      <trkpt lat="48.38801" lon="2.64644">
        <ele>103.96</ele>
        <time>2014-03-23T09:29:51Z</time>
      </trkpt>
      <trkpt lat="48.38796" lon="2.64641">
        <ele>103.96</ele>
        <time>2014-03-23T09:29:52Z</time>
      </trkpt>
      <trkpt lat="48.38791" lon="2.6464">
        <ele>103.96</ele>
        <time>2014-03-23T09:29:53Z</time>
      </trkpt>
      <trkpt lat="48.3878" lon="2.64636">
        <ele>103.96</ele>
        <time>2014-03-23T09:29:55Z</time>
      </trkpt>
      <trkpt lat="48.3872" lon="2.64606">
        <ele>104.44</ele>
        <time>2014-03-23T09:30:07Z</time>
      </trkpt>
      <trkpt lat="48.38662" lon="2.64581">
        <ele>105.4</ele>
        <time>2014-03-23T09:30:19Z</time>
      </trkpt>
      <trkpt lat="48.38657" lon="2.64583">
        <ele>103.48</ele>
        <time>2014-03-23T09:30:20Z</time>
      </trkpt>
      <trkpt lat="48.38654" lon="2.64589">
        <ele>103.48</ele>
        <time>2014-03-23T09:30:21Z</time>
      </trkpt>
      <trkpt lat="48.38654" lon="2.64595">
        <ele>103.48</ele>
        <time>2014-03-23T09:30:22Z</time>
      </trkpt>
      <trkpt lat="48.38654" lon="2.64601">
        <ele>103.48</ele>
        <time>2014-03-23T09:30:23Z</time>
      </trkpt>
      <trkpt lat="48.38654" lon="2.64608">
        <ele>103.48</ele>
        <time>2014-03-23T09:30:24Z</time>
      </trkpt>
      <trkpt lat="48.38654" lon="2.64616">
        <ele>103.48</ele>
        <time>2014-03-23T09:30:25Z</time>
      </trkpt>
      <trkpt lat="48.38655" lon="2.64623">
        <ele>103</ele>
        <time>2014-03-23T09:30:26Z</time>
      </trkpt>
      <trkpt lat="48.38655" lon="2.64632">
        <ele>103</ele>
        <time>2014-03-23T09:30:27Z</time>
      </trkpt>
      <trkpt lat="48.38665" lon="2.64748">
        <ele>101.56</ele>
        <time>2014-03-23T09:30:40Z</time>
      </trkpt>
      <trkpt lat="48.38666" lon="2.64757">
        <ele>101.56</ele>
        <time>2014-03-23T09:30:41Z</time>
      </trkpt>
      <trkpt lat="48.38673" lon="2.64833">
        <ele>103</ele>
        <time>2014-03-23T09:30:50Z</time>
      </trkpt>
      <trkpt lat="48.38674" lon="2.6484">
        <ele>103</ele>
        <time>2014-03-23T09:30:51Z</time>
      </trkpt>
      <trkpt lat="48.38684" lon="2.64934">
        <ele>103.96</ele>
        <time>2014-03-23T09:31:04Z</time>
      </trkpt>
      <trkpt lat="48.38685" lon="2.64947">
        <ele>103.96</ele>
        <time>2014-03-23T09:31:06Z</time>
      </trkpt>
      <trkpt lat="48.38686" lon="2.64954">
        <ele>103.96</ele>
        <time>2014-03-23T09:31:07Z</time>
      </trkpt>
      <trkpt lat="48.38693" lon="2.6502">
        <ele>103.96</ele>
        <time>2014-03-23T09:31:18Z</time>
      </trkpt>
      <trkpt lat="48.38692" lon="2.65024">
        <ele>103.96</ele>
        <time>2014-03-23T09:31:19Z</time>
      </trkpt>
      <trkpt lat="48.3869" lon="2.65024">
        <ele>104.44</ele>
        <time>2014-03-23T09:31:20Z</time>
      </trkpt>
      <trkpt lat="48.38688" lon="2.65023">
        <ele>104.44</ele>
        <time>2014-03-23T09:31:21Z</time>
      </trkpt>
      <trkpt lat="48.38687" lon="2.6502">
        <ele>104.44</ele>
        <time>2014-03-23T09:31:22Z</time>
      </trkpt>
      <trkpt lat="48.38686" lon="2.65018">
        <ele>104.44</ele>
        <time>2014-03-23T09:31:23Z</time>
      </trkpt>
      <trkpt lat="48.38684" lon="2.65016">
        <ele>104.92</ele>
        <time>2014-03-23T09:31:24Z</time>
      </trkpt>
      <trkpt lat="48.38682" lon="2.65013">
        <ele>104.92</ele>
        <time>2014-03-23T09:31:25Z</time>
      </trkpt>
      <trkpt lat="48.3868" lon="2.65011">
        <ele>104.92</ele>
        <time>2014-03-23T09:31:26Z</time>
      </trkpt>
      <trkpt lat="48.38678" lon="2.65008">
        <ele>104.92</ele>
        <time>2014-03-23T09:31:27Z</time>
      </trkpt>
      <trkpt lat="48.38677" lon="2.65006">
        <ele>104.92</ele>
        <time>2014-03-23T09:31:28Z</time>
      </trkpt>
      <trkpt lat="48.38675" lon="2.65004">
        <ele>105.4</ele>
        <time>2014-03-23T09:31:29Z</time>
      </trkpt>
      <trkpt lat="48.38674" lon="2.65002">
        <ele>105.88</ele>
        <time>2014-03-23T09:31:30Z</time>
      </trkpt>
      <trkpt lat="48.38672" lon="2.65">
        <ele>105.88</ele>
        <time>2014-03-23T09:31:31Z</time>
      </trkpt>
      <trkpt lat="48.38651" lon="2.64971">
        <ele>106.84</ele>
        <time>2014-03-23T09:31:46Z</time>
      </trkpt>
      <trkpt lat="48.38632" lon="2.64948">
        <ele>108.29</ele>
        <time>2014-03-23T09:32:00Z</time>
      </trkpt>
      <trkpt lat="48.3861" lon="2.64923">
        <ele>108.77</ele>
        <time>2014-03-23T09:32:14Z</time>
      </trkpt>
      <trkpt lat="48.38585" lon="2.64892">
        <ele>109.73</ele>
        <time>2014-03-23T09:32:29Z</time>
      </trkpt>
      <trkpt lat="48.38566" lon="2.64868">
        <ele>110.21</ele>
        <time>2014-03-23T09:32:42Z</time>
      </trkpt>
      <trkpt lat="48.38564" lon="2.64867">
        <ele>110.21</ele>
        <time>2014-03-23T09:32:43Z</time>
      </trkpt>
      <trkpt lat="48.38563" lon="2.64867">
        <ele>110.69</ele>
        <time>2014-03-23T09:32:44Z</time>
      </trkpt>
      <trkpt lat="48.38561" lon="2.64867">
        <ele>110.69</ele>
        <time>2014-03-23T09:32:45Z</time>
      </trkpt>
      <trkpt lat="48.3856" lon="2.64868">
        <ele>110.69</ele>
        <time>2014-03-23T09:32:46Z</time>
      </trkpt>
      <trkpt lat="48.38549" lon="2.64878">
        <ele>112.61</ele>
        <time>2014-03-23T09:32:58Z</time>
      </trkpt>
      <trkpt lat="48.38539" lon="2.64894">
        <ele>115.5</ele>
        <time>2014-03-23T09:33:09Z</time>
      </trkpt>
      <trkpt lat="48.38538" lon="2.64896">
        <ele>115.5</ele>
        <time>2014-03-23T09:33:10Z</time>
      </trkpt>
      <trkpt lat="48.38534" lon="2.64909">
        <ele>117.42</ele>
        <time>2014-03-23T09:33:23Z</time>
      </trkpt>
      <trkpt lat="48.38528" lon="2.64927">
        <ele>119.34</ele>
        <time>2014-03-23T09:33:37Z</time>
      </trkpt>
      <trkpt lat="48.3852" lon="2.64941">
        <ele>121.26</ele>
        <time>2014-03-23T09:33:52Z</time>
      </trkpt>
      <trkpt lat="48.38514" lon="2.64953">
        <ele>122.71</ele>
        <time>2014-03-23T09:34:05Z</time>
      </trkpt>
      <trkpt lat="48.38507" lon="2.64969">
        <ele>124.63</ele>
        <time>2014-03-23T09:34:20Z</time>
      </trkpt>
      <trkpt lat="48.38507" lon="2.64986">
        <ele>125.59</ele>
        <time>2014-03-23T09:34:33Z</time>
      </trkpt>
      <trkpt lat="48.38507" lon="2.65002">
        <ele>127.03</ele>
        <time>2014-03-23T09:34:45Z</time>
      </trkpt>
      <trkpt lat="48.3851" lon="2.65028">
        <ele>127.99</ele>
        <time>2014-03-23T09:34:58Z</time>
      </trkpt>
      <trkpt lat="48.3851" lon="2.65034">
        <ele>128.47</ele>
        <time>2014-03-23T09:35:01Z</time>
      </trkpt>
      <trkpt lat="48.3851" lon="2.65036">
        <ele>128.47</ele>
        <time>2014-03-23T09:35:02Z</time>
      </trkpt>
      <trkpt lat="48.38512" lon="2.65076">
        <ele>128.95</ele>
        <time>2014-03-23T09:35:16Z</time>
      </trkpt>
      <trkpt lat="48.38514" lon="2.65111">
        <ele>129.43</ele>
        <time>2014-03-23T09:35:26Z</time>
      </trkpt>
      <trkpt lat="48.38516" lon="2.6516">
        <ele>129.43</ele>
        <time>2014-03-23T09:35:37Z</time>
      </trkpt>
      <trkpt lat="48.38514" lon="2.65175">
        <ele>129.43</ele>
        <time>2014-03-23T09:35:41Z</time>
      </trkpt>
      <trkpt lat="48.38516" lon="2.65178">
        <ele>129.43</ele>
        <time>2014-03-23T09:35:42Z</time>
      </trkpt>
      <trkpt lat="48.38541" lon="2.6524">
        <ele>128.47</ele>
        <time>2014-03-23T09:35:57Z</time>
      </trkpt>
      <trkpt lat="48.38543" lon="2.65246">
        <ele>128.47</ele>
        <time>2014-03-23T09:35:58Z</time>
      </trkpt>
      <trkpt lat="48.38547" lon="2.65258">
        <ele>127.99</ele>
        <time>2014-03-23T09:36:00Z</time>
      </trkpt>
      <trkpt lat="48.38548" lon="2.65264">
        <ele>127.99</ele>
        <time>2014-03-23T09:36:01Z</time>
      </trkpt>
      <trkpt lat="48.38565" lon="2.6531">
        <ele>127.51</ele>
        <time>2014-03-23T09:36:08Z</time>
      </trkpt>
      <trkpt lat="48.38571" lon="2.65323">
        <ele>127.51</ele>
        <time>2014-03-23T09:36:10Z</time>
      </trkpt>
      <trkpt lat="48.38573" lon="2.6533">
        <ele>127.51</ele>
        <time>2014-03-23T09:36:11Z</time>
      </trkpt>
      <trkpt lat="48.38574" lon="2.65338">
        <ele>127.51</ele>
        <time>2014-03-23T09:36:12Z</time>
      </trkpt>
      <trkpt lat="48.38576" lon="2.65345">
        <ele>127.51</ele>
        <time>2014-03-23T09:36:13Z</time>
      </trkpt>
      <trkpt lat="48.38579" lon="2.65352">
        <ele>126.55</ele>
        <time>2014-03-23T09:36:14Z</time>
      </trkpt>
      <trkpt lat="48.38581" lon="2.6536">
        <ele>126.55</ele>
        <time>2014-03-23T09:36:15Z</time>
      </trkpt>
      <trkpt lat="48.38612" lon="2.65454">
        <ele>123.19</ele>
        <time>2014-03-23T09:36:26Z</time>
      </trkpt>
      <trkpt lat="48.38615" lon="2.65464">
        <ele>123.19</ele>
        <time>2014-03-23T09:36:27Z</time>
      </trkpt>
      <trkpt lat="48.38627" lon="2.65498">
        <ele>120.3</ele>
        <time>2014-03-23T09:36:30Z</time>
      </trkpt>
      <trkpt lat="48.38635" lon="2.65521">
        <ele>119.34</ele>
        <time>2014-03-23T09:36:32Z</time>
      </trkpt>
      <trkpt lat="48.38643" lon="2.65543">
        <ele>115.01</ele>
        <time>2014-03-23T09:36:34Z</time>
      </trkpt>
      <trkpt lat="48.3865" lon="2.65568">
        <ele>111.65</ele>
        <time>2014-03-23T09:36:36Z</time>
      </trkpt>
      <trkpt lat="48.38659" lon="2.65596">
        <ele>108.29</ele>
        <time>2014-03-23T09:36:38Z</time>
      </trkpt>
      <trkpt lat="48.38669" lon="2.65629">
        <ele>104.44</ele>
        <time>2014-03-23T09:36:40Z</time>
      </trkpt>
      <trkpt lat="48.38686" lon="2.65679">
        <ele>101.08</ele>
        <time>2014-03-23T09:36:43Z</time>
      </trkpt>
      <trkpt lat="48.38707" lon="2.6574">
        <ele>97.71</ele>
        <time>2014-03-23T09:36:47Z</time>
      </trkpt>
      <trkpt lat="48.38715" lon="2.65762">
        <ele>96.75</ele>
        <time>2014-03-23T09:36:49Z</time>
      </trkpt>
      <trkpt lat="48.38718" lon="2.65769">
        <ele>96.27</ele>
        <time>2014-03-23T09:36:50Z</time>
      </trkpt>
      <trkpt lat="48.38721" lon="2.65773">
        <ele>95.79</ele>
        <time>2014-03-23T09:36:51Z</time>
      </trkpt>
      <trkpt lat="48.38724" lon="2.65774">
        <ele>96.27</ele>
        <time>2014-03-23T09:36:52Z</time>
      </trkpt>
      <trkpt lat="48.38727" lon="2.65773">
        <ele>96.27</ele>
        <time>2014-03-23T09:36:53Z</time>
      </trkpt>
      <trkpt lat="48.38729" lon="2.6577">
        <ele>95.79</ele>
        <time>2014-03-23T09:36:54Z</time>
      </trkpt>
      <trkpt lat="48.3873" lon="2.65767">
        <ele>95.79</ele>
        <time>2014-03-23T09:36:55Z</time>
      </trkpt>
      <trkpt lat="48.38731" lon="2.65763">
        <ele>95.79</ele>
        <time>2014-03-23T09:36:56Z</time>
      </trkpt>
      <trkpt lat="48.38733" lon="2.65758">
        <ele>95.79</ele>
        <time>2014-03-23T09:36:57Z</time>
      </trkpt>
      <trkpt lat="48.38746" lon="2.65685">
        <ele>95.31</ele>
        <time>2014-03-23T09:37:12Z</time>
      </trkpt>
      <trkpt lat="48.38758" lon="2.65611">
        <ele>95.31</ele>
        <time>2014-03-23T09:37:29Z</time>
      </trkpt>
      <trkpt lat="48.38768" lon="2.65549">
        <ele>97.23</ele>
        <time>2014-03-23T09:37:44Z</time>
      </trkpt>
      <trkpt lat="48.38782" lon="2.65477">
        <ele>96.75</ele>
        <time>2014-03-23T09:38:00Z</time>
      </trkpt>
      <trkpt lat="48.38794" lon="2.65405">
        <ele>97.23</ele>
        <time>2014-03-23T09:38:16Z</time>
      </trkpt>
      <trkpt lat="48.38804" lon="2.65342">
        <ele>97.23</ele>
        <time>2014-03-23T09:38:31Z</time>
      </trkpt>
      <trkpt lat="48.38815" lon="2.65277">
        <ele>97.23</ele>
        <time>2014-03-23T09:38:44Z</time>
      </trkpt>
      <trkpt lat="48.38825" lon="2.65213">
        <ele>97.23</ele>
        <time>2014-03-23T09:38:57Z</time>
      </trkpt>
      <trkpt lat="48.38835" lon="2.65152">
        <ele>97.23</ele>
        <time>2014-03-23T09:39:09Z</time>
      </trkpt>
      <trkpt lat="48.38847" lon="2.65079">
        <ele>97.71</ele>
        <time>2014-03-23T09:39:26Z</time>
      </trkpt>
      <trkpt lat="48.38856" lon="2.65023">
        <ele>98.19</ele>
        <time>2014-03-23T09:39:41Z</time>
      </trkpt>
      <trkpt lat="48.38867" lon="2.64956">
        <ele>98.67</ele>
        <time>2014-03-23T09:40:00Z</time>
      </trkpt>
      <trkpt lat="48.3887" lon="2.64918">
        <ele>99.15</ele>
        <time>2014-03-23T09:40:12Z</time>
      </trkpt>
      <trkpt lat="48.38872" lon="2.64915">
        <ele>99.15</ele>
        <time>2014-03-23T09:40:15Z</time>
      </trkpt>
      <trkpt lat="48.38874" lon="2.64915">
        <ele>99.15</ele>
        <time>2014-03-23T09:40:16Z</time>
      </trkpt>
      <trkpt lat="48.38886" lon="2.64915">
        <ele>100.11</ele>
        <time>2014-03-23T09:40:31Z</time>
      </trkpt>
      <trkpt lat="48.38889" lon="2.64911">
        <ele>99.63</ele>
        <time>2014-03-23T09:40:51Z</time>
      </trkpt>
      <trkpt lat="48.38917" lon="2.64911">
        <ele>102.52</ele>
        <time>2014-03-23T09:41:04Z</time>
      </trkpt>
      <trkpt lat="48.38939" lon="2.64919">
        <ele>104.92</ele>
        <time>2014-03-23T09:41:17Z</time>
      </trkpt>
      <trkpt lat="48.38963" lon="2.64933">
        <ele>104.92</ele>
        <time>2014-03-23T09:41:29Z</time>
      </trkpt>
      <trkpt lat="48.3899" lon="2.64949">
        <ele>103.48</ele>
        <time>2014-03-23T09:41:38Z</time>
      </trkpt>
      <trkpt lat="48.39014" lon="2.64971">
        <ele>101.56</ele>
        <time>2014-03-23T09:41:43Z</time>
      </trkpt>
      <trkpt lat="48.39018" lon="2.64977">
        <ele>101.56</ele>
        <time>2014-03-23T09:41:44Z</time>
      </trkpt>
      <trkpt lat="48.39021" lon="2.64984">
        <ele>101.08</ele>
        <time>2014-03-23T09:41:45Z</time>
      </trkpt>
      <trkpt lat="48.39036" lon="2.65035">
        <ele>98.67</ele>
        <time>2014-03-23T09:41:51Z</time>
      </trkpt>
      <trkpt lat="48.3904" lon="2.65044">
        <ele>97.71</ele>
        <time>2014-03-23T09:41:52Z</time>
      </trkpt>
      <trkpt lat="48.39044" lon="2.65049">
        <ele>96.75</ele>
        <time>2014-03-23T09:41:53Z</time>
      </trkpt>
      <trkpt lat="48.3905" lon="2.65053">
        <ele>95.79</ele>
        <time>2014-03-23T09:41:54Z</time>
      </trkpt>
      <trkpt lat="48.39056" lon="2.65055">
        <ele>95.79</ele>
        <time>2014-03-23T09:41:55Z</time>
      </trkpt>
      <trkpt lat="48.39077" lon="2.6506">
        <ele>91.94</ele>
        <time>2014-03-23T09:41:58Z</time>
      </trkpt>
      <trkpt lat="48.39095" lon="2.65063">
        <ele>90.98</ele>
        <time>2014-03-23T09:42:00Z</time>
      </trkpt>
      <trkpt lat="48.3914" lon="2.6507">
        <ele>88.1</ele>
        <time>2014-03-23T09:42:05Z</time>
      </trkpt>
      <trkpt lat="48.39146" lon="2.65069">
        <ele>88.1</ele>
        <time>2014-03-23T09:42:06Z</time>
      </trkpt>
      <trkpt lat="48.39152" lon="2.65067">
        <ele>87.14</ele>
        <time>2014-03-23T09:42:07Z</time>
      </trkpt>
      <trkpt lat="48.39156" lon="2.65062">
        <ele>87.14</ele>
        <time>2014-03-23T09:42:08Z</time>
      </trkpt>
      <trkpt lat="48.39158" lon="2.65056">
        <ele>87.14</ele>
        <time>2014-03-23T09:42:09Z</time>
      </trkpt>
      <trkpt lat="48.3916" lon="2.65049">
        <ele>87.14</ele>
        <time>2014-03-23T09:42:10Z</time>
      </trkpt>
      <trkpt lat="48.39161" lon="2.65043">
        <ele>87.14</ele>
        <time>2014-03-23T09:42:11Z</time>
      </trkpt>
      <trkpt lat="48.39162" lon="2.65035">
        <ele>86.66</ele>
        <time>2014-03-23T09:42:12Z</time>
      </trkpt>
      <trkpt lat="48.39179" lon="2.64913">
        <ele>87.14</ele>
        <time>2014-03-23T09:42:29Z</time>
      </trkpt>
      <trkpt lat="48.3919" lon="2.64813">
        <ele>88.58</ele>
        <time>2014-03-23T09:42:46Z</time>
      </trkpt>
      <trkpt lat="48.392" lon="2.64749">
        <ele>89.54</ele>
        <time>2014-03-23T09:43:01Z</time>
      </trkpt>
      <trkpt lat="48.39207" lon="2.6471">
        <ele>89.54</ele>
        <time>2014-03-23T09:43:16Z</time>
      </trkpt>
      <trkpt lat="48.39213" lon="2.64672">
        <ele>89.54</ele>
        <time>2014-03-23T09:43:31Z</time>
      </trkpt>
      <trkpt lat="48.39215" lon="2.6466">
        <ele>89.54</ele>
        <time>2014-03-23T09:43:44Z</time>
      </trkpt>
      <trkpt lat="48.39218" lon="2.64634">
        <ele>89.54</ele>
        <time>2014-03-23T09:44:03Z</time>
      </trkpt>
      <trkpt lat="48.39223" lon="2.64601">
        <ele>90.5</ele>
        <time>2014-03-23T09:44:12Z</time>
      </trkpt>
      <trkpt lat="48.39222" lon="2.64594">
        <ele>90.5</ele>
        <time>2014-03-23T09:44:15Z</time>
      </trkpt>
      <trkpt lat="48.39222" lon="2.64592">
        <ele>90.5</ele>
        <time>2014-03-23T09:44:16Z</time>
      </trkpt>
      <trkpt lat="48.39222" lon="2.6459">
        <ele>90.5</ele>
        <time>2014-03-23T09:44:17Z</time>
      </trkpt>
      <trkpt lat="48.39223" lon="2.64588">
        <ele>90.98</ele>
        <time>2014-03-23T09:44:18Z</time>
      </trkpt>
      <trkpt lat="48.39223" lon="2.64586">
        <ele>90.98</ele>
        <time>2014-03-23T09:44:19Z</time>
      </trkpt>
      <trkpt lat="48.39229" lon="2.64533">
        <ele>91.46</ele>
        <time>2014-03-23T09:44:37Z</time>
      </trkpt>
      <trkpt lat="48.39233" lon="2.64489">
        <ele>91.94</ele>
        <time>2014-03-23T09:44:52Z</time>
      </trkpt>
      <trkpt lat="48.39238" lon="2.64455">
        <ele>92.42</ele>
        <time>2014-03-23T09:45:05Z</time>
      </trkpt>
      <trkpt lat="48.39245" lon="2.64409">
        <ele>92.9</ele>
        <time>2014-03-23T09:45:20Z</time>
      </trkpt>
      <trkpt lat="48.39251" lon="2.64363">
        <ele>93.87</ele>
        <time>2014-03-23T09:45:34Z</time>
      </trkpt>
      <trkpt lat="48.39255" lon="2.6433">
        <ele>94.35</ele>
        <time>2014-03-23T09:45:46Z</time>
      </trkpt>
      <trkpt lat="48.3926" lon="2.64293">
        <ele>95.31</ele>
        <time>2014-03-23T09:46:00Z</time>
      </trkpt>
      <trkpt lat="48.39265" lon="2.64254">
        <ele>95.79</ele>
        <time>2014-03-23T09:46:16Z</time>
      </trkpt>
      <trkpt lat="48.3927" lon="2.64232">
        <ele>96.27</ele>
        <time>2014-03-23T09:46:26Z</time>
      </trkpt>
      <trkpt lat="48.39272" lon="2.64224">
        <ele>96.75</ele>
        <time>2014-03-23T09:46:39Z</time>
      </trkpt>
      <trkpt lat="48.39276" lon="2.64224">
        <ele>96.75</ele>
        <time>2014-03-23T09:47:00Z</time>
      </trkpt>
      <trkpt lat="48.39276" lon="2.64223">
        <ele>96.75</ele>
        <time>2014-03-23T09:47:19Z</time>
      </trkpt>
      <trkpt lat="48.39276" lon="2.64219">
        <ele>96.75</ele>
        <time>2014-03-23T09:47:21Z</time>
      </trkpt>
      <trkpt lat="48.39275" lon="2.64217">
        <ele>96.75</ele>
        <time>2014-03-23T09:47:22Z</time>
      </trkpt>
      <trkpt lat="48.39274" lon="2.64214">
        <ele>96.75</ele>
        <time>2014-03-23T09:47:23Z</time>
      </trkpt>
      <trkpt lat="48.39274" lon="2.64212">
        <ele>96.75</ele>
        <time>2014-03-23T09:47:24Z</time>
      </trkpt>
      <trkpt lat="48.39274" lon="2.64209">
        <ele>96.75</ele>
        <time>2014-03-23T09:47:25Z</time>
      </trkpt>
      <trkpt lat="48.39268" lon="2.64175">
        <ele>97.23</ele>
        <time>2014-03-23T09:47:37Z</time>
      </trkpt>
      <trkpt lat="48.39266" lon="2.64115">
        <ele>97.71</ele>
        <time>2014-03-23T09:47:53Z</time>
      </trkpt>
      <trkpt lat="48.39268" lon="2.64075">
        <ele>98.67</ele>
        <time>2014-03-23T09:48:07Z</time>
      </trkpt>
      <trkpt lat="48.39268" lon="2.64057">
        <ele>98.67</ele>
        <time>2014-03-23T09:48:21Z</time>
      </trkpt>
      <trkpt lat="48.39272" lon="2.64028">
        <ele>99.63</ele>
        <time>2014-03-23T09:48:42Z</time>
      </trkpt>
      <trkpt lat="48.39271" lon="2.63963">
        <ele>100.6</ele>
        <time>2014-03-23T09:48:58Z</time>
      </trkpt>
      <trkpt lat="48.3927" lon="2.63914">
        <ele>102.04</ele>
        <time>2014-03-23T09:49:12Z</time>
      </trkpt>
      <trkpt lat="48.39274" lon="2.63904">
        <ele>103</ele>
        <time>2014-03-23T09:49:25Z</time>
      </trkpt>
      <trkpt lat="48.39274" lon="2.63895">
        <ele>103</ele>
        <time>2014-03-23T09:49:43Z</time>
      </trkpt>
      <trkpt lat="48.39273" lon="2.6389">
        <ele>103</ele>
        <time>2014-03-23T09:49:48Z</time>
      </trkpt>
      <trkpt lat="48.39272" lon="2.63888">
        <ele>103</ele>
        <time>2014-03-23T09:49:49Z</time>
      </trkpt>
      <trkpt lat="48.39267" lon="2.63851">
        <ele>104.44</ele>
        <time>2014-03-23T09:50:02Z</time>
      </trkpt>
      <trkpt lat="48.39267" lon="2.638">
        <ele>105.4</ele>
        <time>2014-03-23T09:50:18Z</time>
      </trkpt>
      <trkpt lat="48.39274" lon="2.63767">
        <ele>106.36</ele>
        <time>2014-03-23T09:50:32Z</time>
      </trkpt>
      <trkpt lat="48.39281" lon="2.63753">
        <ele>107.81</ele>
        <time>2014-03-23T09:50:42Z</time>
      </trkpt>
      <trkpt lat="48.39282" lon="2.63752">
        <ele>107.81</ele>
        <time>2014-03-23T09:50:43Z</time>
      </trkpt>
      <trkpt lat="48.39283" lon="2.6375">
        <ele>107.81</ele>
        <time>2014-03-23T09:50:44Z</time>
      </trkpt>
      <trkpt lat="48.39284" lon="2.63749">
        <ele>107.81</ele>
        <time>2014-03-23T09:50:45Z</time>
      </trkpt>
      <trkpt lat="48.39285" lon="2.63748">
        <ele>108.29</ele>
        <time>2014-03-23T09:50:46Z</time>
      </trkpt>
      <trkpt lat="48.39286" lon="2.63748">
        <ele>108.29</ele>
        <time>2014-03-23T09:50:47Z</time>
      </trkpt>
      <trkpt lat="48.39287" lon="2.63747">
        <ele>108.29</ele>
        <time>2014-03-23T09:50:48Z</time>
      </trkpt>
      <trkpt lat="48.39296" lon="2.63736">
        <ele>109.25</ele>
        <time>2014-03-23T09:50:57Z</time>
      </trkpt>
      <trkpt lat="48.39297" lon="2.63735">
        <ele>109.25</ele>
        <time>2014-03-23T09:50:58Z</time>
      </trkpt>
      <trkpt lat="48.39309" lon="2.63719">
        <ele>110.69</ele>
        <time>2014-03-23T09:51:12Z</time>
      </trkpt>
      <trkpt lat="48.39315" lon="2.63696">
        <ele>111.65</ele>
        <time>2014-03-23T09:51:25Z</time>
      </trkpt>
      <trkpt lat="48.39315" lon="2.6369">
        <ele>112.13</ele>
        <time>2014-03-23T09:51:29Z</time>
      </trkpt>
      <trkpt lat="48.39315" lon="2.63687">
        <ele>112.13</ele>
        <time>2014-03-23T09:51:30Z</time>
      </trkpt>
      <trkpt lat="48.39315" lon="2.63685">
        <ele>112.13</ele>
        <time>2014-03-23T09:51:31Z</time>
      </trkpt>
      <trkpt lat="48.39312" lon="2.63647">
        <ele>114.05</ele>
        <time>2014-03-23T09:51:47Z</time>
      </trkpt>
      <trkpt lat="48.39307" lon="2.63622">
        <ele>115.01</ele>
        <time>2014-03-23T09:52:00Z</time>
      </trkpt>
      <trkpt lat="48.39307" lon="2.6362">
        <ele>115.01</ele>
        <time>2014-03-23T09:52:01Z</time>
      </trkpt>
      <trkpt lat="48.39306" lon="2.63618">
        <ele>115.5</ele>
        <time>2014-03-23T09:52:02Z</time>
      </trkpt>
      <trkpt lat="48.39306" lon="2.63615">
        <ele>115.5</ele>
        <time>2014-03-23T09:52:03Z</time>
      </trkpt>
      <trkpt lat="48.39306" lon="2.63613">
        <ele>115.5</ele>
        <time>2014-03-23T09:52:04Z</time>
      </trkpt>
      <trkpt lat="48.39305" lon="2.63611">
        <ele>115.5</ele>
        <time>2014-03-23T09:52:05Z</time>
      </trkpt>
      <trkpt lat="48.39305" lon="2.63609">
        <ele>115.5</ele>
        <time>2014-03-23T09:52:06Z</time>
      </trkpt>
      <trkpt lat="48.39301" lon="2.63586">
        <ele>116.94</ele>
        <time>2014-03-23T09:52:17Z</time>
      </trkpt>
      <trkpt lat="48.393" lon="2.63571">
        <ele>118.38</ele>
        <time>2014-03-23T09:52:24Z</time>
      </trkpt>
      <trkpt lat="48.39299" lon="2.63569">
        <ele>118.38</ele>
        <time>2014-03-23T09:52:25Z</time>
      </trkpt>
      <trkpt lat="48.39299" lon="2.63567">
        <ele>118.86</ele>
        <time>2014-03-23T09:52:26Z</time>
      </trkpt>
      <trkpt lat="48.39298" lon="2.63565">
        <ele>118.86</ele>
        <time>2014-03-23T09:52:27Z</time>
      </trkpt>
      <trkpt lat="48.39298" lon="2.63562">
        <ele>119.34</ele>
        <time>2014-03-23T09:52:28Z</time>
      </trkpt>
      <trkpt lat="48.39298" lon="2.6356">
        <ele>119.34</ele>
        <time>2014-03-23T09:52:29Z</time>
      </trkpt>
      <trkpt lat="48.39296" lon="2.63549">
        <ele>120.3</ele>
        <time>2014-03-23T09:52:43Z</time>
      </trkpt>
      <trkpt lat="48.39294" lon="2.63547">
        <ele>120.3</ele>
        <time>2014-03-23T09:52:54Z</time>
      </trkpt>
      <trkpt lat="48.39304" lon="2.63503">
        <ele>120.78</ele>
        <time>2014-03-23T09:53:08Z</time>
      </trkpt>
      <trkpt lat="48.39311" lon="2.63465">
        <ele>121.26</ele>
        <time>2014-03-23T09:53:20Z</time>
      </trkpt>
      <trkpt lat="48.39318" lon="2.63431">
        <ele>122.22</ele>
        <time>2014-03-23T09:53:33Z</time>
      </trkpt>
      <trkpt lat="48.39318" lon="2.63428">
        <ele>122.22</ele>
        <time>2014-03-23T09:53:34Z</time>
      </trkpt>
      <trkpt lat="48.39319" lon="2.63425">
        <ele>122.22</ele>
        <time>2014-03-23T09:53:35Z</time>
      </trkpt>
      <trkpt lat="48.3932" lon="2.6341">
        <ele>122.71</ele>
        <time>2014-03-23T09:53:41Z</time>
      </trkpt>
      <trkpt lat="48.3932" lon="2.63408">
        <ele>123.19</ele>
        <time>2014-03-23T09:53:42Z</time>
      </trkpt>
      <trkpt lat="48.3932" lon="2.63406">
        <ele>123.19</ele>
        <time>2014-03-23T09:53:43Z</time>
      </trkpt>
      <trkpt lat="48.39321" lon="2.63404">
        <ele>123.19</ele>
        <time>2014-03-23T09:53:44Z</time>
      </trkpt>
      <trkpt lat="48.39321" lon="2.63403">
        <ele>123.19</ele>
        <time>2014-03-23T09:53:45Z</time>
      </trkpt>
      <trkpt lat="48.39321" lon="2.63401">
        <ele>123.67</ele>
        <time>2014-03-23T09:53:46Z</time>
      </trkpt>
      <trkpt lat="48.3932" lon="2.63391">
        <ele>124.15</ele>
        <time>2014-03-23T09:54:01Z</time>
      </trkpt>
      <trkpt lat="48.39321" lon="2.63387">
        <ele>124.63</ele>
        <time>2014-03-23T09:54:18Z</time>
      </trkpt>
      <trkpt lat="48.39321" lon="2.63385">
        <ele>124.63</ele>
        <time>2014-03-23T09:54:19Z</time>
      </trkpt>
      <trkpt lat="48.39321" lon="2.63383">
        <ele>124.63</ele>
        <time>2014-03-23T09:54:20Z</time>
      </trkpt>
      <trkpt lat="48.39324" lon="2.63348">
        <ele>126.07</ele>
        <time>2014-03-23T09:54:35Z</time>
      </trkpt>
      <trkpt lat="48.39325" lon="2.63339">
        <ele>126.55</ele>
        <time>2014-03-23T09:54:40Z</time>
      </trkpt>
      <trkpt lat="48.39324" lon="2.63337">
        <ele>126.55</ele>
        <time>2014-03-23T09:54:41Z</time>
      </trkpt>
      <trkpt lat="48.39324" lon="2.63334">
        <ele>126.55</ele>
        <time>2014-03-23T09:54:42Z</time>
      </trkpt>
      <trkpt lat="48.39324" lon="2.63331">
        <ele>127.03</ele>
        <time>2014-03-23T09:54:43Z</time>
      </trkpt>
      <trkpt lat="48.39325" lon="2.63328">
        <ele>127.03</ele>
        <time>2014-03-23T09:54:44Z</time>
      </trkpt>
      <trkpt lat="48.39325" lon="2.63325">
        <ele>127.03</ele>
        <time>2014-03-23T09:54:45Z</time>
      </trkpt>
      <trkpt lat="48.39329" lon="2.63295">
        <ele>128.47</ele>
        <time>2014-03-23T09:54:57Z</time>
      </trkpt>
      <trkpt lat="48.39328" lon="2.63291">
        <ele>128.95</ele>
        <time>2014-03-23T09:55:00Z</time>
      </trkpt>
      <trkpt lat="48.39328" lon="2.63289">
        <ele>128.95</ele>
        <time>2014-03-23T09:55:01Z</time>
      </trkpt>
      <trkpt lat="48.39328" lon="2.63272">
        <ele>129.92</ele>
        <time>2014-03-23T09:55:10Z</time>
      </trkpt>
      <trkpt lat="48.39328" lon="2.6327">
        <ele>130.4</ele>
        <time>2014-03-23T09:55:11Z</time>
      </trkpt>
      <trkpt lat="48.39329" lon="2.63266">
        <ele>130.4</ele>
        <time>2014-03-23T09:55:13Z</time>
      </trkpt>
      <trkpt lat="48.39331" lon="2.63242">
        <ele>131.84</ele>
        <time>2014-03-23T09:55:27Z</time>
      </trkpt>
      <trkpt lat="48.39337" lon="2.63208">
        <ele>133.76</ele>
        <time>2014-03-23T09:55:44Z</time>
      </trkpt>
      <trkpt lat="48.39338" lon="2.63184">
        <ele>134.72</ele>
        <time>2014-03-23T09:55:59Z</time>
      </trkpt>
      <trkpt lat="48.39339" lon="2.63161">
        <ele>135.68</ele>
        <time>2014-03-23T09:56:15Z</time>
      </trkpt>
      <trkpt lat="48.3934" lon="2.63159">
        <ele>136.16</ele>
        <time>2014-03-23T09:56:16Z</time>
      </trkpt>
      <trkpt lat="48.39341" lon="2.63158">
        <ele>136.16</ele>
        <time>2014-03-23T09:56:17Z</time>
      </trkpt>
      <trkpt lat="48.39343" lon="2.63157">
        <ele>136.16</ele>
        <time>2014-03-23T09:56:18Z</time>
      </trkpt>
      <trkpt lat="48.39344" lon="2.63155">
        <ele>136.64</ele>
        <time>2014-03-23T09:56:19Z</time>
      </trkpt>
      <trkpt lat="48.39345" lon="2.63154">
        <ele>136.64</ele>
        <time>2014-03-23T09:56:20Z</time>
      </trkpt>
      <trkpt lat="48.39347" lon="2.63152">
        <ele>136.64</ele>
        <time>2014-03-23T09:56:21Z</time>
      </trkpt>
      <trkpt lat="48.39368" lon="2.63137">
        <ele>137.13</ele>
        <time>2014-03-23T09:56:34Z</time>
      </trkpt>
      <trkpt lat="48.39392" lon="2.63135">
        <ele>138.09</ele>
        <time>2014-03-23T09:56:48Z</time>
      </trkpt>
      <trkpt lat="48.39402" lon="2.63137">
        <ele>138.57</ele>
        <time>2014-03-23T09:56:54Z</time>
      </trkpt>
      <trkpt lat="48.39404" lon="2.63136">
        <ele>138.57</ele>
        <time>2014-03-23T09:56:55Z</time>
      </trkpt>
      <trkpt lat="48.39433" lon="2.63142">
        <ele>138.57</ele>
        <time>2014-03-23T09:57:07Z</time>
      </trkpt>
      <trkpt lat="48.39445" lon="2.63182">
        <ele>139.05</ele>
        <time>2014-03-23T09:57:18Z</time>
      </trkpt>
      <trkpt lat="48.39457" lon="2.63226">
        <ele>139.05</ele>
        <time>2014-03-23T09:57:27Z</time>
      </trkpt>
      <trkpt lat="48.39478" lon="2.63317">
        <ele>138.09</ele>
        <time>2014-03-23T09:57:41Z</time>
      </trkpt>
      <trkpt lat="48.39479" lon="2.63323">
        <ele>138.09</ele>
        <time>2014-03-23T09:57:42Z</time>
      </trkpt>
      <trkpt lat="48.39481" lon="2.6333">
        <ele>138.09</ele>
        <time>2014-03-23T09:57:43Z</time>
      </trkpt>
      <trkpt lat="48.39498" lon="2.63402">
        <ele>138.09</ele>
        <time>2014-03-23T09:57:54Z</time>
      </trkpt>
      <trkpt lat="48.395" lon="2.63409">
        <ele>138.09</ele>
        <time>2014-03-23T09:57:55Z</time>
      </trkpt>
      <trkpt lat="48.39519" lon="2.63494">
        <ele>137.61</ele>
        <time>2014-03-23T09:58:07Z</time>
      </trkpt>
      <trkpt lat="48.39534" lon="2.63513">
        <ele>136.64</ele>
        <time>2014-03-23T09:58:11Z</time>
      </trkpt>
      <trkpt lat="48.3954" lon="2.63517">
        <ele>136.16</ele>
        <time>2014-03-23T09:58:12Z</time>
      </trkpt>
      <trkpt lat="48.39545" lon="2.63519">
        <ele>136.16</ele>
        <time>2014-03-23T09:58:13Z</time>
      </trkpt>
      <trkpt lat="48.39549" lon="2.6352">
        <ele>136.16</ele>
        <time>2014-03-23T09:58:14Z</time>
      </trkpt>
      <trkpt lat="48.39554" lon="2.63522">
        <ele>136.16</ele>
        <time>2014-03-23T09:58:15Z</time>
      </trkpt>
      <trkpt lat="48.39558" lon="2.63524">
        <ele>136.16</ele>
        <time>2014-03-23T09:58:16Z</time>
      </trkpt>
      <trkpt lat="48.39562" lon="2.63525">
        <ele>136.16</ele>
        <time>2014-03-23T09:58:17Z</time>
      </trkpt>
      <trkpt lat="48.39567" lon="2.63525">
        <ele>136.16</ele>
        <time>2014-03-23T09:58:18Z</time>
      </trkpt>
      <trkpt lat="48.39572" lon="2.63526">
        <ele>136.16</ele>
        <time>2014-03-23T09:58:19Z</time>
      </trkpt>
      <trkpt lat="48.3963" lon="2.63537">
        <ele>132.8</ele>
        <time>2014-03-23T09:58:29Z</time>
      </trkpt>
      <trkpt lat="48.39649" lon="2.63539">
        <ele>131.36</ele>
        <time>2014-03-23T09:58:32Z</time>
      </trkpt>
      <trkpt lat="48.39655" lon="2.63538">
        <ele>130.88</ele>
        <time>2014-03-23T09:58:33Z</time>
      </trkpt>
      <trkpt lat="48.3966" lon="2.63537">
        <ele>130.88</ele>
        <time>2014-03-23T09:58:34Z</time>
      </trkpt>
      <trkpt lat="48.39664" lon="2.63538">
        <ele>130.4</ele>
        <time>2014-03-23T09:58:35Z</time>
      </trkpt>
      <trkpt lat="48.39668" lon="2.6354">
        <ele>130.4</ele>
        <time>2014-03-23T09:58:36Z</time>
      </trkpt>
      <trkpt lat="48.39671" lon="2.63542">
        <ele>129.92</ele>
        <time>2014-03-23T09:58:37Z</time>
      </trkpt>
      <trkpt lat="48.39673" lon="2.63546">
        <ele>129.43</ele>
        <time>2014-03-23T09:58:38Z</time>
      </trkpt>
      <trkpt lat="48.39676" lon="2.63551">
        <ele>128.95</ele>
        <time>2014-03-23T09:58:39Z</time>
      </trkpt>
      <trkpt lat="48.39678" lon="2.63559">
        <ele>127.99</ele>
        <time>2014-03-23T09:58:40Z</time>
      </trkpt>
      <trkpt lat="48.3968" lon="2.63566">
        <ele>127.51</ele>
        <time>2014-03-23T09:58:41Z</time>
      </trkpt>
      <trkpt lat="48.39692" lon="2.63615">
        <ele>123.19</ele>
        <time>2014-03-23T09:58:46Z</time>
      </trkpt>
      <trkpt lat="48.39694" lon="2.63625">
        <ele>122.71</ele>
        <time>2014-03-23T09:58:47Z</time>
      </trkpt>
      <trkpt lat="48.39702" lon="2.63639">
        <ele>121.26</ele>
        <time>2014-03-23T09:58:49Z</time>
      </trkpt>
      <trkpt lat="48.39726" lon="2.63643">
        <ele>117.9</ele>
        <time>2014-03-23T09:58:53Z</time>
      </trkpt>
      <trkpt lat="48.39737" lon="2.63632">
        <ele>116.94</ele>
        <time>2014-03-23T09:58:55Z</time>
      </trkpt>
      <trkpt lat="48.39757" lon="2.63638">
        <ele>114.53</ele>
        <time>2014-03-23T09:58:59Z</time>
      </trkpt>
      <trkpt lat="48.39762" lon="2.63647">
        <ele>113.09</ele>
        <time>2014-03-23T09:59:00Z</time>
      </trkpt>
      <trkpt lat="48.3977" lon="2.63665">
        <ele>111.65</ele>
        <time>2014-03-23T09:59:02Z</time>
      </trkpt>
      <trkpt lat="48.39785" lon="2.63693">
        <ele>110.21</ele>
        <time>2014-03-23T09:59:05Z</time>
      </trkpt>
      <trkpt lat="48.39796" lon="2.63712">
        <ele>108.29</ele>
        <time>2014-03-23T09:59:07Z</time>
      </trkpt>
      <trkpt lat="48.39811" lon="2.63743">
        <ele>106.36</ele>
        <time>2014-03-23T09:59:10Z</time>
      </trkpt>
      <trkpt lat="48.3982" lon="2.63761">
        <ele>105.4</ele>
        <time>2014-03-23T09:59:12Z</time>
      </trkpt>
      <trkpt lat="48.39823" lon="2.63771">
        <ele>105.4</ele>
        <time>2014-03-23T09:59:13Z</time>
      </trkpt>
      <trkpt lat="48.39825" lon="2.63781">
        <ele>105.4</ele>
        <time>2014-03-23T09:59:14Z</time>
      </trkpt>
      <trkpt lat="48.39826" lon="2.63791">
        <ele>104.44</ele>
        <time>2014-03-23T09:59:15Z</time>
      </trkpt>
      <trkpt lat="48.39826" lon="2.63801">
        <ele>104.92</ele>
        <time>2014-03-23T09:59:16Z</time>
      </trkpt>
      <trkpt lat="48.39825" lon="2.6381">
        <ele>104.92</ele>
        <time>2014-03-23T09:59:17Z</time>
      </trkpt>
      <trkpt lat="48.3982" lon="2.63914">
        <ele>103</ele>
        <time>2014-03-23T09:59:29Z</time>
      </trkpt>
      <trkpt lat="48.39815" lon="2.63982">
        <ele>101.08</ele>
        <time>2014-03-23T09:59:37Z</time>
      </trkpt>
      <trkpt lat="48.39808" lon="2.64046">
        <ele>100.11</ele>
        <time>2014-03-23T09:59:44Z</time>
      </trkpt>
      <trkpt lat="48.39805" lon="2.64076">
        <ele>99.63</ele>
        <time>2014-03-23T09:59:47Z</time>
      </trkpt>
      <trkpt lat="48.39804" lon="2.64086">
        <ele>99.63</ele>
        <time>2014-03-23T09:59:48Z</time>
      </trkpt>
      <trkpt lat="48.3979" lon="2.64204">
        <ele>98.19</ele>
        <time>2014-03-23T10:00:00Z</time>
      </trkpt>
      <trkpt lat="48.39782" lon="2.64258">
        <ele>96.75</ele>
        <time>2014-03-23T10:00:06Z</time>
      </trkpt>
      <trkpt lat="48.39775" lon="2.64278">
        <ele>96.27</ele>
        <time>2014-03-23T10:00:09Z</time>
      </trkpt>
      <trkpt lat="48.39774" lon="2.64284">
        <ele>96.27</ele>
        <time>2014-03-23T10:00:10Z</time>
      </trkpt>
      <trkpt lat="48.39774" lon="2.6429">
        <ele>96.27</ele>
        <time>2014-03-23T10:00:11Z</time>
      </trkpt>
      <trkpt lat="48.39773" lon="2.64296">
        <ele>96.27</ele>
        <time>2014-03-23T10:00:12Z</time>
      </trkpt>
      <trkpt lat="48.39773" lon="2.64302">
        <ele>96.27</ele>
        <time>2014-03-23T10:00:13Z</time>
      </trkpt>
      <trkpt lat="48.39773" lon="2.64308">
        <ele>96.27</ele>
        <time>2014-03-23T10:00:14Z</time>
      </trkpt>
      <trkpt lat="48.39773" lon="2.64314">
        <ele>96.27</ele>
        <time>2014-03-23T10:00:15Z</time>
      </trkpt>
      <trkpt lat="48.39773" lon="2.6432">
        <ele>96.27</ele>
        <time>2014-03-23T10:00:16Z</time>
      </trkpt>
      <trkpt lat="48.39775" lon="2.64388">
        <ele>96.27</ele>
        <time>2014-03-23T10:00:28Z</time>
      </trkpt>
      <trkpt lat="48.39774" lon="2.64467">
        <ele>96.27</ele>
        <time>2014-03-23T10:00:41Z</time>
      </trkpt>
      <trkpt lat="48.39773" lon="2.64522">
        <ele>96.27</ele>
        <time>2014-03-23T10:00:52Z</time>
      </trkpt>
      <trkpt lat="48.39773" lon="2.64592">
        <ele>96.27</ele>
        <time>2014-03-23T10:01:05Z</time>
      </trkpt>
      <trkpt lat="48.3978" lon="2.64673">
        <ele>97.23</ele>
        <time>2014-03-23T10:01:18Z</time>
      </trkpt>
      <trkpt lat="48.39781" lon="2.64679">
        <ele>97.23</ele>
        <time>2014-03-23T10:01:19Z</time>
      </trkpt>
      <trkpt lat="48.39793" lon="2.64734">
        <ele>99.63</ele>
        <time>2014-03-23T10:01:32Z</time>
      </trkpt>
      <trkpt lat="48.39793" lon="2.64778">
        <ele>100.6</ele>
        <time>2014-03-23T10:01:44Z</time>
      </trkpt>
      <trkpt lat="48.39792" lon="2.64793">
        <ele>99.15</ele>
        <time>2014-03-23T10:01:47Z</time>
      </trkpt>
      <trkpt lat="48.39783" lon="2.64875">
        <ele>96.27</ele>
        <time>2014-03-23T10:01:59Z</time>
      </trkpt>
      <trkpt lat="48.39774" lon="2.64952">
        <ele>95.31</ele>
        <time>2014-03-23T10:02:10Z</time>
      </trkpt>
      <trkpt lat="48.39766" lon="2.65044">
        <ele>94.83</ele>
        <time>2014-03-23T10:02:23Z</time>
      </trkpt>
      <trkpt lat="48.39757" lon="2.65127">
        <ele>92.9</ele>
        <time>2014-03-23T10:02:35Z</time>
      </trkpt>
      <trkpt lat="48.39748" lon="2.65219">
        <ele>91.94</ele>
        <time>2014-03-23T10:02:46Z</time>
      </trkpt>
      <trkpt lat="48.39744" lon="2.65251">
        <ele>91.94</ele>
        <time>2014-03-23T10:02:50Z</time>
      </trkpt>
      <trkpt lat="48.39742" lon="2.65281">
        <ele>91.94</ele>
        <time>2014-03-23T10:02:54Z</time>
      </trkpt>
      <trkpt lat="48.39741" lon="2.65288">
        <ele>91.94</ele>
        <time>2014-03-23T10:02:55Z</time>
      </trkpt>
      <trkpt lat="48.3974" lon="2.65295">
        <ele>91.94</ele>
        <time>2014-03-23T10:02:56Z</time>
      </trkpt>
      <trkpt lat="48.39725" lon="2.65413">
        <ele>90.02</ele>
        <time>2014-03-23T10:03:11Z</time>
      </trkpt>
      <trkpt lat="48.39723" lon="2.65422">
        <ele>90.02</ele>
        <time>2014-03-23T10:03:12Z</time>
      </trkpt>
      <trkpt lat="48.39723" lon="2.65429">
        <ele>90.02</ele>
        <time>2014-03-23T10:03:13Z</time>
      </trkpt>
      <trkpt lat="48.39713" lon="2.65519">
        <ele>89.06</ele>
        <time>2014-03-23T10:03:25Z</time>
      </trkpt>
      <trkpt lat="48.39702" lon="2.65598">
        <ele>88.58</ele>
        <time>2014-03-23T10:03:35Z</time>
      </trkpt>
      <trkpt lat="48.39689" lon="2.65678">
        <ele>87.62</ele>
        <time>2014-03-23T10:03:47Z</time>
      </trkpt>
      <trkpt lat="48.39687" lon="2.6569">
        <ele>88.58</ele>
        <time>2014-03-23T10:03:49Z</time>
      </trkpt>
      <trkpt lat="48.39679" lon="2.6573">
        <ele>90.5</ele>
        <time>2014-03-23T10:04:00Z</time>
      </trkpt>
      <trkpt lat="48.39668" lon="2.65778">
        <ele>90.5</ele>
        <time>2014-03-23T10:04:15Z</time>
      </trkpt>
      <trkpt lat="48.39658" lon="2.65831">
        <ele>89.06</ele>
        <time>2014-03-23T10:04:25Z</time>
      </trkpt>
      <trkpt lat="48.39644" lon="2.65896">
        <ele>89.06</ele>
        <time>2014-03-23T10:04:37Z</time>
      </trkpt>
      <trkpt lat="48.39641" lon="2.65929">
        <ele>90.5</ele>
        <time>2014-03-23T10:04:45Z</time>
      </trkpt>
      <trkpt lat="48.39641" lon="2.65931">
        <ele>90.5</ele>
        <time>2014-03-23T10:04:46Z</time>
      </trkpt>
      <trkpt lat="48.39643" lon="2.65939">
        <ele>90.98</ele>
        <time>2014-03-23T10:04:58Z</time>
      </trkpt>
      <trkpt lat="48.39642" lon="2.65942">
        <ele>90.98</ele>
        <time>2014-03-23T10:05:29Z</time>
      </trkpt>
      <trkpt lat="48.39655" lon="2.65982">
        <ele>90.98</ele>
        <time>2014-03-23T10:05:40Z</time>
      </trkpt>
      <trkpt lat="48.39671" lon="2.66035">
        <ele>92.42</ele>
        <time>2014-03-23T10:05:55Z</time>
      </trkpt>
      <trkpt lat="48.39687" lon="2.66084">
        <ele>93.87</ele>
        <time>2014-03-23T10:06:11Z</time>
      </trkpt>
      <trkpt lat="48.397" lon="2.66098">
        <ele>94.83</ele>
        <time>2014-03-23T10:06:23Z</time>
      </trkpt>
      <trkpt lat="48.39712" lon="2.66112">
        <ele>95.79</ele>
        <time>2014-03-23T10:06:38Z</time>
      </trkpt>
      <trkpt lat="48.39725" lon="2.66125">
        <ele>97.71</ele>
        <time>2014-03-23T10:06:54Z</time>
      </trkpt>
      <trkpt lat="48.39736" lon="2.66132">
        <ele>99.15</ele>
        <time>2014-03-23T10:07:08Z</time>
      </trkpt>
      <trkpt lat="48.39745" lon="2.66137">
        <ele>99.63</ele>
        <time>2014-03-23T10:07:22Z</time>
      </trkpt>
      <trkpt lat="48.39764" lon="2.66144">
        <ele>103</ele>
        <time>2014-03-23T10:07:36Z</time>
      </trkpt>
      <trkpt lat="48.39774" lon="2.66145">
        <ele>104.44</ele>
        <time>2014-03-23T10:07:49Z</time>
      </trkpt>
      <trkpt lat="48.39788" lon="2.66147">
        <ele>107.32</ele>
        <time>2014-03-23T10:08:05Z</time>
      </trkpt>
      <trkpt lat="48.39803" lon="2.66151">
        <ele>109.73</ele>
        <time>2014-03-23T10:08:21Z</time>
      </trkpt>
      <trkpt lat="48.39814" lon="2.66152">
        <ele>111.65</ele>
        <time>2014-03-23T10:08:36Z</time>
      </trkpt>
      <trkpt lat="48.39815" lon="2.66147">
        <ele>112.61</ele>
        <time>2014-03-23T10:08:54Z</time>
      </trkpt>
      <trkpt lat="48.39817" lon="2.66148">
        <ele>113.09</ele>
        <time>2014-03-23T10:09:18Z</time>
      </trkpt>
      <trkpt lat="48.39818" lon="2.66149">
        <ele>113.09</ele>
        <time>2014-03-23T10:09:19Z</time>
      </trkpt>
      <trkpt lat="48.3982" lon="2.6615">
        <ele>113.09</ele>
        <time>2014-03-23T10:09:20Z</time>
      </trkpt>
      <trkpt lat="48.39821" lon="2.6615">
        <ele>113.57</ele>
        <time>2014-03-23T10:09:21Z</time>
      </trkpt>
      <trkpt lat="48.39823" lon="2.6615">
        <ele>114.05</ele>
        <time>2014-03-23T10:09:22Z</time>
      </trkpt>
      <trkpt lat="48.39824" lon="2.66151">
        <ele>114.05</ele>
        <time>2014-03-23T10:09:23Z</time>
      </trkpt>
      <trkpt lat="48.39841" lon="2.66154">
        <ele>117.42</ele>
        <time>2014-03-23T10:09:34Z</time>
      </trkpt>
      <trkpt lat="48.39849" lon="2.66155">
        <ele>118.86</ele>
        <time>2014-03-23T10:09:40Z</time>
      </trkpt>
      <trkpt lat="48.3985" lon="2.66155">
        <ele>118.86</ele>
        <time>2014-03-23T10:09:41Z</time>
      </trkpt>
      <trkpt lat="48.39858" lon="2.66161">
        <ele>119.34</ele>
        <time>2014-03-23T10:09:53Z</time>
      </trkpt>
      <trkpt lat="48.39857" lon="2.66164">
        <ele>119.34</ele>
        <time>2014-03-23T10:10:20Z</time>
      </trkpt>
      <trkpt lat="48.39858" lon="2.66162">
        <ele>119.82</ele>
        <time>2014-03-23T10:10:48Z</time>
      </trkpt>
      <trkpt lat="48.3986" lon="2.66162">
        <ele>119.82</ele>
        <time>2014-03-23T10:10:49Z</time>
      </trkpt>
      <trkpt lat="48.39861" lon="2.66162">
        <ele>119.82</ele>
        <time>2014-03-23T10:10:50Z</time>
      </trkpt>
      <trkpt lat="48.39864" lon="2.66161">
        <ele>118.86</ele>
        <time>2014-03-23T10:10:51Z</time>
      </trkpt>
      <trkpt lat="48.39867" lon="2.66162">
        <ele>118.86</ele>
        <time>2014-03-23T10:10:52Z</time>
      </trkpt>
      <trkpt lat="48.3987" lon="2.66162">
        <ele>117.42</ele>
        <time>2014-03-23T10:10:53Z</time>
      </trkpt>
      <trkpt lat="48.39874" lon="2.66164">
        <ele>116.94</ele>
        <time>2014-03-23T10:10:54Z</time>
      </trkpt>
      <trkpt lat="48.39879" lon="2.66166">
        <ele>115.5</ele>
        <time>2014-03-23T10:10:55Z</time>
      </trkpt>
      <trkpt lat="48.39884" lon="2.66168">
        <ele>114.53</ele>
        <time>2014-03-23T10:10:56Z</time>
      </trkpt>
      <trkpt lat="48.39889" lon="2.6617">
        <ele>113.57</ele>
        <time>2014-03-23T10:10:57Z</time>
      </trkpt>
      <trkpt lat="48.39894" lon="2.66171">
        <ele>113.09</ele>
        <time>2014-03-23T10:10:58Z</time>
      </trkpt>
      <trkpt lat="48.39898" lon="2.66172">
        <ele>112.13</ele>
        <time>2014-03-23T10:10:59Z</time>
      </trkpt>
      <trkpt lat="48.39903" lon="2.66171">
        <ele>111.17</ele>
        <time>2014-03-23T10:11:00Z</time>
      </trkpt>
      <trkpt lat="48.39907" lon="2.6617">
        <ele>110.21</ele>
        <time>2014-03-23T10:11:01Z</time>
      </trkpt>
      <trkpt lat="48.39912" lon="2.66169">
        <ele>109.25</ele>
        <time>2014-03-23T10:11:02Z</time>
      </trkpt>
      <trkpt lat="48.39916" lon="2.66168">
        <ele>108.29</ele>
        <time>2014-03-23T10:11:03Z</time>
      </trkpt>
      <trkpt lat="48.39921" lon="2.66165">
        <ele>107.81</ele>
        <time>2014-03-23T10:11:04Z</time>
      </trkpt>
      <trkpt lat="48.39925" lon="2.66162">
        <ele>106.84</ele>
        <time>2014-03-23T10:11:05Z</time>
      </trkpt>
      <trkpt lat="48.39929" lon="2.66158">
        <ele>106.36</ele>
        <time>2014-03-23T10:11:06Z</time>
      </trkpt>
      <trkpt lat="48.39933" lon="2.66155">
        <ele>105.4</ele>
        <time>2014-03-23T10:11:07Z</time>
      </trkpt>
      <trkpt lat="48.39936" lon="2.66154">
        <ele>104.44</ele>
        <time>2014-03-23T10:11:08Z</time>
      </trkpt>
      <trkpt lat="48.3994" lon="2.66154">
        <ele>104.44</ele>
        <time>2014-03-23T10:11:09Z</time>
      </trkpt>
      <trkpt lat="48.39952" lon="2.66153">
        <ele>103.48</ele>
        <time>2014-03-23T10:11:12Z</time>
      </trkpt>
      <trkpt lat="48.39974" lon="2.6616">
        <ele>100.11</ele>
        <time>2014-03-23T10:11:16Z</time>
      </trkpt>
      <trkpt lat="48.39997" lon="2.66168">
        <ele>97.23</ele>
        <time>2014-03-23T10:11:20Z</time>
      </trkpt>
      <trkpt lat="48.40012" lon="2.66172">
        <ele>95.79</ele>
        <time>2014-03-23T10:11:23Z</time>
      </trkpt>
      <trkpt lat="48.40022" lon="2.66176">
        <ele>93.87</ele>
        <time>2014-03-23T10:11:25Z</time>
      </trkpt>
      <trkpt lat="48.40033" lon="2.66179">
        <ele>93.39</ele>
        <time>2014-03-23T10:11:27Z</time>
      </trkpt>
      <trkpt lat="48.40038" lon="2.66181">
        <ele>92.9</ele>
        <time>2014-03-23T10:11:28Z</time>
      </trkpt>
      <trkpt lat="48.40046" lon="2.66186">
        <ele>92.42</ele>
        <time>2014-03-23T10:11:30Z</time>
      </trkpt>
      <trkpt lat="48.4005" lon="2.66191">
        <ele>91.94</ele>
        <time>2014-03-23T10:11:31Z</time>
      </trkpt>
      <trkpt lat="48.40054" lon="2.66196">
        <ele>91.46</ele>
        <time>2014-03-23T10:11:32Z</time>
      </trkpt>
      <trkpt lat="48.40057" lon="2.66201">
        <ele>91.94</ele>
        <time>2014-03-23T10:11:33Z</time>
      </trkpt>
      <trkpt lat="48.40058" lon="2.66207">
        <ele>91.46</ele>
        <time>2014-03-23T10:11:34Z</time>
      </trkpt>
      <trkpt lat="48.40058" lon="2.66214">
        <ele>91.94</ele>
        <time>2014-03-23T10:11:35Z</time>
      </trkpt>
      <trkpt lat="48.40057" lon="2.66219">
        <ele>91.46</ele>
        <time>2014-03-23T10:11:36Z</time>
      </trkpt>
      <trkpt lat="48.40054" lon="2.66257">
        <ele>91.46</ele>
        <time>2014-03-23T10:11:41Z</time>
      </trkpt>
      <trkpt lat="48.40054" lon="2.66304">
        <ele>91.46</ele>
        <time>2014-03-23T10:11:47Z</time>
      </trkpt>
      <trkpt lat="48.40054" lon="2.66312">
        <ele>91.46</ele>
        <time>2014-03-23T10:11:48Z</time>
      </trkpt>
      <trkpt lat="48.40053" lon="2.66338">
        <ele>90.98</ele>
        <time>2014-03-23T10:11:51Z</time>
      </trkpt>
      <trkpt lat="48.40048" lon="2.66478">
        <ele>90.02</ele>
        <time>2014-03-23T10:12:05Z</time>
      </trkpt>
      <trkpt lat="48.40043" lon="2.66612">
        <ele>89.06</ele>
        <time>2014-03-23T10:12:18Z</time>
      </trkpt>
      <trkpt lat="48.4004" lon="2.66664">
        <ele>89.06</ele>
        <time>2014-03-23T10:12:23Z</time>
      </trkpt>
      <trkpt lat="48.40041" lon="2.66693">
        <ele>89.06</ele>
        <time>2014-03-23T10:12:26Z</time>
      </trkpt>
      <trkpt lat="48.40045" lon="2.66722">
        <ele>88.58</ele>
        <time>2014-03-23T10:12:29Z</time>
      </trkpt>
      <trkpt lat="48.40048" lon="2.6673">
        <ele>88.58</ele>
        <time>2014-03-23T10:12:30Z</time>
      </trkpt>
      <trkpt lat="48.40054" lon="2.66734">
        <ele>88.58</ele>
        <time>2014-03-23T10:12:31Z</time>
      </trkpt>
      <trkpt lat="48.40059" lon="2.66736">
        <ele>88.58</ele>
        <time>2014-03-23T10:12:32Z</time>
      </trkpt>
      <trkpt lat="48.40065" lon="2.66736">
        <ele>88.58</ele>
        <time>2014-03-23T10:12:33Z</time>
      </trkpt>
      <trkpt lat="48.40128" lon="2.6675">
        <ele>88.58</ele>
        <time>2014-03-23T10:12:45Z</time>
      </trkpt>
      <trkpt lat="48.40191" lon="2.66758">
        <ele>88.58</ele>
        <time>2014-03-23T10:12:56Z</time>
      </trkpt>
      <trkpt lat="48.40202" lon="2.6676">
        <ele>88.58</ele>
        <time>2014-03-23T10:12:58Z</time>
      </trkpt>
      <trkpt lat="48.40207" lon="2.66761">
        <ele>88.58</ele>
        <time>2014-03-23T10:12:59Z</time>
      </trkpt>
      <trkpt lat="48.40218" lon="2.66761">
        <ele>88.58</ele>
        <time>2014-03-23T10:13:01Z</time>
      </trkpt>
      <trkpt lat="48.40223" lon="2.66761">
        <ele>88.58</ele>
        <time>2014-03-23T10:13:02Z</time>
      </trkpt>
      <trkpt lat="48.40239" lon="2.66762">
        <ele>88.58</ele>
        <time>2014-03-23T10:13:05Z</time>
      </trkpt>
      <trkpt lat="48.40293" lon="2.66769">
        <ele>88.58</ele>
        <time>2014-03-23T10:13:17Z</time>
      </trkpt>
      <trkpt lat="48.40343" lon="2.66776">
        <ele>90.5</ele>
        <time>2014-03-23T10:13:30Z</time>
      </trkpt>
      <trkpt lat="48.40384" lon="2.66781">
        <ele>90.98</ele>
        <time>2014-03-23T10:13:43Z</time>
      </trkpt>
      <trkpt lat="48.40421" lon="2.66785">
        <ele>91.46</ele>
        <time>2014-03-23T10:13:56Z</time>
      </trkpt>
      <trkpt lat="48.40449" lon="2.6679">
        <ele>92.42</ele>
        <time>2014-03-23T10:14:07Z</time>
      </trkpt>
      <trkpt lat="48.40481" lon="2.66796">
        <ele>92.9</ele>
        <time>2014-03-23T10:14:19Z</time>
      </trkpt>
      <trkpt lat="48.4049" lon="2.66799">
        <ele>93.87</ele>
        <time>2014-03-23T10:14:31Z</time>
      </trkpt>
      <trkpt lat="48.40491" lon="2.66799">
        <ele>93.87</ele>
        <time>2014-03-23T10:14:32Z</time>
      </trkpt>
      <trkpt lat="48.40493" lon="2.66799">
        <ele>93.87</ele>
        <time>2014-03-23T10:14:33Z</time>
      </trkpt>
      <trkpt lat="48.40513" lon="2.66803">
        <ele>95.31</ele>
        <time>2014-03-23T10:14:46Z</time>
      </trkpt>
      <trkpt lat="48.40531" lon="2.66809">
        <ele>96.27</ele>
        <time>2014-03-23T10:15:00Z</time>
      </trkpt>
      <trkpt lat="48.40549" lon="2.66816">
        <ele>97.23</ele>
        <time>2014-03-23T10:15:12Z</time>
      </trkpt>
      <trkpt lat="48.40558" lon="2.66818">
        <ele>98.67</ele>
        <time>2014-03-23T10:15:25Z</time>
      </trkpt>
      <trkpt lat="48.40565" lon="2.66819">
        <ele>98.67</ele>
        <time>2014-03-23T10:15:39Z</time>
      </trkpt>
      <trkpt lat="48.40577" lon="2.66824">
        <ele>101.08</ele>
        <time>2014-03-23T10:15:56Z</time>
      </trkpt>
      <trkpt lat="48.4058" lon="2.66822">
        <ele>101.08</ele>
        <time>2014-03-23T10:16:19Z</time>
      </trkpt>
      <trkpt lat="48.40596" lon="2.66829">
        <ele>103.48</ele>
        <time>2014-03-23T10:16:35Z</time>
      </trkpt>
      <trkpt lat="48.40612" lon="2.66832">
        <ele>104.92</ele>
        <time>2014-03-23T10:16:49Z</time>
      </trkpt>
      <trkpt lat="48.40627" lon="2.66838">
        <ele>105.88</ele>
        <time>2014-03-23T10:17:03Z</time>
      </trkpt>
      <trkpt lat="48.40629" lon="2.66844">
        <ele>107.32</ele>
        <time>2014-03-23T10:17:13Z</time>
      </trkpt>
      <trkpt lat="48.40628" lon="2.66854">
        <ele>107.32</ele>
        <time>2014-03-23T10:17:17Z</time>
      </trkpt>
      <trkpt lat="48.40624" lon="2.66893">
        <ele>107.81</ele>
        <time>2014-03-23T10:17:27Z</time>
      </trkpt>
      <trkpt lat="48.40624" lon="2.669">
        <ele>107.81</ele>
        <time>2014-03-23T10:17:28Z</time>
      </trkpt>
      <trkpt lat="48.40624" lon="2.66908">
        <ele>107.81</ele>
        <time>2014-03-23T10:17:29Z</time>
      </trkpt>
      <trkpt lat="48.40622" lon="2.66916">
        <ele>105.88</ele>
        <time>2014-03-23T10:17:30Z</time>
      </trkpt>
      <trkpt lat="48.40621" lon="2.66926">
        <ele>104.92</ele>
        <time>2014-03-23T10:17:31Z</time>
      </trkpt>
      <trkpt lat="48.4062" lon="2.66936">
        <ele>104.44</ele>
        <time>2014-03-23T10:17:32Z</time>
      </trkpt>
      <trkpt lat="48.40619" lon="2.66945">
        <ele>104.44</ele>
        <time>2014-03-23T10:17:33Z</time>
      </trkpt>
      <trkpt lat="48.40618" lon="2.66954">
        <ele>104.44</ele>
        <time>2014-03-23T10:17:34Z</time>
      </trkpt>
      <trkpt lat="48.40617" lon="2.66962">
        <ele>103.96</ele>
        <time>2014-03-23T10:17:35Z</time>
      </trkpt>
      <trkpt lat="48.40613" lon="2.66996">
        <ele>103.48</ele>
        <time>2014-03-23T10:17:39Z</time>
      </trkpt>
      <trkpt lat="48.40611" lon="2.67005">
        <ele>102.04</ele>
        <time>2014-03-23T10:17:40Z</time>
      </trkpt>
      <trkpt lat="48.4061" lon="2.67014">
        <ele>102.04</ele>
        <time>2014-03-23T10:17:41Z</time>
      </trkpt>
      <trkpt lat="48.40605" lon="2.67063">
        <ele>100.6</ele>
        <time>2014-03-23T10:17:46Z</time>
      </trkpt>
      <trkpt lat="48.40604" lon="2.67073">
        <ele>100.11</ele>
        <time>2014-03-23T10:17:47Z</time>
      </trkpt>
      <trkpt lat="48.40603" lon="2.67083">
        <ele>99.15</ele>
        <time>2014-03-23T10:17:48Z</time>
      </trkpt>
      <trkpt lat="48.40602" lon="2.67094">
        <ele>99.15</ele>
        <time>2014-03-23T10:17:49Z</time>
      </trkpt>
      <trkpt lat="48.40601" lon="2.67105">
        <ele>98.67</ele>
        <time>2014-03-23T10:17:50Z</time>
      </trkpt>
      <trkpt lat="48.40596" lon="2.67158">
        <ele>96.27</ele>
        <time>2014-03-23T10:17:55Z</time>
      </trkpt>
      <trkpt lat="48.40584" lon="2.67274">
        <ele>92.9</ele>
        <time>2014-03-23T10:18:06Z</time>
      </trkpt>
      <trkpt lat="48.40573" lon="2.67397">
        <ele>91.94</ele>
        <time>2014-03-23T10:18:18Z</time>
      </trkpt>
      <trkpt lat="48.40561" lon="2.67542">
        <ele>90.5</ele>
        <time>2014-03-23T10:18:33Z</time>
      </trkpt>
      <trkpt lat="48.40548" lon="2.6768">
        <ele>90.5</ele>
        <time>2014-03-23T10:18:48Z</time>
      </trkpt>
      <trkpt lat="48.40539" lon="2.67736">
        <ele>90.5</ele>
        <time>2014-03-23T10:18:55Z</time>
      </trkpt>
      <trkpt lat="48.40538" lon="2.67744">
        <ele>90.5</ele>
        <time>2014-03-23T10:18:56Z</time>
      </trkpt>
      <trkpt lat="48.40524" lon="2.67854">
        <ele>90.5</ele>
        <time>2014-03-23T10:19:09Z</time>
      </trkpt>
      <trkpt lat="48.40507" lon="2.67969">
        <ele>90.5</ele>
        <time>2014-03-23T10:19:22Z</time>
      </trkpt>
      <trkpt lat="48.40504" lon="2.67995">
        <ele>90.5</ele>
        <time>2014-03-23T10:19:25Z</time>
      </trkpt>
      <trkpt lat="48.40495" lon="2.6806">
        <ele>90.02</ele>
        <time>2014-03-23T10:19:33Z</time>
      </trkpt>
      <trkpt lat="48.40494" lon="2.68076">
        <ele>90.02</ele>
        <time>2014-03-23T10:19:35Z</time>
      </trkpt>
      <trkpt lat="48.40488" lon="2.68105">
        <ele>90.02</ele>
        <time>2014-03-23T10:19:39Z</time>
      </trkpt>
      <trkpt lat="48.40476" lon="2.68183">
        <ele>89.54</ele>
        <time>2014-03-23T10:19:48Z</time>
      </trkpt>
      <trkpt lat="48.40475" lon="2.68191">
        <ele>89.54</ele>
        <time>2014-03-23T10:19:49Z</time>
      </trkpt>
      <trkpt lat="48.40474" lon="2.682">
        <ele>89.54</ele>
        <time>2014-03-23T10:19:50Z</time>
      </trkpt>
      <trkpt lat="48.40472" lon="2.68217">
        <ele>89.54</ele>
        <time>2014-03-23T10:19:52Z</time>
      </trkpt>
      <trkpt lat="48.4047" lon="2.68233">
        <ele>89.54</ele>
        <time>2014-03-23T10:19:54Z</time>
      </trkpt>
      <trkpt lat="48.40468" lon="2.68255">
        <ele>89.54</ele>
        <time>2014-03-23T10:19:57Z</time>
      </trkpt>
      <trkpt lat="48.40466" lon="2.68262">
        <ele>89.54</ele>
        <time>2014-03-23T10:19:58Z</time>
      </trkpt>
      <trkpt lat="48.40465" lon="2.68269">
        <ele>89.06</ele>
        <time>2014-03-23T10:19:59Z</time>
      </trkpt>
      <trkpt lat="48.40464" lon="2.68276">
        <ele>89.06</ele>
        <time>2014-03-23T10:20:00Z</time>
      </trkpt>
      <trkpt lat="48.40464" lon="2.68282">
        <ele>89.06</ele>
        <time>2014-03-23T10:20:01Z</time>
      </trkpt>
      <trkpt lat="48.40463" lon="2.68286">
        <ele>89.06</ele>
        <time>2014-03-23T10:20:02Z</time>
      </trkpt>
      <trkpt lat="48.40462" lon="2.68288">
        <ele>89.06</ele>
        <time>2014-03-23T10:20:03Z</time>
      </trkpt>
      <trkpt lat="48.40459" lon="2.68293">
        <ele>89.06</ele>
        <time>2014-03-23T10:20:18Z</time>
      </trkpt>
      <trkpt lat="48.40459" lon="2.68292">
        <ele>88.58</ele>
        <time>2014-03-23T10:20:44Z</time>
      </trkpt>
      <trkpt lat="48.40459" lon="2.68291">
        <ele>88.58</ele>
        <time>2014-03-23T10:21:09Z</time>
      </trkpt>
      <trkpt lat="48.40458" lon="2.68292">
        <ele>88.58</ele>
        <time>2014-03-23T10:21:36Z</time>
      </trkpt>
      <trkpt lat="48.40458" lon="2.68294">
        <ele>88.58</ele>
        <time>2014-03-23T10:21:55Z</time>
      </trkpt>
      <trkpt lat="48.40458" lon="2.68294">
        <ele>88.58</ele>
        <time>2014-03-23T10:21:58Z</time>
      </trkpt>
      <trkpt lat="48.40448" lon="2.68289">
        <ele>88.58</ele>
        <time>2014-03-23T10:22:06Z</time>
      </trkpt>
      <trkpt lat="48.40445" lon="2.68288">
        <ele>88.58</ele>
        <time>2014-03-23T10:22:07Z</time>
      </trkpt>
      <trkpt lat="48.40442" lon="2.68289">
        <ele>88.58</ele>
        <time>2014-03-23T10:22:08Z</time>
      </trkpt>
      <trkpt lat="48.40439" lon="2.68292">
        <ele>88.58</ele>
        <time>2014-03-23T10:22:09Z</time>
      </trkpt>
      <trkpt lat="48.40437" lon="2.68295">
        <ele>88.58</ele>
        <time>2014-03-23T10:22:10Z</time>
      </trkpt>
      <trkpt lat="48.40426" lon="2.68305">
        <ele>88.58</ele>
        <time>2014-03-23T10:22:14Z</time>
      </trkpt>
      <trkpt lat="48.40423" lon="2.68305">
        <ele>88.58</ele>
        <time>2014-03-23T10:22:15Z</time>
      </trkpt>
      <trkpt lat="48.40421" lon="2.68305">
        <ele>88.58</ele>
        <time>2014-03-23T10:22:16Z</time>
      </trkpt>
      <trkpt lat="48.40412" lon="2.68302">
        <ele>88.58</ele>
        <time>2014-03-23T10:22:24Z</time>
      </trkpt>
      <trkpt lat="48.40404" lon="2.68307">
        <ele>87.14</ele>
        <time>2014-03-23T10:22:37Z</time>
      </trkpt>
      <trkpt lat="48.40404" lon="2.68308">
        <ele>90.5</ele>
        <time>2014-03-23T10:22:39Z</time>
      </trkpt>
      <trkpt lat="48.40403" lon="2.68308">
        <ele>87.62</ele>
        <time>2014-03-23T10:22:50Z</time>
      </trkpt>
    </trkseg>
  </trk>
</gpx>